ECMWFNIL_con_mucape_000.txt.gz
CAPE
1012 410 509 498 392 396 331 437 155 379 381 200 217 78 53 17 4 37 69 7 0 0 0 0 0 0 0 0 0 0 0 0 0 0 0 0 0 0 0 0 0 0
915 666 362 361 501 404 361 651 231 246 461 318 369 270 183 14 7 121 34 26 0 0 0 0 0 0 0 0 0 0 0 0 0 0 0 0 0 0 0 0 0 0
942 917 514 388 503 536 484 885 632 293 477 491 688 440 359 62 42 164 69 16 2 3 2 0 0 0 0 0 0 0 0 0 0 0 0 0 0 0 0 0 0 0
1000 1306 913 824 907 941 533 555 995 430 677 495 896 653 450 240 150 263 170 103 55 21 19 2 0 0 0 0 0 0 0 0 0 0 0 0 0 0 0 0 0 0
1302 1343 1328 1282 913 1192 816 475 927 566 634 445 939 792 516 336 311 241 218 120 154 41 36 19 3 1 0 0 0 0 0 0 0 0 0 0 0 0 0 0 0 0
1432 1072 1023 979 1312 1768 1429 637 744 979 1109 415 979 821 639 486 341 219 202 142 222 100 63 11 1 2 0 0 0 0 0 0 0 0 0 0 0 0 0 0 0 0
1607 1129 1229 1137 1787 1341 1375 1501 748 394 622 906 845 780 717 500 407 268 173 110 161 161 81 24 0 0 0 0 0 0 0 0 0 0 0 0 0 0 0 0 0 0
769 1567 1540 1387 1247 1003 828 668 693 783 1406 397 719 766 703 489 369 438 266 135 147 153 141 44 25 0 0 0 0 0 0 0 0 0 0 0 0 0 0 0 0 0
1534 1328 1548 2122 1164 1341 932 694 791 858 804 111 172 693 756 574 302 613 370 220 226 238 89 77 61 25 4 3 0 0 0 0 0 0 0 0 0 0 0 0 0 0
1639 1633 1668 1952 1819 1483 1464 1321 1313 1155 1041 668 515 605 742 772 355 364 437 292 271 230 243 234 101 75 38 8 0 0 0 0 0 0 0 0 0 0 0 0 0 0
2055 2361 2251 1610 1342 1069 861 890 957 762 622 583 714 650 564 300 379 376 499 213 303 304 260 255 191 108 37 14 0 6 11 8 0 0 0 0 0 0 0 0 0 0
1648 1657 1504 1587 1394 1140 899 940 991 1119 713 89 344 296 302 78 37 435 56 21 27 241 130 216 241 141 73 23 0 3 6 4 0 1 0 0 0 0 0 0 0 0
938 925 1662 1262 1434 1415 1207 1208 948 958 824 803 424 360 329 108 52 46 51 8 5 136 216 171 205 189 122 62 12 0 0 0 0 0 6 10 0 0 0 0 0 0
552 332 288 749 1322 1261 1359 1228 771 418 426 817 500 474 373 233 168 112 88 160 265 222 258 236 199 258 239 123 26 1 0 0 0 12 1 0 0 0 0 0 0 0
33 109 564 670 534 548 719 742 682 621 478 474 855 819 663 560 441 366 294 103 123 329 407 416 358 328 186 170 78 142 8 1 0 3 3 0 0 0 0 0 0 0
60 253 101 0 44 185 218 133 131 273 393 1074 936 742 598 473 580 419 308 215 246 510 385 343 565 584 274 244 19 12 1 0 0 0 4 14 10 12 0 0 0 0
2 0 0 0 8 0 1 10 162 304 374 551 542 364 297 298 443 544 315 238 251 406 416 656 364 391 328 325 246 180 131 94 0 2 9 18 11 5 1 0 3 0
0 0 0 0 0 0 0 0 1 47 85 284 539 502 600 538 494 454 487 680 545 536 844 574 430 333 369 283 240 196 150 102 10 32 36 4 12 14 19 15 26 0
0 0 0 0 0 0 0 0 0 6 115 299 417 485 93 123 258 423 748 851 1192 909 649 580 508 466 276 305 203 185 126 34 0 0 0 5 2 7 0 0 2 0
0 0 0 0 0 0 0 0 0 0 133 299 220 221 269 426 622 543 584 840 961 652 363 411 487 511 360 340 346 258 192 138 0 0 0 3 0 0 0 0 0 0
0 0 0 0 0 0 0 0 0 0 14 131 256 274 307 286 388 431 497 632 736 480 374 355 416 504 474 394 268 238 152 0 0 0 0 2 2 0 0 0 0 0
0 0 0 0 0 0 0 0 6 23 21 64 188 286 217 182 208 373 507 550 583 360 296 318 375 411 437 387 277 194 81 11 12 29 0 0 0 0 0 0 0 0
0 0 0 0 0 0 0 2 4 28 26 31 112 251 260 241 187 219 168 299 388 232 224 248 286 298 274 269 224 152 0 29 0 13 11 0 1 1 0 0 0 0
0 0 0 0 0 0 0 8 8 4 9 28 68 112 228 219 162 120 118 100 74 196 188 192 184 178 190 196 212 200 0 6 0 0 3 2 3 0 0 0 1 0
0 0 1 1 1 7 38 35 35 44 30 38 84 131 154 162 32 59 20 0 0 0 0 0 0 0 71 100 106 112 122 56 0 1 7 6 4 1 1 3 4 1
0 2 5 5 9 56 54 51 50 36 60 101 179 148 85 71 91 119 1 0 0 0 0 0 0 0 36 33 37 36 44 33 0 0 10 6 2 4 0 7 6 0

ECMWFNIL_con_mucape_003.txt.gz
CAPE
0 4 0 0 0 0 0 0 0 0 0 0 0 0 0 0 0 0 0 0 0 0 0 0 0 0 0 0 0 0 0 0 0 0 0 0 0 0 0 0 0 0
0 11 9 0 0 0 0 0 0 0 0 0 0 0 0 0 0 0 0 0 0 0 0 0 0 0 0 0 0 0 0 0 0 0 0 0 0 0 0 0 0 0
0 7 10 3 0 0 0 0 0 0 0 0 0 0 0 0 0 0 0 0 0 0 0 0 0 0 0 0 0 0 0 0 0 0 0 0 0 0 0 0 0 0
11 2 5 5 0 1 1 1 1 3 1 0 0 0 0 0 0 0 0 0 0 0 0 0 0 0 0 0 0 0 0 0 0 0 0 0 0 0 0 0 0 0
25 34 26 54 19 11 43 14 2 57 44 40 4 0 0 0 0 0 0 0 0 0 0 0 0 0 0 0 0 0 0 0 0 0 0 0 0 0 0 0 0 0
527 308 177 242 94 12 201 83 4 181 224 178 32 0 0 0 0 0 0 0 0 0 0 0 0 0 0 0 0 0 0 0 0 0 0 0 0 0 0 0 0 0
742 522 577 718 392 81 254 208 27 48 321 252 54 0 0 0 0 0 0 0 0 0 0 0 0 0 0 0 0 0 0 0 0 0 0 0 0 0 0 0 0 0
87 487 401 555 462 272 385 322 346 434 142 330 82 20 18 17 3 0 0 0 1 0 0 0 0 0 0 0 0 0 0 0 0 0 0 0 0 0 0 0 0 0
242 272 255 196 266 190 272 295 295 380 481 430 245 229 267 305 257 196 167 62 95 48 0 0 0 0 0 0 0 0 0 0 0 0 0 0 0 0 0 0 0 0
153 294 485 107 93 116 340 460 426 314 265 427 416 346 347 357 295 229 221 209 187 138 123 142 125 93 5 0 0 0 0 0 0 0 0 0 0 0 0 0 0 0
776 1113 1233 698 595 561 534 494 430 287 121 35 377 450 364 337 246 280 252 234 199 26 6 145 132 112 119 120 69 0 0 0 0 0 2 2 0 0 0 0 0 0
1011 1095 1067 916 719 602 364 135 102 120 390 18 8 17 272 213 41 15 49 26 214 6 2 6 155 96 132 163 155 125 106 18 0 0 0 0 0 0 0 0 0 0
994 811 833 759 724 630 591 599 336 387 325 103 82 44 29 17 20 38 60 41 11 1 4 0 0 2 66 222 193 170 150 98 89 0 0 0 0 0 0 0 0 0
1006 823 765 473 552 589 632 578 516 496 393 364 351 109 117 111 167 66 24 30 35 1 0 0 0 0 0 0 236 208 184 166 160 121 33 19 0 0 0 0 0 2
721 723 291 117 328 785 739 509 335 314 279 160 64 302 244 189 46 64 13 1 1 11 6 4 10 24 43 16 28 13 184 196 189 166 136 130 0 0 0 0 0 0
517 228 56 285 20 446 505 345 140 165 40 428 546 491 421 330 141 66 44 40 69 26 17 20 35 75 85 189 104 255 218 193 210 211 184 167 158 94 0 0 0 0
6 0 0 0 0 0 0 0 1 481 420 374 505 551 556 506 510 398 297 243 205 110 40 44 68 211 254 333 391 338 225 185 194 205 172 151 149 124 0 0 0 0
0 0 0 0 0 0 0 0 12 7 1 19 381 439 460 503 524 471 425 386 335 288 246 229 231 282 287 367 383 361 275 202 204 152 109 5 4 66 25 0 40 0
0 0 0 0 0 0 0 0 0 0 0 24 57 315 331 353 320 261 322 372 374 334 412 475 500 519 568 570 447 357 302 237 174 31 228 280 226 65 132 0 40 72
0 0 0 0 0 0 0 0 0 0 0 4 34 57 59 52 161 160 249 357 492 610 694 764 811 818 784 744 700 654 372 312 192 199 192 142 73 36 124 100 0 0
0 0 0 0 0 0 0 0 0 0 0 0 29 50 68 38 42 119 157 110 120 137 243 312 371 416 425 421 440 521 566 444 359 244 0 82 0 7 0 0 0 0
0 0 0 0 0 0 0 0 0 0 0 0 0 28 38 2 0 19 133 167 168 164 232 265 254 231 252 295 348 414 449 414 373 316 235 171 0 0 0 0 0 0
0 0 0 0 0 0 0 0 0 0 0 0 0 0 1 1 0 0 143 290 318 335 305 249 198 0 189 213 230 256 301 306 263 261 73 91 1 0 0 0 0 0
0 0 0 0 0 0 0 0 0 0 0 0 0 0 0 1 0 0 0 44 282 262 270 251 213 183 172 183 200 201 192 180 79 0 0 0 0 1 4 5 0 0
0 0 0 0 0 0 0 0 0 0 0 0 0 0 0 0 0 0 0 0 0 28 183 186 149 0 0 79 126 144 177 204 197 0 0 0 0 0 0 0 0 0
0 0 0 0 0 0 0 0 0 0 0 0 0 0 0 0 0 0 0 0 0 14 146 127 0 0 0 0 0 0 5 119 147 138 44 19 10 6 1 0 0 0

ECMWFNIL_con_mucape_006.txt.gz
CAPE
0 0 11 9 0 0 0 0 0 0 0 0 0 0 0 0 0 0 0 0 0 0 0 0 0 0 0 0 0 0 0 0 0 0 0 0 0 0 0 0 0 0
0 0 9 10 0 0 0 0 0 0 0 0 0 0 0 0 0 0 0 0 0 0 0 0 0 0 0 0 0 0 0 0 0 0 0 0 0 0 0 0 0 0
0 3 11 4 0 0 0 0 0 0 0 0 0 0 0 0 0 0 0 0 0 0 0 0 0 0 0 0 0 0 0 0 0 0 0 0 0 0 0 0 0 0
0 13 15 0 0 0 0 0 0 0 0 0 0 0 0 0 0 0 0 0 0 0 0 0 0 0 0 0 0 0 0 0 0 0 0 0 0 0 0 0 0 0
0 5 1 0 0 0 0 0 0 0 0 0 0 0 0 0 0 0 0 0 0 0 0 0 0 0 0 0 0 0 0 0 0 0 0 0 0 0 0 0 0 0
0 0 0 0 0 0 0 0 0 0 0 0 0 0 0 0 0 0 0 0 0 0 0 0 0 0 0 0 0 0 0 0 0 0 0 0 0 0 0 0 0 0
0 0 0 0 0 0 2 1 0 0 0 0 0 0 0 0 0 0 0 0 0 0 0 0 0 0 0 0 0 0 0 0 0 0 0 0 0 0 0 0 0 0
0 0 0 0 12 14 9 0 0 0 0 0 0 0 0 0 0 0 0 0 0 0 0 0 0 0 0 0 0 0 0 0 0 0 0 0 0 0 0 0 0 0
16 4 0 0 0 9 6 0 0 0 0 0 0 0 0 0 0 0 0 0 0 0 0 0 0 0 0 0 0 0 0 0 0 0 0 0 0 0 0 0 0 0
4 2 4 0 1 13 5 0 20 16 0 1 0 0 0 0 0 0 0 0 0 0 0 0 0 0 0 0 0 0 0 0 0 0 0 0 0 0 0 0 0 0
345 36 0 0 6 7 6 8 4 5 4 0 1 11 0 0 0 0 12 0 0 0 0 0 0 0 0 0 0 0 0 0 0 0 0 0 0 0 0 0 0 0
373 89 19 28 2 4 3 20 5 0 0 0 3 12 39 3 2 32 0 0 0 0 0 0 64 101 28 0 0 0 0 0 0 0 0 0 0 0 0 0 0 0
305 164 107 32 25 19 1 8 1 332 254 3 3 25 27 18 5 16 28 15 0 0 0 0 0 0 0 0 0 0 0 0 2 23 0 0 0 0 0 0 0 0
81 213 152 230 151 7 0 6 15 36 54 66 3 15 5 20 0 3 0 4 1 0 0 0 0 0 0 0 0 0 0 0 0 0 0 160 0 0 0 0 0 0
61 92 376 250 229 45 60 52 5 60 42 16 9 55 60 30 35 4 8 37 9 39 0 0 0 0 0 0 0 0 0 0 0 0 0 211 154 85 0 0 0 0
95 181 120 34 17 0 2 0 140 177 18 0 4 1 2 30 0 3 0 0 0 0 0 0 0 0 0 0 0 0 0 0 0 0 0 0 0 0 0 60 54 93
334 389 84 223 164 172 0 0 0 218 283 124 0 0 0 0 0 0 0 0 0 0 0 0 0 0 0 0 0 0 0 79 134 120 98 190 214 205 190 193 175 170
360 216 289 127 155 204 170 12 96 202 74 0 3 14 48 123 260 127 114 244 264 256 123 111 102 92 86 83 131 138 164 196 239 247 286 293 312 276 238 170 45 10
42 0 0 0 101 0 0 0 0 0 0 0 0 0 0 0 0 0 0 148 235 317 321 294 285 328 339 418 527 559 548 530 525 503 400 349 338 310 156 103 124 83
0 0 0 0 0 0 0 0 0 0 0 0 0 0 0 0 0 0 0 107 222 272 327 419 535 623 539 363 257 238 314 385 446 526 550 484 378 300 249 233 165 18
0 0 0 0 0 0 0 0 0 0 0 0 0 0 0 0 0 0 0 93 228 323 434 414 332 227 108 0 0 30 131 215 296 364 389 364 305 241 184 2 0 2
0 0 0 0 0 0 0 0 0 0 0 0 0 0 0 0 0 0 0 0 252 327 232 44 0 0 0 0 0 0 0 32 156 227 284 302 286 229 172 74 0 0
0 0 0 0 0 0 0 0 0 0 0 0 0 0 0 0 0 0 0 0 0 88 192 219 209 49 0 0 0 0 0 0 0 0 32 84 91 101 131 0 26 0
0 0 0 0 0 0 0 0 0 0 0 0 0 0 0 0 0 0 0 72 179 236 284 276 244 194 0 0 0 0 0 0 0 0 0 0 0 0 0 0 7 39
0 0 0 0 0 0 0 0 0 0 0 0 0 0 0 0 0 0 86 171 211 226 230 222 204 156 0 0 0 0 0 0 0 0 0 0 0 0 22 27 2 2
0 0 0 0 0 0 0 0 0 0 0 0 0 0 0 0 0 0 0 149 185 178 153 153 151 136 106 0 0 0 0 0 0 0 0 0 0 0 28 6 22 22

ECMWFNIL_con_mucape_009.txt.gz
CAPE
0 0 0 0 0 0 0 0 0 0 0 0 0 0 0 0 0 0 0 0 0 0 0 0 0 0 0 0 0 0 0 0 0 0 0 0 0 0 0 0 0 0
0 0 0 0 0 0 0 0 0 0 0 0 0 0 0 0 0 0 0 0 0 0 0 0 0 0 0 0 0 0 0 0 0 0 0 0 0 0 0 0 0 0
0 0 0 0 0 0 2 4 0 0 0 0 0 0 0 0 0 0 0 0 0 0 0 0 0 0 0 0 0 0 0 0 0 0 0 0 0 0 0 0 0 0
2 0 2 0 0 0 0 0 0 0 0 0 0 0 0 0 0 0 0 0 0 0 0 0 0 0 0 0 0 0 0 0 0 0 0 0 0 0 0 0 0 0
9 0 1 2 0 0 2 6 0 0 0 0 0 0 0 0 0 0 0 0 0 0 0 0 0 0 0 0 0 0 0 0 0 0 0 0 0 0 0 0 0 0
0 0 0 0 0 0 0 0 0 0 0 0 0 0 0 0 0 0 0 0 0 0 0 0 0 0 0 0 0 0 0 0 0 0 0 0 0 0 0 0 0 0
58 0 0 0 0 0 0 0 0 0 0 0 0 0 0 0 0 0 0 0 0 0 0 0 0 0 0 0 0 0 0 0 0 0 0 0 0 0 0 0 0 0
0 0 0 1 0 0 0 0 0 0 0 0 0 0 0 0 0 0 0 0 0 0 0 0 0 0 0 0 0 0 0 0 0 0 0 0 0 0 0 0 0 0
127 58 0 0 0 0 0 0 0 0 0 0 0 0 0 0 0 0 0 0 0 0 0 0 0 0 0 0 0 0 0 0 0 0 0 0 0 0 0 0 0 0
148 10 13 0 8 9 2 7 4 0 0 0 0 0 0 0 0 0 0 0 0 0 0 0 0 0 0 0 0 0 0 0 0 0 0 0 0 0 0 0 0 0
182 27 205 309 343 0 0 1 0 0 0 0 0 0 0 0 0 0 0 0 0 0 0 0 0 0 3 3 0 0 0 0 0 0 0 0 0 0 0 0 0 0
112 80 128 342 471 391 110 0 0 0 0 0 0 0 0 0 0 0 0 0 0 0 0 0 2 10 26 6 0 0 0 0 15 14 0 0 0 0 0 0 0 0
292 98 35 0 235 292 52 1 5 20 14 0 0 0 0 3 2 2 4 8 2 1 0 0 2 6 0 0 0 0 0 18 8 10 0 0 0 0 0 0 0 0
379 59 2 0 0 0 5 12 13 11 0 0 0 0 0 0 1 13 16 14 6 18 18 12 0 66 0 0 0 0 0 0 0 0 0 0 0 0 0 0 0 0
291 0 1 15 19 22 0 0 0 1 214 12 0 0 0 0 4 1 10 11 2 14 24 0 0 0 0 29 0 0 0 0 0 0 0 0 0 0 0 0 0 0
0 0 0 0 12 14 3 6 12 1 0 4 6 7 0 8 22 14 19 21 0 0 0 0 0 260 261 224 249 171 20 0 0 0 0 0 0 0 0 0 0 0
110 37 11 22 12 4 0 5 17 2 0 0 0 0 0 0 18 0 0 0 0 0 0 37 213 270 261 248 192 34 0 0 0 0 0 0 15 115 102 113 130 146
272 228 90 0 0 30 140 244 0 0 0 0 0 4 2 2 94 127 23 0 0 0 120 124 163 142 67 0 58 268 346 386 406 436 435 428 406 373 330 260 225 226
387 320 273 282 365 380 341 288 0 0 93 124 131 0 0 20 177 7 0 0 0 78 187 169 164 208 219 343 205 159 147 143 129 187 258 306 337 394 432 432 372 288
477 537 544 451 387 316 239 105 122 205 65 84 46 0 0 0 0 0 0 0 27 126 204 233 244 370 255 128 125 43 28 9 4 100 156 209 254 286 311 323 306 290
0 0 0 195 218 163 137 183 224 0 0 0 0 0 0 0 0 200 0 0 0 0 182 293 294 1 0 0 0 0 0 0 0 80 116 143 177 203 225 236 235 214
0 0 0 0 0 0 0 0 0 0 0 0 0 0 0 0 0 0 0 0 30 207 215 201 58 0 0 0 0 0 0 0 0 0 0 0 0 4 30 111 133 144
0 0 0 0 43 0 0 0 0 0 0 0 0 0 0 0 0 0 0 0 60 176 165 137 107 128 53 0 0 0 0 0 0 0 0 0 0 0 0 0 0 0
0 0 0 0 0 0 0 0 0 0 0 0 0 0 0 0 0 0 0 0 0 27 105 100 146 137 104 58 0 0 0 0 0 0 0 0 0 0 0 0 0 0
0 0 0 0 0 0 0 0 0 0 0 0 0 0 0 0 0 0 0 0 0 0 48 166 195 159 105 66 0 0 0 0 0 0 0 0 0 0 0 0 0 0
0 0 0 0 0 0 0 0 0 0 0 0 0 0 0 0 0 0 0 0 34 158 198 224 214 167 118 0 0 0 0 0 0 0 0 0 0 0 0 0 0 0

ECMWFNIL_con_mucape_012.txt.gz
CAPE
11 4 0 0 0 0 0 0 0 0 0 0 0 0 0 0 0 0 0 0 0 0 0 0 0 0 0 0 0 0 0 0 0 0 0 0 0 0 0 0 0 0
57 3 2 0 0 0 0 0 0 0 0 0 0 0 0 0 0 0 0 0 0 0 0 0 0 0 0 0 0 0 0 0 0 0 0 0 0 0 0 0 0 0
30 36 12 4 0 0 0 0 0 0 0 0 0 0 0 0 0 0 0 0 0 0 0 0 0 0 0 0 0 0 0 0 0 0 0 0 0 0 0 0 0 0
59 52 13 4 0 0 0 0 0 0 0 0 0 0 0 0 0 0 0 0 0 0 0 0 0 0 0 0 0 0 0 0 0 0 0 0 0 0 0 0 0 0
125 4 35 0 0 0 0 0 0 0 0 0 0 0 0 0 0 0 0 0 0 0 0 0 0 0 0 0 0 0 0 0 0 0 0 0 0 0 0 0 0 0
11 13 0 0 0 0 0 0 0 0 0 0 0 0 0 0 0 0 0 0 0 0 0 0 0 0 0 0 0 0 0 0 0 0 0 0 0 0 0 0 0 0
35 85 3 0 0 0 0 0 0 0 0 0 0 0 0 0 0 0 0 0 0 0 0 0 0 0 0 0 0 0 0 0 0 0 0 0 0 0 0 0 0 0
224 34 0 0 0 0 0 0 0 0 0 0 0 0 0 0 0 0 0 0 0 0 0 0 0 0 0 0 0 0 0 0 0 0 0 0 0 0 0 0 0 0
355 115 11 0 0 0 0 0 0 0 0 0 0 0 0 0 0 0 0 0 0 0 0 0 0 0 0 0 0 0 0 0 0 0 0 0 0 0 0 0 0 0
444 359 204 0 0 0 0 0 0 0 0 0 0 0 0 0 0 0 0 0 0 0 0 0 0 0 0 0 0 0 3 2 0 0 0 0 0 0 0 0 0 0
702 607 414 331 5 0 0 0 0 0 0 0 0 0 0 0 0 0 0 0 0 0 0 0 0 0 0 0 0 0 0 0 0 0 0 0 0 0 0 0 0 0
764 712 509 413 78 13 0 0 0 0 0 0 0 0 0 0 0 0 0 0 0 0 0 0 2 0 0 0 0 0 0 0 0 0 0 0 0 0 0 0 0 0
716 584 447 333 227 120 36 0 105 73 0 0 0 0 0 0 0 0 0 0 0 0 0 0 0 0 1 1 0 0 0 0 0 0 0 0 0 0 0 0 0 0
760 661 387 273 278 190 76 16 175 378 58 0 0 0 0 0 0 0 0 0 0 0 1 0 2 0 0 1 3 0 0 0 0 0 0 0 0 0 0 0 0 0
771 680 502 416 327 126 44 33 9 271 150 0 14 0 0 0 0 0 0 0 0 0 0 5 0 3 0 1 4 11 147 122 111 31 0 0 0 0 0 0 0 0
611 516 281 56 283 354 115 87 84 24 1 0 0 12 10 0 0 0 5 4 0 0 0 0 0 0 0 0 0 0 164 160 52 0 0 0 0 0 0 0 0 0
477 400 276 10 33 315 366 50 49 19 1 0 0 11 22 0 0 0 0 8 2 0 0 0 0 0 0 0 0 68 208 200 203 173 81 189 242 283 296 284 237 176
380 286 238 179 73 71 148 45 72 28 10 5 2 8 20 0 0 0 0 0 0 0 0 0 0 0 0 0 45 135 149 2 113 108 102 104 199 220 244 255 308 331
376 364 295 202 282 307 292 230 80 48 30 17 12 0 0 0 0 0 0 0 1 4 0 0 0 0 0 0 0 120 0 0 0 0 0 0 0 0 78 180 208 235
449 444 380 317 238 169 136 106 53 121 179 261 220 35 0 0 5 0 0 0 13 60 129 125 0 0 45 0 0 0 0 69 26 0 0 0 0 0 36 110 133 152
392 438 444 456 475 474 425 360 344 334 294 252 188 172 173 164 0 10 40 169 214 195 160 145 0 0 173 65 0 0 0 0 0 0 0 0 0 0 0 0 0 0
28 93 270 359 428 455 445 449 422 345 262 229 222 234 261 244 238 226 100 0 0 0 0 0 0 212 79 0 0 0 0 0 0 0 0 0 0 0 0 0 0 0
0 0 0 0 84 218 238 275 250 214 218 256 210 123 0 0 0 0 0 0 0 0 0 44 260 13 0 0 0 0 0 0 0 0 0 0 0 0 0 0 0 0
2 2 0 13 133 168 156 176 253 213 36 14 0 0 0 0 0 0 0 0 0 162 147 193 0 0 0 0 0 0 0 0 0 0 0 0 0 0 0 0 0 0
0 0 0 0 78 85 33 0 0 0 0 0 0 0 0 0 0 0 0 0 0 0 0 0 0 0 0 0 0 0 0 0 0 0 0 0 0 0 0 0 0 0
0 0 0 0 0 0 0 0 0 0 0 0 0 0 0 0 0 0 0 0 0 0 0 0 63 144 133 88 11 0 0 0 0 0 0 0 0 0 0 0 0 0

ECMWFNIL_con_mucape_015.txt.gz
CAPE
27 106 108 83 80 54 0 8 3 14 10 46 189 73 24 0 0 0 0 0 0 0 0 0 0 0 0 0 0 0 0 0 0 0 0 0 0 0 0 0 0 0
29 41 48 24 2 0 0 2 8 14 2 1 2 0 0 0 0 0 0 0 0 0 0 0 0 0 0 0 0 0 0 0 0 0 0 0 0 0 0 0 0 0
10 61 56 87 29 0 0 0 0 0 0 0 0 0 0 0 0 0 0 0 0 0 0 0 0 0 0 0 0 0 0 0 0 0 0 0 0 0 0 0 0 0
34 45 22 0 0 10 0 0 0 0 0 0 0 0 0 0 0 0 0 0 0 0 0 0 0 0 0 0 0 0 0 0 0 0 0 0 0 0 0 0 0 0
176 86 56 77 62 0 0 1 0 0 0 0 0 0 0 0 0 0 0 0 0 0 0 0 0 0 0 0 0 0 0 0 0 0 0 0 0 0 0 0 0 0
390 269 244 49 13 0 0 6 0 0 0 0 0 0 0 0 0 0 0 0 0 0 0 0 0 0 0 0 0 0 0 0 0 0 0 0 0 0 0 0 0 0
815 462 264 51 4 0 0 0 0 0 0 0 0 0 0 0 0 0 0 0 0 0 0 0 0 0 0 0 0 0 0 0 0 0 0 0 0 0 0 0 0 0
708 397 217 104 16 0 0 0 0 0 0 0 0 0 0 0 0 0 0 0 0 0 0 0 0 0 0 0 0 0 0 0 0 0 0 0 0 0 0 0 0 0
552 310 200 149 43 0 0 0 0 0 0 0 0 0 0 0 0 0 0 0 0 0 0 0 0 0 0 0 0 0 0 0 0 0 0 0 0 0 0 0 0 0
492 306 175 134 67 32 14 26 6 0 0 0 0 0 0 0 0 0 0 0 0 0 0 0 0 0 0 0 0 0 0 0 0 0 0 0 0 0 0 0 0 0
628 379 251 265 289 165 52 7 11 5 0 0 0 0 0 0 0 0 0 0 0 0 0 0 0 0 0 0 0 0 0 0 0 0 0 0 0 0 0 0 0 0
644 659 542 393 414 277 104 39 100 102 65 2 0 0 0 0 0 0 0 0 1 1 3 4 9 14 10 2 2 2 0 0 0 0 0 0 0 0 0 0 0 12
623 562 596 542 337 366 175 27 49 143 43 1 0 0 0 0 0 0 6 6 27 42 48 127 96 57 183 238 151 104 60 26 17 3 0 0 0 0 0 0 0 0
721 659 639 623 624 549 338 114 46 26 15 44 4 43 48 9 23 54 314 208 179 130 121 113 140 289 386 114 88 78 78 140 139 125 117 78 77 20 0 0 0 0
753 760 683 630 621 663 577 360 94 64 35 21 108 165 215 126 101 94 76 137 168 295 178 246 171 220 259 402 94 2 1 23 92 184 229 249 255 208 130 12 0 0
563 599 645 674 639 570 503 390 303 197 78 27 71 152 168 157 84 53 113 168 180 258 301 92 344 202 5 0 0 0 0 1 24 147 90 136 240 238 243 260 112 27
445 444 475 476 462 391 404 302 361 327 196 118 307 57 51 0 0 22 50 48 88 201 188 77 186 3 0 0 0 0 0 12 77 179 311 277 226 255 293 299 357 170
369 347 380 406 377 326 263 237 348 294 130 74 124 175 2 0 0 0 0 0 0 88 320 327 76 0 0 0 0 0 0 52 114 82 137 198 224 203 221 208 214 222
360 347 343 337 297 254 312 234 308 315 92 65 32 266 131 12 35 16 52 58 121 196 335 262 155 0 0 0 0 0 0 0 24 41 46 120 129 106 74 54 48 31
318 413 422 389 293 206 243 288 305 292 168 55 61 49 49 55 57 12 241 241 248 301 276 205 212 5 0 0 0 0 0 0 0 0 0 2 3 0 0 0 0 1
263 290 390 390 363 303 259 303 294 241 190 200 210 81 91 48 10 193 308 275 262 282 258 144 97 0 0 18 0 0 0 0 0 0 0 0 0 0 0 0 0 0
2 54 142 281 384 364 325 317 268 50 48 41 8 20 11 58 32 278 295 212 7 157 146 28 24 14 76 103 118 116 94 0 0 0 0 0 0 0 0 0 0 0
0 0 2 28 55 126 216 295 303 318 314 222 70 121 113 178 172 173 221 98 27 33 21 188 174 51 103 193 128 0 0 0 0 0 0 0 0 0 0 0 0 0
0 0 0 0 0 1 9 100 186 296 346 315 92 4 44 9 20 38 38 47 70 16 127 114 143 174 226 126 8 0 0 0 0 0 0 0 0 0 0 0 0 0
0 0 0 0 0 0 170 169 159 169 180 226 141 13 22 1 0 7 30 40 19 80 161 181 248 251 107 61 3 0 0 0 0 0 0 0 0 0 0 0 0 0
0 0 0 0 0 0 0 6 7 199 227 215 168 63 14 13 25 4 0 0 136 194 226 273 253 123 3 0 0 0 0 0 0 0 0 0 0 0 0 0 0 0

ECMWFNIL_con_mucape_018.txt.gz
CAPE
1101 1229 1104 858 599 254 153 85 20 18 2 11 43 38 2 15 2 15 77 99 42 21 96 186 138 93 8 5 2 0 4 51 39 21 4 0 0 0 2 0 0 0
1188 949 680 746 376 121 205 135 35 2 21 58 37 21 6 16 17 8 7 1 0 0 0 0 3 0 0 0 0 0 0 0 0 0 0 0 0 0 0 0 0 0
1222 883 798 732 573 690 410 242 109 100 377 142 36 3 6 34 3 36 9 0 0 0 0 0 0 0 0 0 0 0 0 0 0 0 0 0 0 0 0 0 0 0
616 497 578 444 22 18 60 35 30 8 8 30 26 10 0 6 0 0 0 0 0 0 0 0 0 0 0 0 0 0 0 0 0 0 0 0 0 0 0 0 0 0
719 629 420 204 286 35 18 5 213 50 25 71 51 1 0 0 0 0 0 0 0 0 0 0 0 0 0 0 0 0 0 0 0 0 0 0 0 0 0 0 0 0
720 509 270 401 588 249 9 26 29 213 75 5 25 5 0 0 0 0 0 0 0 0 0 0 0 0 0 0 0 0 0 0 0 0 0 0 0 0 0 0 0 0
579 311 208 342 329 147 20 58 299 88 27 20 14 12 0 0 0 0 0 0 0 0 0 0 0 0 0 0 0 0 0 0 0 0 0 0 0 0 0 0 0 0
806 532 423 246 370 315 260 378 294 151 116 55 20 0 0 0 0 0 0 0 0 0 0 0 0 0 0 0 0 0 0 0 0 0 0 0 0 0 0 0 0 0
804 579 331 176 343 401 445 272 313 344 129 89 20 18 1 0 0 0 0 0 0 0 0 0 0 0 0 0 0 0 0 0 0 0 0 0 0 0 0 0 0 0
629 389 208 132 528 509 618 540 459 481 259 210 68 65 0 102 11 0 0 0 0 0 0 0 0 0 0 0 0 0 0 0 0 0 0 0 0 0 0 0 0 0
769 713 559 458 543 553 828 728 663 548 353 323 278 181 20 12 11 0 0 0 0 0 0 0 0 0 0 0 0 0 0 0 0 0 0 0 0 0 0 0 0 0
741 614 530 522 529 610 753 702 664 610 514 437 363 266 197 79 0 0 0 0 0 0 0 0 0 0 0 0 0 2 14 22 21 16 13 1 2 0 0 0 0 0
886 671 724 655 722 747 828 696 657 676 585 504 406 416 350 220 49 12 0 0 0 0 0 0 0 0 0 8 38 144 255 302 335 402 370 418 212 100 71 38 35 6
1125 967 751 753 826 862 913 735 669 693 595 534 452 511 470 320 209 85 44 2 7 10 2 3 7 4 35 114 223 401 390 398 485 638 648 556 543 505 558 276 114 77
973 1014 930 855 781 764 837 800 620 675 616 606 563 555 541 465 386 253 142 83 197 202 312 291 239 372 427 370 496 212 201 252 296 275 298 325 441 438 368 388 373 560
1030 1098 1129 1072 916 806 559 603 786 732 629 561 558 506 596 506 497 427 374 339 364 391 380 654 808 949 755 241 320 277 505 329 237 127 58 138 362 535 613 657 429 480
858 864 914 997 993 964 951 849 786 772 833 667 611 604 632 556 542 555 474 399 365 486 824 743 604 314 0 0 0 1 162 433 223 85 71 150 357 662 875 998 923 878
855 811 807 839 843 886 858 824 823 708 672 701 580 669 800 746 588 84 492 562 544 752 590 477 377 138 0 0 0 0 14 42 39 26 76 192 342 537 604 441 311 464
768 782 790 702 764 667 708 749 709 763 754 680 611 747 593 81 76 61 514 284 402 329 283 276 152 10 0 0 0 0 0 51 186 307 483 573 463 276 183 87 163 131
560 650 740 741 690 609 574 584 726 765 774 817 783 764 597 610 155 135 96 38 68 170 142 210 299 32 1 0 0 0 0 31 279 620 657 356 311 289 193 191 153 116
294 572 649 740 819 734 641 646 661 772 792 871 851 795 667 534 527 102 101 64 99 451 551 404 405 386 59 0 1 2 1 7 568 444 181 194 166 87 79 61 69 77
0 0 59 321 668 742 702 856 925 851 873 811 788 854 844 717 527 580 411 100 576 641 780 558 1802 482 132 0 0 1 0 31 185 61 78 3 39 4 12 8 5 15
0 0 0 2 100 366 601 708 814 893 975 960 961 882 717 624 610 581 459 441 379 503 690 831 713 290 49 2 1 1 0 75 66 30 7 9 28 4 0 0 0 0
0 0 0 0 0 60 220 415 625 801 964 876 873 907 808 721 638 497 526 546 566 523 354 37 236 151 12 24 18 1 7 61 126 134 1 3 0 0 0 0 0 0
0 0 0 0 0 0 31 233 511 728 768 868 890 964 985 872 620 591 660 547 399 46 20 324 139 20 35 32 17 50 30 3 13 2 3 0 0 0 0 0 0 0
0 0 0 0 0 0 1 67 190 568 806 818 830 841 937 894 662 557 533 428 362 325 240 62 15 259 43 60 68 80 62 36 35 11 8 0 0 0 0 0 0 0

ECMWFNIL_con_mucape_021.txt.gz
CAPE
1429 1305 1032 703 496 168 61 11 4 9 13 40 142 159 114 106 69 139 158 189 144 125 93 170 162 121 35 26 7 2 40 27 3 0 0 0 0 0 0 0 0 0
1546 1439 1019 889 384 24 37 45 12 3 24 96 112 36 19 17 15 29 14 0 0 1 22 67 34 22 16 2 2 3 1 0 0 0 0 0 0 0 0 0 0 0
1837 1484 1127 770 281 161 88 93 92 98 119 130 65 19 19 21 35 14 0 0 0 0 0 3 0 0 0 0 0 0 0 0 0 0 0 0 0 0 0 0 0 0
1573 1193 1064 872 508 268 139 105 224 334 260 34 14 13 8 5 45 29 1 0 0 0 0 0 0 0 0 0 0 0 0 0 0 0 0 0 0 0 0 0 0 0
1639 1397 1347 863 217 33 0 0 0 11 11 48 10 0 0 4 8 0 0 0 0 0 0 0 0 0 0 0 0 0 0 0 0 0 0 0 0 0 0 0 0 0
1489 1212 1041 269 28 43 1 0 0 0 18 148 6 0 5 14 0 0 0 0 0 0 0 0 0 0 0 0 0 0 0 0 0 0 0 0 0 0 0 0 0 0
1307 1138 781 256 194 52 45 12 1 0 0 13 14 2 1 0 0 0 0 0 0 0 0 0 0 0 0 0 0 0 0 0 0 0 0 0 0 0 0 0 0 0
1431 1112 724 427 355 225 139 190 146 58 52 0 4 2 0 0 0 0 0 0 0 0 0 0 0 0 0 0 0 0 0 0 0 0 0 0 0 0 0 0 0 0
1054 798 728 581 424 470 220 200 619 502 312 23 0 0 0 0 0 0 0 0 0 0 0 0 0 0 0 0 0 0 0 0 0 0 0 0 0 0 0 0 0 0
1040 895 611 480 487 423 228 533 586 442 275 78 1 0 0 0 0 0 0 0 0 0 0 0 0 0 0 0 0 0 0 0 0 0 0 0 0 0 0 0 0 0
921 759 653 533 455 259 380 626 666 469 360 113 33 9 0 2 0 0 0 0 0 0 0 0 0 0 0 0 0 0 0 0 0 0 0 0 0 0 0 0 0 4
900 766 892 679 662 581 532 670 606 388 399 404 94 84 0 10 40 0 0 0 0 0 0 0 0 0 0 0 1 26 36 18 39 61 61 42 53 12 0 9 37 44
1092 1014 931 904 741 696 662 696 705 493 385 345 278 186 153 48 17 0 0 0 0 0 0 0 0 0 0 0 0 7 41 95 134 148 152 182 124 98 136 95 82 99
1215 1026 1017 976 767 791 822 866 777 572 498 370 359 348 372 310 67 5 20 0 0 0 0 0 0 0 0 0 0 23 159 310 429 453 457 580 567 495 442 354 290 268
1163 1252 1167 1054 808 995 960 864 830 707 571 437 580 538 605 486 351 160 81 12 1 0 0 0 0 0 2 19 20 216 418 485 809 795 789 821 734 699 708 730 520 484
1020 1364 1292 1340 1324 1228 1035 1107 1009 819 761 716 782 791 722 652 615 525 317 143 53 24 16 8 0 30 802 0 16 335 362 423 788 574 490 387 393 368 480 497 552 521
1440 1412 1467 1370 857 965 1269 1165 1007 1064 1005 844 758 867 857 891 267 755 707 443 173 239 134 258 272 716 0 0 0 0 344 379 314 430 244 287 164 143 234 721 406 165
1262 1198 1190 1248 1292 1274 1285 1246 1248 1250 1261 1217 1109 992 923 892 959 689 811 794 621 483 427 611 735 887 345 0 0 0 0 448 271 54 76 132 45 37 198 536 610 505
915 1150 1140 1147 1202 1142 1160 1156 1072 1143 1087 1089 1143 1091 893 729 646 890 922 894 925 744 724 855 1268 764 474 0 0 0 0 4 101 70 12 28 2 4 71 217 365 146
690 602 672 937 1002 989 946 964 968 1006 1152 1058 1040 885 808 878 1002 1033 772 876 916 931 1087 1244 935 480 0 0 0 0 0 4 62 233 133 49 64 283 323 140 184 134
16 342 635 817 966 1010 961 914 922 1000 1062 1163 1086 1067 1043 893 828 512 681 689 776 807 1019 792 643 343 7 0 0 0 0 0 64 224 443 550 532 436 402 283 149 84
0 0 0 36 322 703 851 1042 1140 1112 1130 1182 1176 1220 1207 1058 750 763 615 643 654 715 177 368 304 50 71 42 35 42 12 0 17 217 981 608 363 438 274 22 6 12
0 0 0 0 0 52 258 601 758 819 1008 1226 1323 1299 1298 1342 1034 648 538 527 574 550 511 720 654 677 238 108 77 93 55 42 14 349 329 325 22 0 0 0 28 64
0 0 0 0 0 0 3 55 211 377 485 678 845 1058 1309 1392 1424 1194 1169 1144 894 576 585 562 473 537 461 482 84 115 108 71 71 42 42 26 2 0 0 1 343 0
0 0 0 0 0 0 0 13 43 120 260 391 509 698 793 1062 1164 1209 1190 1115 1063 947 880 709 908 508 508 369 334 108 70 44 10 14 37 3 0 0 1 3 2 0
0 0 0 0 0 0 0 0 1 16 50 176 494 478 572 994 1102 1160 1188 1190 1117 1011 1076 774 846 481 405 333 251 79 35 68 12 12 11 6 3 9 20 49 6 0

ECMWFNIL_con_mucape_024.txt.gz
CAPE
1035 1052 981 991 933 424 488 201 156 113 676 519 655 398 496 337 344 230 352 457 386 343 450 570 368 218 361 213 286 55 164 460 388 330 342 197 150 16 0 0 0 0
1535 1236 895 966 427 334 470 483 384 420 648 690 467 194 161 159 97 170 26 10 18 118 168 230 230 292 194 267 291 118 6 0 0 0 1 0 0 0 0 0 0 0
1384 1272 1144 738 353 406 364 332 384 586 735 428 200 114 38 51 65 42 55 45 23 14 41 119 56 0 0 1 7 0 6 3 0 0 0 0 0 0 0 0 0 0
1592 1342 1064 679 405 336 412 665 686 524 326 208 125 62 26 0 134 27 0 0 0 3 7 0 0 0 0 0 0 0 0 0 0 0 0 0 0 0 7 66 12 0
1390 1177 1071 659 501 460 533 624 589 363 225 220 98 3 2 0 0 0 0 0 0 0 0 0 0 0 0 0 0 0 0 0 0 0 0 0 0 11 5 8 10 6
1151 1125 871 504 318 215 156 141 203 258 246 139 36 0 0 0 0 0 0 0 0 0 0 0 0 0 0 0 0 0 0 0 0 0 0 0 0 4 3 4 1 1
1416 1386 922 264 177 100 18 11 21 116 301 130 1 1 0 0 0 0 0 0 0 0 0 0 0 0 0 0 0 0 0 0 0 0 0 0 0 0 0 0 0 0
1404 1230 625 209 236 177 54 39 9 52 162 39 9 6 0 0 0 0 0 0 0 0 0 0 0 0 0 0 0 0 0 0 0 0 0 0 0 0 1 0 0 0
1293 1002 668 375 492 384 182 20 35 42 0 21 18 23 0 0 0 0 0 0 0 0 0 0 0 0 0 0 0 0 0 0 10 0 0 10 10 0 0 0 0 0
1088 959 840 530 533 456 438 378 211 175 14 1 3 0 0 0 1 0 0 0 0 0 0 0 0 0 0 0 0 0 0 0 0 0 0 0 0 0 0 0 0 1
1124 873 892 832 805 374 407 749 757 512 385 12 15 7 0 0 0 0 0 0 5 0 0 0 0 0 0 0 0 0 1 8 0 0 5 1 0 0 0 22 20 68
1111 762 769 733 717 622 627 808 706 538 476 198 6 0 33 11 0 0 0 0 0 0 0 0 0 0 0 0 0 0 26 14 14 48 59 24 173 4 17 170 89 175
942 853 857 703 740 677 685 754 777 603 471 337 81 37 51 57 31 0 0 0 0 0 0 0 0 0 0 22 6 9 56 100 320 208 249 358 92 87 78 135 140 227
1205 1143 1110 968 848 860 725 715 773 690 552 464 433 255 80 8 82 34 15 0 0 0 0 0 2 0 0 31 15 164 204 291 412 368 291 438 300 297 465 439 612 482
1335 1180 1201 1207 906 931 933 977 887 906 781 582 605 596 623 196 132 70 109 7 16 10 0 2 0 0 1 1 0 83 269 372 522 484 553 534 520 703 444 323 395 688
1078 1183 1155 1050 946 1006 900 1062 994 1023 1017 740 644 544 589 637 504 235 116 84 52 50 7 86 21 97 99 0 1 58 274 408 791 866 787 663 661 618 396 413 394 372
1110 1031 927 934 982 1175 1266 910 793 1043 1190 900 800 804 734 766 641 533 481 307 71 59 66 155 183 315 0 0 0 4 534 811 936 837 691 603 527 645 638 525 447 272
990 871 747 816 977 1066 959 792 1041 749 922 1058 1148 1093 1043 1003 1018 786 554 714 703 430 335 198 86 441 0 0 0 166 448 789 868 763 674 657 568 490 476 608 596 501
652 624 774 918 778 741 596 958 758 691 852 884 975 1310 1317 1218 1207 1139 973 919 996 751 515 329 45 241 0 0 0 0 220 611 631 647 548 567 465 413 214 647 570 580
379 437 490 567 770 751 819 694 756 768 970 776 745 1045 1372 1257 1169 1057 1054 1114 862 890 691 390 249 550 389 97 0 0 131 445 476 416 364 252 173 65 90 426 219 174
0 80 160 360 441 592 603 650 548 541 752 667 770 1023 1274 1166 1116 1309 1040 681 686 803 478 439 418 530 683 576 316 0 0 389 329 300 369 274 200 162 260 341 379 193
0 0 0 0 0 249 593 618 741 817 1041 1085 1109 1293 1170 1119 1093 1124 889 756 647 847 434 457 458 109 498 731 754 488 206 159 7 40 166 361 306 646 683 488 396 246
0 0 0 0 0 0 1 59 470 579 794 960 1040 1184 1267 1219 1133 1096 984 907 925 790 496 469 487 488 494 563 659 702 548 330 87 83 84 62 273 445 485 350 206 4
0 0 0 0 0 0 0 2 7 53 226 443 557 685 1112 884 792 890 843 810 781 680 540 489 481 421 389 391 507 552 521 438 237 0 2 10 206 149 9 39 0 13
0 0 0 0 0 0 0 0 0 0 7 23 188 471 423 596 845 848 720 657 686 633 593 506 500 554 456 411 421 438 422 355 175 51 126 29 14 66 33 8 25 60
0 0 0 0 0 0 0 0 0 0 0 0 4 3 30 121 243 362 618 813 704 685 639 594 574 494 431 522 506 461 471 458 363 272 229 40 108 48 2 47 52 27

ECMWFNIL_con_mucape_027.txt.gz
CAPE
117 83 6 0 2 0 0 0 0 0 0 0 0 0 0 4 3 6 12 2 9 22 17 0 0 20 16 331 485 412 472 459 333 249 223 164 0 0 0 0 0 0
249 167 116 6 1 0 0 0 5 16 9 2 0 0 0 0 0 0 0 0 0 0 3 0 0 0 0 51 99 111 0 0 0 0 0 0 0 0 0 0 0 0
423 440 106 0 0 0 0 2 2 1 0 0 0 0 0 0 0 0 0 0 0 0 0 0 0 0 0 0 0 0 0 0 0 0 0 0 0 0 0 0 0 0
526 439 2 0 0 13 15 7 0 0 0 0 0 0 0 0 0 0 0 0 0 0 0 0 0 0 0 0 0 0 0 0 0 0 0 0 0 0 0 0 0 0
546 337 0 0 12 20 0 0 0 0 0 0 0 0 0 0 0 0 0 0 0 0 0 0 0 0 0 0 0 0 0 0 0 0 0 0 0 0 0 0 0 0
433 68 0 2 15 5 0 0 0 0 0 0 0 0 0 0 0 0 0 0 0 0 0 0 0 0 0 0 0 0 0 0 0 0 0 0 0 0 0 0 0 0
455 38 0 0 0 0 0 0 0 0 0 0 0 0 0 0 0 0 0 0 0 0 0 0 0 0 0 0 0 0 0 0 0 0 0 0 0 0 0 0 0 0
502 0 0 0 0 0 0 0 0 0 0 0 0 0 0 0 0 0 0 0 0 0 0 0 0 0 0 0 0 0 0 0 0 0 0 0 0 0 0 0 0 0
688 529 0 0 0 0 0 0 0 0 0 0 0 0 0 0 0 0 0 0 0 0 0 0 0 0 0 0 0 0 0 0 0 0 0 0 0 0 0 0 0 0
768 669 248 0 0 0 0 0 0 0 0 0 0 0 0 0 0 0 0 0 0 0 0 0 0 0 0 0 0 0 0 0 0 0 0 0 0 0 0 0 0 0
614 393 230 222 233 139 0 0 0 0 0 0 0 0 0 0 0 0 0 0 0 0 0 0 0 0 0 0 0 0 0 0 0 0 0 0 0 0 0 0 0 0
515 409 380 398 394 392 294 52 90 0 0 0 0 0 0 0 0 0 0 0 0 0 0 0 0 0 0 0 0 0 0 0 0 0 0 0 0 0 0 0 0 0
595 516 513 544 565 586 524 425 277 16 35 0 0 0 0 0 0 0 0 0 0 0 0 0 0 0 0 0 0 0 0 0 0 0 0 0 0 0 0 0 0 0
397 538 616 634 777 669 508 416 287 91 26 2 0 0 0 0 0 0 0 0 0 0 0 0 0 0 0 0 0 0 0 0 0 0 0 0 0 2 16 193 204 74
270 612 531 774 585 395 380 400 227 158 212 156 33 0 0 0 0 0 0 0 0 0 0 0 0 0 0 0 0 0 0 0 0 0 0 0 20 2 0 52 52 1
384 327 552 329 486 503 393 530 454 337 369 270 151 65 0 0 0 0 0 0 0 0 0 0 0 0 0 0 0 0 0 0 0 0 7 2 25 11 0 3 20 0
358 466 398 498 795 673 663 649 609 530 628 589 485 110 73 4 0 0 0 0 0 0 0 0 0 0 0 0 0 0 0 0 0 0 9 4 28 5 6 0 19 20
256 388 390 389 411 627 696 703 698 649 486 505 432 634 698 474 154 111 95 82 27 0 0 0 0 0 0 0 0 0 0 0 21 24 102 29 387 410 388 119 1 20
104 112 151 358 417 496 581 654 748 675 609 477 514 515 623 794 654 645 548 540 414 22 0 0 0 0 0 0 0 0 0 30 161 408 454 408 425 450 454 437 429 416
151 130 169 360 241 353 465 439 460 444 521 548 502 534 564 656 836 778 695 690 585 418 292 158 0 0 0 0 0 0 0 26 399 537 588 588 532 491 456 458 503 526
108 129 68 0 0 42 179 88 190 264 262 253 359 418 473 570 616 764 721 726 687 637 521 358 321 57 0 0 0 0 0 428 518 544 590 631 633 607 574 520 467 417
41 34 0 0 0 0 0 0 0 202 188 222 282 330 374 594 840 844 768 744 632 648 641 620 572 440 325 144 0 0 0 373 504 600 631 643 650 636 602 563 505 406
33 8 5 0 0 0 0 0 0 0 0 0 0 0 103 398 606 722 824 860 818 752 697 641 631 613 536 440 320 96 63 229 399 453 474 487 482 464 467 450 298 67
0 0 0 0 0 0 0 0 0 0 0 0 0 0 0 170 687 698 752 801 777 765 728 726 704 682 647 584 508 439 427 353 166 105 400 378 354 168 139 414 28 0
0 0 0 0 0 0 0 0 0 0 0 0 0 0 0 0 0 272 596 644 719 779 774 707 690 655 602 573 548 567 544 465 440 430 405 155 131 134 0 0 244 432
0 0 0 0 0 0 0 0 0 0 0 0 0 0 0 0 0 0 0 23 365 462 502 608 620 596 579 607 584 520 494 484 428 479 514 520 446 437 386 0 0 0

ECMWFNIL_con_mucape_030.txt.gz
CAPE
419 178 164 82 0 0 0 0 0 0 0 0 0 0 0 0 0 0 0 0 0 0 109 444 649 709 682 598 561 669 776 773 738 652 492 344 170 0 196 245 334 369
382 81 31 2 0 0 0 0 0 0 0 0 0 0 0 0 0 0 0 0 0 0 91 291 401 593 751 752 695 773 816 764 637 437 300 0 0 0 0 0 0 0
0 0 1 3 0 0 0 0 0 0 0 0 0 0 0 0 0 0 0 0 0 0 0 0 92 378 617 694 722 744 699 680 562 370 0 0 0 0 0 0 0 0
0 0 0 0 0 0 0 0 0 0 0 0 0 0 0 0 0 0 1 7 0 0 0 0 0 84 316 398 442 307 87 98 191 0 0 0 0 0 0 0 0 0
0 0 0 0 0 0 0 0 0 0 0 0 0 0 0 0 0 0 0 0 0 0 0 0 0 0 0 0 0 0 0 0 0 0 0 0 0 0 0 0 0 0
0 0 1 58 1 0 0 0 0 0 0 0 0 0 0 0 0 0 0 0 0 0 0 0 0 0 0 0 0 0 0 0 0 0 0 0 0 0 0 0 0 0
0 0 57 65 0 0 0 0 0 40 42 0 0 0 0 0 0 0 0 0 0 0 0 0 0 0 0 0 0 0 0 0 0 0 0 0 0 0 0 0 0 0
359 128 120 86 0 94 117 127 113 101 6 0 0 0 0 0 0 0 0 0 0 0 0 0 0 0 0 0 0 0 0 0 0 0 0 0 0 0 0 0 0 0
518 403 312 216 115 105 106 99 90 24 45 21 0 0 0 0 0 0 0 0 0 0 0 0 0 0 0 0 0 0 0 0 0 0 0 0 0 0 0 0 0 0
534 391 308 210 0 111 111 85 113 114 88 65 79 0 0 0 0 0 0 0 0 0 0 0 0 0 0 0 0 0 0 0 0 0 0 0 0 0 0 0 0 0
569 397 305 181 125 165 225 268 240 173 153 115 55 0 0 0 0 0 0 0 0 0 0 0 0 0 0 0 0 0 0 0 0 0 0 0 0 0 0 0 0 0
335 321 319 147 279 323 372 391 324 263 231 141 0 0 0 0 0 0 0 0 0 0 0 0 0 0 0 0 0 0 0 0 0 0 0 0 0 0 0 0 0 0
73 222 75 57 0 330 385 441 457 370 247 70 0 0 0 0 0 0 0 0 0 0 0 0 0 0 0 0 0 0 0 0 0 0 0 0 0 0 0 0 0 0
332 350 309 285 350 425 354 309 370 271 74 0 0 0 0 0 0 0 0 0 0 0 0 0 0 0 0 0 0 0 0 0 0 0 0 0 0 0 0 0 0 0
180 201 44 192 240 206 409 386 238 56 0 0 0 0 0 0 0 0 0 0 0 0 0 0 0 0 0 0 0 0 0 0 0 0 0 0 0 0 0 0 0 0
206 207 197 239 314 324 411 310 310 171 104 2 0 0 0 0 0 0 0 0 0 0 0 0 0 0 0 0 0 0 0 0 0 0 0 0 0 0 0 0 0 0
341 376 379 308 300 327 422 387 332 399 464 412 319 0 0 0 0 0 0 0 0 0 0 0 0 0 0 0 0 0 0 0 0 0 0 0 0 0 0 0 0 0
308 338 310 333 329 255 322 430 424 425 408 485 528 546 123 0 0 0 0 0 0 0 0 0 0 0 0 0 0 0 0 0 0 0 0 0 0 0 0 0 0 0
258 368 386 377 340 384 386 468 502 557 501 442 422 458 761 742 470 325 305 105 0 0 0 0 0 0 0 0 0 0 0 0 0 0 0 0 0 0 0 0 0 0
174 210 233 263 269 279 287 324 359 338 422 341 230 341 469 542 733 784 696 619 499 390 231 0 0 0 0 0 0 0 0 0 0 0 0 0 0 0 0 0 0 0
181 184 195 207 190 183 202 199 236 238 250 281 315 466 487 456 444 428 437 425 551 706 684 585 468 93 58 0 0 0 0 0 0 0 0 0 0 0 0 0 0 0
48 162 44 156 171 77 37 36 0 0 0 59 200 304 336 324 366 519 442 452 482 515 632 685 582 565 615 525 348 142 0 0 0 0 0 0 0 0 76 359 411 444
44 30 15 3 0 0 0 0 0 0 0 0 0 0 0 0 186 320 536 583 685 698 608 614 535 547 651 658 661 608 480 266 65 16 0 0 0 0 0 382 470 510
32 36 44 16 10 7 1 0 0 0 0 0 0 0 0 0 0 0 0 31 156 618 755 712 681 663 624 609 600 551 548 566 503 303 206 336 364 397 467 550 600 646
0 2 10 45 14 3 0 0 0 0 0 0 0 0 0 0 0 0 0 0 0 0 0 0 282 488 558 593 582 576 571 560 550 544 544 313 516 620 673 682 668 700
0 5 9 15 16 6 0 0 0 0 0 0 0 0 0 0 0 0 0 0 0 0 0 0 0 0 0 16 344 566 584 571 561 530 530 538 462 464 570 620 604 231

ECMWFNIL_con_mucape_033.txt.gz
CAPE
343 412 368 290 157 0 0 0 0 0 0 0 0 0 0 0 0 0 0 0 0 104 435 486 478 518 481 485 449 464 468 537 384 307 287 255 314 340 412 391 416 453
380 235 261 230 198 137 0 0 0 0 0 0 0 0 0 0 0 0 0 0 0 83 410 537 583 577 592 572 551 549 558 479 439 450 406 299 272 277 302 319 365 441
174 199 226 223 206 112 0 0 0 0 0 0 0 0 0 0 0 0 0 0 0 54 337 475 570 626 625 587 568 632 630 643 621 531 454 292 183 166 178 238 390 485
258 297 244 221 160 77 27 0 0 0 0 0 0 0 0 0 0 0 0 0 0 0 49 215 375 595 700 684 646 740 759 687 488 349 288 0 0 0 0 0 69 69
476 474 271 154 23 0 0 0 0 0 0 0 0 0 0 0 0 0 0 0 0 0 0 0 224 451 662 704 733 748 711 668 496 76 0 0 0 0 0 0 0 0
575 282 94 0 0 0 0 0 0 0 0 0 0 0 0 0 0 0 0 0 0 0 0 0 27 247 439 552 604 556 456 495 330 0 0 0 0 0 0 0 0 0
318 0 0 0 0 0 0 0 0 0 0 0 0 0 0 0 0 0 0 0 0 0 0 0 0 0 14 156 167 0 0 0 0 0 0 0 0 0 0 0 0 0
189 0 0 0 0 0 0 0 0 0 0 0 0 0 0 0 0 0 0 0 0 0 0 0 0 0 0 0 0 0 0 0 0 0 0 0 0 0 0 0 0 0
127 0 0 0 0 0 0 0 0 0 0 0 0 0 0 0 0 0 0 0 0 0 0 0 0 0 0 0 0 0 0 0 0 0 0 0 0 0 0 0 0 0
0 0 0 0 0 0 0 0 0 0 0 0 0 0 0 0 0 0 0 0 0 0 0 0 0 0 0 0 0 0 0 0 0 0 0 0 0 0 0 0 0 0
65 0 0 0 0 0 0 0 0 0 0 0 0 0 0 0 0 0 0 0 0 0 0 0 0 0 0 0 0 0 0 0 0 0 0 0 0 0 0 0 0 0
135 0 0 0 0 0 0 0 0 0 0 0 0 0 0 0 0 0 0 0 0 0 0 0 0 0 0 0 0 0 0 0 0 0 0 0 0 0 0 0 0 0
363 395 298 194 22 0 0 0 0 0 0 0 0 0 0 0 0 0 0 0 0 0 0 0 0 0 0 0 0 0 0 0 0 0 0 0 0 0 0 0 0 0
449 484 393 241 50 0 0 0 0 0 0 0 0 0 0 0 0 0 0 0 0 0 0 0 0 0 0 0 0 0 0 0 0 0 0 0 0 0 0 0 0 0
219 533 382 285 190 0 0 0 0 0 0 0 0 0 0 0 0 0 0 0 0 0 0 0 0 0 0 0 0 0 0 0 0 0 0 0 0 0 0 0 0 0
257 448 260 205 65 41 109 166 0 0 0 0 0 0 0 0 0 0 0 0 0 0 0 0 0 0 0 0 0 0 0 0 0 0 0 0 0 0 0 0 0 0
406 387 178 9 248 233 226 39 126 158 0 0 0 0 0 0 0 0 0 0 0 0 0 0 0 0 0 0 0 0 0 0 0 0 0 0 0 0 0 0 0 0
245 88 0 0 108 170 88 185 168 49 0 101 218 184 0 0 0 0 0 0 0 0 0 0 0 0 0 0 0 0 0 0 0 0 0 0 0 0 0 0 0 0
48 67 0 0 116 149 128 0 185 258 266 246 264 235 0 0 0 0 0 0 0 0 0 0 0 0 0 0 0 0 0 0 0 0 0 0 0 0 0 0 0 0
101 74 0 0 156 195 221 181 242 392 388 348 294 266 260 252 284 333 354 236 196 0 0 0 0 0 0 0 0 0 0 0 0 0 0 0 0 0 0 0 0 0
188 247 223 251 200 222 282 239 130 304 391 411 376 346 313 322 314 305 362 395 435 445 457 443 400 344 116 68 58 0 0 0 0 0 0 0 0 0 0 0 0 0
160 292 6 200 259 256 286 291 305 337 371 384 422 403 340 336 336 311 284 285 317 352 383 383 416 459 504 501 476 453 463 51 0 0 0 0 0 0 0 0 0 0
169 4 0 29 94 194 214 213 193 229 229 294 338 349 326 335 374 386 343 297 306 332 344 358 455 482 492 468 463 523 532 551 569 307 89 0 0 0 0 0 0 0
46 76 48 93 106 99 22 18 1 48 25 51 50 151 235 272 305 328 344 337 342 368 345 339 422 443 435 418 381 390 394 444 490 514 496 357 322 0 0 0 0 0
23 25 20 25 28 28 19 24 53 40 36 36 26 12 2 0 0 0 137 167 272 306 261 0 0 0 258 294 325 356 375 378 378 375 420 518 511 489 454 165 29 0
2 8 4 0 1 1 1 9 22 21 25 11 0 0 0 0 0 0 0 0 0 0 0 0 0 0 8 221 251 248 258 287 335 348 366 326 414 478 538 560 550 492

ECMWFNIL_con_mucape_036.txt.gz
CAPE
850 483 461 504 512 500 480 407 347 324 337 104 0 0 0 0 0 0 0 0 0 0 0 0 336 385 372 488 655 704 674 548 502 369 181 235 230 182 249 350 458 428
754 441 477 504 467 455 404 359 342 122 124 0 0 0 0 0 0 0 0 0 0 87 347 362 338 338 335 201 337 437 496 444 455 380 180 240 290 306 296 308 358 406
594 470 478 438 419 336 126 217 0 0 0 0 0 0 0 0 0 0 0 0 0 74 386 433 478 480 482 463 440 416 367 396 417 277 294 246 231 261 336 401 396 389
468 448 464 406 237 72 62 0 0 0 0 0 0 0 0 0 0 0 0 0 0 0 101 384 440 474 522 491 468 470 449 422 382 423 405 325 225 216 252 292 335 389
466 435 424 321 72 0 0 0 0 0 0 0 0 0 0 0 0 0 0 0 0 0 0 0 228 438 566 574 502 544 547 567 528 440 364 213 26 0 113 217 322 429
416 270 252 213 179 132 0 0 0 0 0 0 0 0 0 0 0 0 0 0 0 0 0 0 0 354 536 616 605 644 674 626 464 256 32 0 0 0 0 27 218 370
320 164 345 195 165 0 0 0 0 0 0 0 0 0 0 0 0 0 0 0 0 0 0 0 0 165 366 469 505 492 488 525 532 117 0 0 0 0 0 0 0 0
308 397 505 238 0 0 0 0 0 0 0 0 0 0 0 0 0 0 0 0 0 0 0 0 0 0 0 0 12 0 0 164 28 0 0 0 0 0 0 0 0 0
543 662 374 0 0 0 0 0 0 0 0 0 0 0 0 0 0 0 0 0 0 0 0 0 0 0 0 0 0 0 0 0 0 0 0 0 0 0 0 0 0 0
638 571 0 0 0 0 0 0 0 0 0 0 0 0 0 0 0 0 0 0 0 0 0 0 0 0 0 0 0 0 0 0 0 0 0 0 0 0 0 0 0 0
629 443 142 0 0 0 0 0 0 0 0 0 0 0 0 0 0 0 0 0 0 0 0 0 0 0 0 0 0 0 0 0 0 0 0 0 0 0 0 0 0 0
656 751 247 0 0 0 0 0 0 0 0 0 0 0 0 0 0 0 0 0 0 0 0 0 0 0 0 0 0 0 0 0 0 0 0 0 0 0 0 0 0 0
642 570 127 0 0 0 0 0 0 0 0 0 0 0 0 0 0 0 0 0 0 0 0 0 0 0 0 0 0 0 0 0 0 0 0 0 0 0 0 0 0 0
0 273 62 0 0 0 0 0 0 0 0 0 0 0 0 0 0 0 0 0 0 0 0 0 0 0 0 0 0 0 0 0 0 0 0 0 0 0 0 0 0 0
99 94 38 9 156 113 12 0 0 0 0 0 0 0 0 0 0 0 0 0 0 0 0 0 0 0 0 0 0 0 0 0 0 0 0 0 0 0 0 0 0 0
4 0 0 54 92 9 193 186 0 0 0 0 0 0 0 0 0 0 0 0 0 0 0 0 0 0 0 0 0 0 0 0 0 0 0 0 0 0 0 0 0 0
0 3 18 92 80 68 213 215 50 6 1 0 0 0 0 0 0 0 0 0 0 0 0 0 0 0 0 0 0 0 0 0 0 0 0 0 0 0 0 0 0 0
9 27 38 82 138 133 295 224 194 4 0 43 53 0 0 0 0 0 0 0 0 0 0 0 0 0 0 0 0 0 0 0 0 0 0 0 0 0 0 0 0 0
0 0 0 13 0 2 82 299 124 2 79 147 115 0 0 0 0 0 0 0 0 0 0 0 0 0 0 0 0 0 0 0 0 0 0 0 0 0 0 0 0 0
0 0 0 14 53 82 85 30 0 0 172 60 55 0 0 0 0 0 0 0 0 0 0 0 0 0 0 0 0 0 0 0 0 0 0 0 0 0 0 0 0 0
0 0 0 50 99 54 0 0 0 0 0 0 0 0 0 0 0 0 0 0 67 21 26 0 0 0 0 0 0 0 0 0 0 0 0 0 0 0 0 0 0 0
0 2 34 51 22 0 0 47 0 0 53 61 78 140 0 29 222 31 0 20 98 136 165 191 137 144 213 230 244 233 239 87 266 199 132 0 0 0 0 0 0 0
2 0 0 0 22 2 60 0 42 30 61 75 104 145 218 227 252 258 220 0 0 0 0 0 150 15 162 250 270 299 308 305 308 343 374 392 382 66 0 0 0 0
0 0 0 0 0 0 0 35 0 0 4 85 166 212 208 210 234 270 283 273 137 0 0 0 0 0 34 38 40 244 276 287 319 334 354 352 397 424 391 283 0 0
0 0 0 0 0 0 0 0 0 0 0 0 145 183 233 212 228 244 259 293 339 323 251 218 83 0 0 0 260 288 296 293 298 305 308 327 322 340 342 351 369 373
1 13 13 17 2 7 1 0 3 0 0 0 0 0 116 141 151 30 153 204 266 371 416 419 378 337 300 285 58 12 0 0 0 0 0 12 104 270 311 322 325 338

ECMWFNIL_con_mucape_039.txt.gz
CAPE
1261 1409 1544 1639 1518 1392 1135 953 939 1003 891 753 880 746 648 628 249 485 451 416 605 632 333 413 526 733 787 870 967 1035 1133 1281 1118 970 830 823 854 869 924 880 1057 1122
1210 1255 1199 1390 1200 955 990 1019 834 808 574 473 614 455 359 334 218 252 286 396 400 526 548 581 587 644 711 804 901 1071 1134 1242 1174 589 955 904 921 797 885 952 1061 1102
958 869 959 1154 953 777 794 750 716 696 609 399 320 540 474 388 233 207 393 617 630 557 649 750 834 879 967 1030 672 941 1092 1250 1193 862 900 792 910 867 1085 984 1029 979
912 786 904 998 828 707 602 500 442 431 406 307 462 539 406 278 419 359 386 386 762 687 620 762 878 791 747 761 732 846 893 1142 1132 984 941 867 824 895 1061 939 966 932
929 836 640 682 629 534 475 550 414 378 443 637 447 299 243 248 354 370 414 421 650 581 548 592 661 706 585 677 726 787 689 673 490 768 903 935 756 710 786 790 931 1017
872 781 484 461 476 460 388 454 356 338 398 435 460 242 359 328 351 367 417 397 410 412 402 419 484 382 534 511 509 650 507 489 497 502 670 750 409 324 286 648 958 1059
727 633 478 458 460 357 366 407 341 243 279 382 179 244 201 242 326 400 374 378 256 239 290 285 255 388 538 559 578 606 600 600 489 304 230 136 64 44 40 264 551 735
603 490 492 496 426 243 316 252 248 253 281 165 280 190 212 188 236 327 292 217 170 142 150 68 47 30 351 453 505 533 593 585 547 465 0 0 1 0 1 8 258 438
547 428 471 480 305 200 276 198 224 196 88 292 266 100 114 148 118 145 118 135 74 37 18 6 0 0 0 32 86 89 24 352 172 0 0 0 0 0 0 0 0 23
514 319 305 273 198 212 281 215 119 96 77 181 92 61 8 0 3 2 5 32 13 0 0 0 0 0 0 0 0 1 0 0 0 0 0 1 4 0 0 0 9 20
419 234 363 352 203 204 255 151 97 48 17 25 34 69 0 0 0 0 0 0 18 0 0 0 0 0 0 0 2 22 17 1 0 0 0 0 1 0 0 2 2 65
284 326 504 210 52 90 97 51 19 23 16 4 6 1 0 0 0 0 0 0 0 0 0 0 0 0 0 0 0 0 1 9 2 0 0 0 0 0 0 0 8 0
246 472 442 79 0 0 0 0 0 0 0 0 0 0 0 0 0 0 0 0 0 0 0 0 0 0 0 0 0 0 0 0 0 0 0 5 0 0 0 0 0 1
249 443 177 0 0 0 0 0 0 0 0 0 0 0 0 0 0 0 0 0 0 0 0 0 0 0 0 0 0 0 0 0 4 18 2 2 4 0 0 0 0 8
227 251 14 0 0 0 0 0 0 0 0 0 0 0 0 0 0 0 0 0 0 0 0 0 0 0 0 0 0 0 0 0 0 0 0 0 1 0 0 0 0 0
182 8 35 24 0 0 0 0 0 0 2 0 0 0 0 0 0 0 0 0 0 0 0 0 0 0 0 0 0 0 0 0 1 7 0 0 0 11 37 11 7 2
1 1 1 1 2 0 0 0 0 0 0 0 0 0 0 0 0 0 0 0 0 0 0 0 0 0 0 0 0 0 0 0 0 3 16 16 35 27 15 79 122 47
0 3 23 3 0 0 0 17 44 14 0 0 0 0 0 0 0 0 0 0 0 0 0 0 1 0 0 0 0 0 0 0 0 0 0 1 14 29 32 99 135 203
94 78 43 10 3 10 9 12 22 68 128 51 0 0 0 0 0 0 1 8 4 0 0 0 0 0 0 0 0 0 0 0 0 0 0 0 0 0 16 26 107 102
73 91 42 19 3 1 5 8 5 6 8 0 153 24 0 0 0 0 0 0 0 0 0 0 0 0 0 0 0 0 0 0 0 0 0 0 0 0 5 20 25 25
0 0 5 6 0 0 0 0 0 0 0 10 54 0 0 0 1 0 0 0 0 0 0 0 0 0 0 0 0 0 0 0 0 0 0 0 0 0 1 12 28 22
13 0 0 0 2 7 14 4 0 0 0 0 0 0 0 0 0 0 0 0 0 0 0 0 0 0 0 0 0 0 0 0 8 52 67 54 25 2 0 0 0 10
3 1 1 0 2 5 8 9 5 5 0 0 0 0 0 0 0 0 0 0 0 0 0 0 0 0 0 0 0 0 0 0 0 0 1 17 18 14 27 22 32 14
1 0 0 0 1 1 1 1 1 3 0 0 0 0 0 0 0 0 0 19 26 29 22 14 0 0 0 0 0 0 0 0 0 0 0 0 0 0 0 207 240 261
0 0 0 0 0 0 0 0 0 0 0 0 0 0 0 0 0 0 2 6 14 24 38 65 27 31 16 0 0 0 0 0 0 0 0 53 156 173 118 129 216 230
0 0 0 0 0 0 0 0 0 0 0 0 0 0 0 6 3 12 21 42 65 85 129 130 125 173 154 152 137 154 152 0 0 0 6 0 0 0 0 0 0 0

ECMWFNIL_con_mucape_042.txt.gz
CAPE
1217 1198 1723 1502 1424 1657 1504 1340 1098 974 1152 1010 926 880 903 887 970 843 804 901 903 836 798 863 900 979 961 1249 1598 1242 1212 1507 1484 1531 1650 1708 1526 1394 1334 1291 1172 1084
1329 1902 1669 1373 1809 1566 1480 1417 1263 1115 971 818 764 700 726 831 965 858 928 894 1011 804 945 999 924 907 926 1303 1710 1634 1241 1463 1569 1412 1698 1742 1579 1565 1532 1480 1645 1487
1393 1904 1524 1704 1718 1303 995 917 1056 826 781 740 812 808 866 1129 972 782 680 596 532 643 1048 1032 1025 822 763 625 1346 1781 1414 1540 1487 1487 1504 1364 1428 1423 1537 1746 1645 1608
1458 1875 1434 1749 1432 1212 1123 833 679 597 678 681 554 511 686 830 773 676 670 581 560 627 721 854 950 931 770 775 742 890 1479 1591 1417 1504 1375 1429 1516 1391 1482 1618 1517 1639
1698 1688 1268 1241 1018 869 859 705 620 534 374 400 649 656 515 670 552 422 479 592 550 530 595 585 656 759 858 722 734 983 1758 1631 1651 1600 1284 1479 1439 1513 1646 1574 1686 1624
2089 1595 1226 1007 1204 1104 782 627 627 624 642 699 588 368 396 415 369 308 396 448 466 430 514 545 582 629 699 726 1016 1618 1541 1479 1454 1472 1492 1429 1308 1419 1588 1595 1621 1620
2273 1766 1253 1180 1157 1027 786 699 693 757 797 691 520 452 342 336 282 296 242 243 242 207 261 326 525 659 711 816 1289 1629 1389 1469 1424 1223 946 608 704 861 747 1436 1471 1350
2336 1833 1501 1295 1186 1081 866 834 840 777 780 626 512 474 353 234 262 330 294 223 193 161 176 301 416 540 774 838 703 1468 1496 1514 1323 745 401 207 377 421 768 984 1476 1480
2184 2097 1597 1545 1351 1141 948 673 722 769 718 600 404 370 332 260 395 344 292 279 287 148 93 305 337 283 624 533 546 720 861 1022 958 593 308 272 302 167 111 574 1280 1470
2015 1911 1808 1572 1389 962 847 724 719 711 612 572 479 480 453 350 375 332 250 297 255 103 59 196 286 324 370 267 237 226 323 593 731 355 160 155 80 36 1 38 113 421
1771 1782 1805 1777 1472 964 852 837 798 664 604 512 510 503 463 430 269 228 218 128 264 53 0 40 46 73 124 153 128 82 68 79 32 1 53 72 48 2 0 5 25 65
522 1020 1427 1381 1241 958 919 819 694 665 649 564 466 449 418 284 195 83 9 13 46 8 0 0 2 6 0 3 46 54 32 3 0 0 0 18 36 0 0 4 10 16
377 391 611 968 1095 876 864 768 737 710 634 524 488 448 332 162 61 36 5 0 1 1 0 0 0 0 0 0 0 15 38 4 0 0 0 0 0 0 0 0 0 2
326 14 86 88 362 845 920 681 731 657 508 492 521 414 151 19 4 0 0 0 0 0 0 0 0 0 0 0 0 0 0 6 1 0 0 0 0 0 0 0 1 5
75 54 28 21 66 171 329 575 596 517 545 502 422 166 39 1 0 0 0 0 0 0 0 0 0 0 0 0 0 0 0 0 0 0 3 11 9 0 5 1 0 2
7 27 55 133 134 158 141 108 211 305 270 244 134 72 29 0 0 0 0 0 0 0 0 0 2 3 0 0 0 0 1 0 0 0 0 2 22 52 30 12 2 3
0 7 122 6 0 0 0 1 47 198 114 80 73 26 14 0 0 0 0 0 0 0 0 3 0 0 0 0 0 0 0 0 0 0 0 0 0 21 39 2 2 0
222 192 72 0 0 0 0 0 0 0 0 52 122 83 50 69 14 0 0 1 40 69 3 0 0 0 0 0 0 0 0 0 0 0 0 0 0 0 0 2 5 24
0 119 0 2 0 0 0 5 8 7 8 18 13 34 247 230 115 83 160 102 3 0 0 0 0 0 0 0 0 0 0 4 0 0 0 0 6 8 18 65 63 69
12 0 6 2 0 0 0 0 0 4 16 36 25 12 7 93 154 14 0 0 0 0 0 0 0 0 0 0 0 0 0 0 9 9 0 3 2 10 34 57 106 126
1 21 6 6 2 1 1 3 13 10 16 22 0 0 0 0 0 0 0 0 0 0 0 0 0 0 0 0 0 0 0 4 286 93 69 73 108 185 114 96 143 87
7 12 4 1 1 1 1 0 0 1 4 2 0 0 0 0 0 0 0 0 0 0 0 0 0 0 0 0 0 0 0 71 193 402 266 235 360 528 418 348 334 431
2 1 0 0 1 0 0 0 0 0 2 0 0 0 0 0 0 0 0 0 0 0 0 0 0 0 0 0 0 0 0 10 91 38 135 378 536 705 557 700 969 875
16 5 0 0 0 0 0 0 3 4 3 2 2 4 8 12 0 0 0 0 1 2 0 0 0 0 0 0 0 0 0 0 0 1 13 22 98 171 151 297 0 0
0 0 1 1 1 1 0 1 1 2 6 7 6 7 8 3 0 0 0 0 0 0 0 0 0 0 0 0 0 0 0 0 0 0 0 0 0 0 2 16 94 0
0 0 0 0 0 0 0 0 1 3 3 3 4 1 0 0 0 0 0 0 0 0 0 0 0 4 0 0 0 0 0 0 0 0 0 0 0 45 0 0 0 3

ECMWFNIL_con_mucape_045.txt.gz
CAPE
1208 885 1255 802 616 622 868 1123 1177 1301 1103 732 806 823 684 670 902 1015 981 1011 1015 1099 1019 916 826 992 1345 1683 1472 1281 1434 1453 1085 1088 1108 1464 1009 1170 1165 1188 1106 1100
1171 1018 1023 949 740 609 987 1175 1126 996 918 765 733 735 812 860 756 841 905 938 1026 897 901 970 918 929 1217 1256 1731 1328 1133 1175 1288 880 963 1273 1145 903 1002 1108 1044 1276
1280 1237 967 786 912 638 1423 1396 1243 1040 1077 924 898 922 812 936 951 836 940 902 737 725 785 898 1027 963 877 938 1383 1289 1010 961 1112 1073 1126 1206 986 1022 1113 939 1012 985
1646 1521 1277 1076 862 981 1370 1417 1003 1148 1060 960 954 949 900 962 943 946 916 715 613 728 870 784 863 883 753 830 1130 1241 1238 1267 1119 1342 1188 991 1126 1208 1223 1657 1107 886
1972 1576 1320 1113 752 727 1128 1065 1028 1054 1017 1006 923 899 863 817 861 631 684 609 506 451 521 537 562 582 592 577 643 1004 1275 1204 953 1014 1099 1147 1223 1300 1002 1496 1404 1415
1626 1780 1037 553 601 407 595 725 794 915 938 835 710 511 461 500 389 336 384 369 539 445 435 535 520 587 710 656 659 785 1319 1158 978 1348 1202 828 1318 1258 1223 1146 1064 1032
1594 1617 1190 938 646 303 299 556 641 513 543 722 514 568 528 399 437 433 449 555 585 480 498 568 556 602 663 594 655 881 1535 1260 1361 1256 745 916 888 1173 1300 1224 1276 1268
1703 1336 1109 462 674 352 703 577 575 566 721 662 542 639 594 418 477 439 416 464 422 355 359 303 381 402 536 533 554 1167 1142 1143 1371 800 571 442 796 642 480 1143 1329 900
1150 930 836 730 364 549 739 672 694 802 757 625 633 500 426 400 422 509 420 298 326 266 276 248 237 217 349 374 475 1239 1204 1531 1356 656 497 260 436 496 318 927 1198 909
836 723 618 960 637 612 772 722 836 811 794 720 495 380 368 337 442 381 262 315 282 178 175 264 227 288 358 402 382 585 1116 684 915 502 414 261 262 229 98 429 1120 919
595 698 905 749 671 697 884 788 785 711 704 423 298 263 326 412 308 313 217 279 375 153 148 200 240 306 349 344 525 542 532 334 462 215 202 220 154 110 24 73 471 744
720 816 1213 883 807 868 865 793 675 688 659 640 337 231 468 351 227 300 123 200 160 142 130 107 78 138 153 232 241 286 328 361 165 103 103 66 28 1 4 6 84 199
834 1014 1290 1194 985 788 828 722 691 638 449 402 358 447 447 301 195 198 103 206 238 143 32 2 24 13 36 39 103 100 112 57 55 15 14 18 17 0 6 1 1 7
947 1263 1466 1328 774 766 718 642 416 572 420 639 550 408 291 188 134 129 143 213 296 131 11 2 3 6 12 41 34 27 11 36 20 19 1 3 4 4 9 7 2 14
1244 1115 1210 1139 621 500 455 336 353 284 749 683 652 442 227 140 111 140 91 153 105 44 5 0 7 0 0 0 0 0 0 0 21 11 2 7 8 2 2 0 1 5
509 603 645 948 1011 584 286 395 277 592 678 719 683 350 107 91 48 1 0 2 1 3 1 61 3 0 0 0 0 0 4 0 14 8 2 5 6 3 2 2 5 2
214 350 509 635 801 787 699 531 556 612 652 550 380 165 43 1 0 0 0 0 0 0 84 3 0 0 0 0 0 0 0 328 4 0 0 1 5 7 16 10 4 0
9 216 225 336 341 423 448 392 440 548 212 84 108 63 5 0 0 0 0 0 19 182 3 0 0 0 0 0 0 0 0 12 21 1 0 0 0 0 4 6 3 0
2 2 0 0 9 2 13 7 100 80 165 273 375 278 19 0 2 18 40 130 42 0 0 0 0 0 0 0 0 0 0 0 0 1 3 0 0 0 0 0 0 0
5 0 12 2 0 0 0 0 16 4 2 41 143 208 202 129 74 44 18 0 0 0 0 0 0 0 0 0 0 0 0 0 8 0 0 0 0 0 0 18 46 67
0 1 0 0 0 0 0 0 0 1 1 0 6 119 281 69 13 2 0 0 0 0 0 0 0 0 0 0 0 0 0 6 39 2 0 0 0 8 14 21 40 66
28 12 6 5 0 2 0 6 11 3 1 6 15 16 2 1 2 1 0 0 0 0 0 0 0 0 0 0 0 0 0 0 35 11 0 0 7 15 2 1 10 19
17 16 18 10 11 5 4 12 10 4 10 10 12 9 7 4 0 0 0 0 0 0 2 0 0 0 0 0 0 0 0 3 30 17 51 73 181 179 90 48 515 576
9 7 7 4 1 1 0 1 4 3 2 3 2 0 0 0 0 0 0 0 0 1 4 4 3 0 0 0 0 0 0 2 6 17 69 109 233 208 216 244 334 5
0 1 0 0 0 3 2 0 0 0 0 0 0 0 0 0 0 0 0 0 1 2 2 2 1 0 0 0 0 0 0 0 0 0 29 47 53 129 113 41 0 0
0 0 0 0 0 0 2 11 12 8 6 5 7 6 3 1 0 1 4 4 0 9 8 3 3 3 4 0 0 0 0 0 0 0 0 0 0 0 0 3 9 0

ECMWFNIL_con_mucape_048.txt.gz
CAPE
1097 922 797 519 630 655 902 552 542 631 792 1295 1346 1385 1360 1595 1438 1443 1400 1360 1344 1242 1094 1253 1254 1444 1655 1679 1731 1544 1123 1433 976 1269 1153 1470 1442 1633 1774 1694 1568 1432
980 855 630 500 475 495 702 636 423 882 1038 1254 1418 1388 1287 1249 1339 1255 1270 1210 1134 1161 1145 1130 1134 1241 1432 1413 1722 1101 1277 1130 1042 979 1368 1314 1208 1546 1360 1533 1574 1354
879 636 379 253 317 252 382 446 565 496 570 1006 1262 1264 1190 1182 1136 1208 1234 1084 958 1038 1213 1134 1187 1031 1196 1184 1202 961 1095 1161 1055 948 992 1104 1087 1244 1376 1549 1398 1401
886 607 347 422 398 460 656 466 600 564 759 1315 1430 1419 1194 1040 1118 1202 1117 916 998 993 970 1052 1154 1040 838 977 1316 1254 985 1024 836 947 1069 1119 1072 1276 1149 1248 1136 1299
754 750 719 845 660 654 731 726 830 1062 1207 1590 1421 1202 906 1012 1084 999 1048 890 936 881 937 970 1039 1085 859 822 1028 1206 1287 1128 1130 1288 1342 1173 1272 999 1142 1216 1209 1254
923 645 717 932 522 508 554 748 788 1256 1209 1231 1315 949 900 924 938 861 679 548 601 636 580 611 632 613 678 782 900 1024 1393 1238 1335 1132 1022 1138 1174 1249 1145 1345 1145 1054
1088 746 890 654 657 533 617 672 851 995 1130 1153 976 982 951 890 604 476 340 312 353 467 404 623 596 708 812 822 728 831 1342 1202 1063 1112 928 817 955 1012 1117 1378 1203 1135
1181 1020 786 660 590 700 502 616 1045 872 1078 847 818 754 608 413 322 317 361 317 394 403 528 442 599 606 691 704 678 765 1260 1260 1336 900 614 710 846 563 875 747 1250 952
1146 991 761 850 720 623 553 396 899 850 758 847 603 689 555 389 407 511 514 420 511 438 349 428 357 515 675 707 692 722 1001 799 1156 908 756 821 844 645 466 532 777 988
1209 983 902 809 786 413 358 552 728 789 739 652 556 584 620 690 628 387 462 321 424 133 286 345 190 538 484 407 417 533 803 848 693 702 794 730 636 746 349 659 659 550
1518 1194 1020 784 473 402 777 828 759 811 664 567 816 544 442 618 466 456 389 254 476 134 134 186 225 233 342 328 544 580 866 697 729 553 456 397 503 400 420 366 996 790
1262 1209 1081 620 525 798 914 848 894 928 787 732 325 341 476 531 249 180 164 173 214 166 73 107 144 209 256 354 316 580 682 691 574 404 320 425 372 432 243 386 847 922
916 960 920 872 738 818 835 757 637 685 672 345 315 410 557 433 188 392 198 175 110 98 42 56 45 45 177 161 145 241 406 334 440 511 510 467 348 240 236 299 376 701
656 694 592 734 797 732 648 641 624 572 595 398 456 580 392 356 99 264 155 125 191 140 144 100 2 0 0 1 16 177 129 226 273 414 203 263 92 306 239 50 230 503
561 533 612 542 843 671 530 431 478 560 410 360 461 217 302 213 223 155 270 91 156 229 8 0 0 0 0 0 0 0 64 41 153 83 195 110 122 241 319 23 158 21
448 523 563 524 596 515 508 495 491 318 321 342 482 202 200 173 200 182 176 166 276 95 0 0 0 0 0 0 0 0 0 113 145 70 142 114 40 76 6 44 106 5
524 492 417 425 432 440 375 354 377 523 499 586 354 284 217 250 221 30 87 80 55 42 0 0 0 0 0 0 0 0 0 0 146 52 141 6 162 34 179 68 6 46
433 420 384 344 325 150 184 400 480 581 496 307 465 245 187 113 44 5 165 75 1 0 0 0 0 0 0 0 0 0 0 0 46 120 0 12 29 93 10 52 89 111
354 346 321 258 317 428 388 437 290 265 252 428 362 217 53 22 20 164 28 10 0 0 0 0 0 0 0 0 0 0 0 0 0 3 81 1 0 2 0 36 16 54
302 421 357 326 325 334 318 288 303 275 238 176 102 34 2 0 0 0 0 0 0 0 0 0 0 0 0 0 0 0 0 0 0 0 20 31 17 0 32 7 78 298
206 266 276 123 298 307 301 266 311 234 122 17 3 2 0 0 0 0 0 0 0 0 0 0 0 0 0 0 0 0 0 0 0 11 62 0 78 59 20 134 283 64
83 48 120 291 278 231 295 235 220 133 65 34 10 0 0 0 0 0 0 0 0 0 0 0 0 0 0 0 0 0 0 0 1 46 0 19 5 15 1 29 154 420
25 23 32 42 90 110 158 139 48 62 33 23 8 2 3 0 10 0 0 0 0 0 0 0 0 0 0 0 0 0 0 0 4 44 15 74 161 152 3 0 0 72
17 10 4 4 0 2 26 39 8 0 1 10 9 0 2 0 0 0 0 0 0 0 0 0 0 0 0 0 0 3 2 0 0 8 92 34 82 127 0 0 0 0
12 3 8 10 4 6 11 8 3 10 12 13 11 10 7 3 5 4 1 1 0 0 0 0 0 0 0 0 2 4 4 1 0 0 0 25 51 56 0 0 0 0
4 1 2 0 2 5 4 5 6 10 7 4 1 2 5 2 0 0 0 0 0 0 0 0 0 0 0 12 14 5 6 2 0 0 0 0 0 0 0 4 0 0

ECMWFNIL_con_mucape_051.txt.gz
CAPE
581 850 968 722 637 614 554 450 370 216 330 603 862 805 796 829 774 690 948 984 932 568 637 642 507 491 712 773 726 970 1179 1153 1170 1237 1294 1227 1170 955 965 934 593 415
705 876 909 819 669 575 478 359 239 392 596 832 883 782 907 936 730 572 683 777 762 716 616 560 669 692 672 713 585 637 1010 1206 1190 1208 1341 1349 1382 1020 720 751 753 565
752 891 807 773 624 453 311 134 268 466 604 985 958 908 946 843 863 867 771 673 612 575 551 734 759 646 712 699 715 732 872 800 821 923 1160 1244 1430 1433 1222 1094 960 700
849 829 746 672 584 390 236 189 276 364 588 925 981 984 952 853 865 773 740 718 612 594 568 589 766 753 770 723 807 821 845 792 729 916 884 908 1115 1301 1284 1219 1012 871
990 844 728 718 558 316 264 255 227 382 532 719 942 908 848 844 757 679 683 653 672 659 636 579 610 709 723 736 736 737 769 821 762 815 786 760 853 1080 1109 1230 1016 795
1047 938 814 689 118 234 220 262 242 390 500 651 884 816 744 718 668 617 582 591 576 540 544 576 560 573 690 761 721 691 743 699 752 723 723 689 782 976 996 1086 975 890
991 953 885 620 327 331 259 288 311 397 551 807 784 621 587 630 578 548 438 519 448 503 552 556 672 442 504 704 755 717 674 606 572 774 727 616 695 972 878 909 846 881
915 915 789 628 411 362 315 345 459 725 845 859 663 552 547 628 579 498 392 319 385 400 422 422 341 328 338 492 623 832 725 776 874 896 868 780 797 811 888 821 939 832
881 575 755 728 455 350 408 461 693 898 900 750 663 635 489 599 610 530 340 113 36 205 216 271 369 368 336 376 376 752 884 850 907 795 692 589 694 791 992 953 1055 916
847 656 811 710 488 370 476 571 846 918 802 717 698 610 464 541 495 28 25 16 181 218 270 305 369 375 370 372 396 618 810 761 638 558 542 590 546 604 694 792 1021 1007
952 802 753 672 463 448 536 657 840 834 732 706 687 574 473 360 40 30 44 225 260 90 242 291 350 377 358 214 282 537 613 544 486 602 370 510 539 350 316 370 492 688
956 967 771 627 460 504 546 684 772 746 698 659 544 290 282 228 58 48 241 178 0 0 0 0 208 361 262 168 361 509 496 418 498 448 360 394 443 388 398 396 408 432
824 943 814 595 471 487 538 643 660 626 583 469 315 279 271 409 158 3 2 2 1 0 0 0 0 94 125 200 358 466 428 245 403 316 325 256 8 74 273 374 461 490
695 840 726 590 499 429 531 564 558 527 476 479 418 349 318 320 169 105 0 0 0 0 0 0 0 64 109 202 215 316 306 265 211 76 13 50 0 0 211 456 486 434
700 672 640 539 434 571 552 524 446 436 446 364 278 234 209 256 24 0 0 0 0 0 0 0 0 0 0 0 25 184 1 53 29 25 1 0 0 0 0 415 538 569
706 687 563 418 506 580 488 449 405 404 359 248 247 226 162 0 0 0 18 0 0 0 0 0 0 0 0 0 0 0 0 18 0 0 0 0 0 0 0 240 504 507
688 692 487 486 515 518 448 380 444 317 204 221 243 202 84 0 0 0 0 0 0 0 0 0 0 0 0 0 0 0 0 0 0 0 0 0 0 0 0 66 24 0
666 569 438 512 507 495 452 457 416 274 184 204 222 116 0 0 0 0 0 0 0 0 0 0 0 0 0 0 0 0 0 0 0 0 0 0 0 0 0 0 0 0
487 361 435 442 463 527 494 472 353 290 210 166 180 50 0 0 0 0 0 0 64 88 0 0 0 0 0 0 0 0 0 0 0 0 0 0 0 0 0 0 0 0
350 201 337 173 404 406 327 491 306 307 206 84 0 0 0 0 0 0 0 0 27 0 0 0 0 0 0 0 0 0 0 0 0 0 0 0 0 0 0 0 0 0
245 181 232 334 237 200 148 372 329 145 106 91 0 0 0 0 0 0 0 0 0 0 0 0 0 0 0 0 0 0 0 0 0 0 0 0 0 8 6 0 0 0
198 126 120 184 166 190 206 121 164 117 113 80 19 0 0 0 0 0 0 0 0 0 0 0 0 0 0 0 0 0 0 0 0 1 3 0 0 0 0 0 0 0
75 68 56 53 25 154 172 136 120 160 141 95 35 0 0 0 0 0 0 0 0 0 0 0 0 0 0 0 0 0 0 1 0 2 10 9 11 13 3 0 0 7
28 43 55 60 68 64 50 121 123 166 147 88 61 26 0 0 0 0 4 1 0 0 0 0 0 0 0 0 0 0 0 0 0 0 2 16 3 3 30 46 56 1
4 2 20 73 73 64 92 92 140 130 39 30 17 12 11 0 0 0 0 0 0 0 0 0 0 0 0 0 0 0 0 0 0 0 0 11 13 11 0 24 36 0
1 12 4 6 67 71 71 64 38 40 26 2 9 0 0 0 1 0 0 0 0 0 0 0 0 0 0 0 0 0 0 11 11 0 0 11 21 37 0 0 0 0

ECMWFNIL_con_mucape_054.txt.gz
CAPE
891 702 480 428 443 563 566 636 699 792 871 1046 1078 1111 1016 851 602 704 765 963 826 1081 1106 962 911 818 662 619 679 597 435 666 738 665 640 627 458 341 489 566 472 559
871 674 492 520 628 732 768 706 762 806 924 971 967 849 934 815 741 862 965 917 960 1092 1203 1113 914 721 675 730 677 623 537 571 572 518 495 478 493 492 499 598 488 453
780 624 490 484 612 589 742 756 840 878 880 865 716 652 820 756 965 996 1034 1102 1048 1141 1179 1093 892 746 718 678 621 613 635 639 617 677 583 566 462 454 604 541 441 369
855 711 565 456 434 504 650 752 798 772 723 622 489 476 635 898 970 1095 1071 1102 858 910 814 840 745 667 810 863 714 652 739 594 872 879 853 849 778 653 732 646 561 438
813 747 602 536 549 526 519 480 641 509 340 381 678 616 646 889 842 1000 1024 943 880 740 665 629 648 580 748 844 721 607 683 667 811 1055 1066 992 1046 932 863 873 771 569
803 779 705 665 614 646 680 512 479 188 394 715 788 740 986 1005 873 828 790 768 769 784 644 710 753 718 749 707 662 715 717 711 855 1092 1157 1123 1192 1131 915 749 726 710
806 773 690 680 676 806 747 356 250 301 555 684 700 968 1105 1115 974 896 847 817 791 744 688 821 827 840 813 769 732 799 800 786 812 901 910 928 1068 1272 1228 1141 1046 962
900 823 749 669 677 626 494 346 193 331 447 782 1067 1134 1018 1131 1062 996 927 842 778 744 702 801 856 836 772 745 784 755 822 870 845 760 757 677 643 939 1040 1120 1114 957
922 862 762 724 713 576 458 99 96 254 447 818 1066 1129 1137 1088 1060 956 899 864 832 794 753 706 731 721 761 794 781 743 752 796 801 789 741 682 702 848 929 1019 1092 986
922 844 769 704 740 712 410 218 186 297 558 754 875 1104 942 982 945 894 832 860 715 661 694 710 708 634 742 810 775 773 747 740 681 658 641 547 623 782 884 891 848 765
861 696 685 723 788 699 452 92 192 329 500 625 810 1033 782 868 834 773 595 617 502 586 627 729 660 457 574 607 627 750 789 682 669 674 741 742 791 724 760 791 780 736
813 702 746 816 837 708 374 46 214 371 540 663 742 820 692 624 698 632 536 543 457 434 495 581 467 422 417 449 426 635 754 768 774 831 897 856 796 776 782 850 966 899
825 790 704 736 845 764 252 38 159 476 687 718 599 527 422 683 728 603 485 268 269 299 327 392 424 442 407 407 429 576 783 832 811 806 803 738 585 579 696 882 972 992
866 844 686 686 695 507 33 49 344 594 685 654 588 550 524 559 391 244 182 194 295 316 345 332 385 394 342 331 353 482 632 567 515 556 518 494 326 455 541 542 542 570
452 664 475 605 330 294 115 207 421 594 422 296 442 463 434 276 164 201 282 322 320 288 301 317 348 375 317 262 302 456 462 354 482 499 394 349 284 311 421 388 370 369
475 510 640 660 328 388 312 307 576 654 439 291 346 348 221 191 210 233 301 275 218 151 168 208 284 334 224 241 342 370 324 282 278 0 162 316 314 127 43 170 323 364
329 391 578 574 459 496 331 484 626 609 452 532 230 59 272 290 295 223 212 141 0 140 150 182 192 149 0 0 0 273 239 220 0 0 0 0 0 0 0 225 334 415
322 438 566 546 649 572 380 559 587 500 124 79 317 247 279 306 193 167 124 0 62 129 99 107 127 135 159 65 166 44 0 0 0 0 0 0 0 0 0 202 424 447
79 361 464 425 508 342 380 400 522 424 242 284 333 306 249 264 181 150 112 36 56 110 86 58 97 111 85 100 107 29 0 0 31 0 0 0 0 127 319 454 442 400
77 245 337 484 488 221 271 374 495 332 217 102 250 278 248 186 47 0 106 138 104 101 84 51 31 0 0 0 23 0 0 0 2 35 4 0 0 0 66 156 148 139
91 28 265 451 425 277 301 420 354 257 132 224 245 233 178 0 0 17 69 111 125 112 86 48 2 0 0 0 0 0 0 0 0 16 0 0 0 0 0 0 0 0
50 56 43 373 395 351 300 383 268 247 85 144 255 213 29 11 97 86 94 116 123 120 109 71 7 0 0 0 0 0 0 0 0 0 0 0 0 0 0 0 0 0
18 20 9 271 321 359 339 196 104 6 120 153 209 170 0 69 95 91 92 88 103 114 122 82 0 0 0 0 0 0 0 0 0 0 0 0 0 0 0 0 0 7
4 68 24 152 316 317 284 159 99 59 80 107 161 125 0 55 76 89 104 79 82 107 103 21 0 0 0 0 0 0 0 0 0 0 0 0 0 0 0 0 0 13
1 33 8 114 216 63 210 153 108 97 1 22 85 34 65 28 74 90 80 68 62 64 5 3 0 0 0 0 0 0 0 0 0 0 0 4 6 5 1 0 0 17
0 0 4 22 116 12 104 83 102 78 75 19 13 5 14 43 49 65 66 42 36 25 3 0 1 0 0 0 0 0 0 0 1 20 4 20 17 24 30 24 40 44

ECMWFNIL_con_mucape_057.txt.gz
CAPE
856 842 724 833 836 698 620 464 355 307 408 398 240 440 652 779 794 751 805 852 687 563 551 578 666 782 866 908 878 817 833 851 806 761 726 674 584 491 457 378 337 342
814 826 717 807 881 795 650 521 449 369 333 281 449 436 624 713 672 759 893 903 820 733 680 828 822 862 866 889 969 851 808 800 757 699 713 694 591 468 495 480 423 388
885 793 807 896 916 776 574 464 431 394 81 195 272 353 570 625 520 632 902 820 730 874 790 781 862 891 867 876 918 929 842 778 675 606 520 612 581 504 488 487 433 429
716 925 933 950 940 759 506 437 405 392 306 131 166 495 768 688 688 488 548 614 664 904 844 731 842 866 879 828 697 591 584 637 496 370 482 499 448 580 553 405 377 345
704 860 947 982 893 715 498 493 485 423 425 340 377 605 800 672 638 391 405 631 636 626 667 735 880 852 795 753 695 597 622 639 495 445 471 464 484 581 584 479 456 481
567 742 887 921 870 724 540 544 556 526 490 487 596 718 804 458 517 494 457 542 814 720 796 895 856 909 814 753 677 556 568 605 515 494 529 507 500 454 465 478 464 505
636 674 761 942 873 741 614 523 533 573 644 625 724 789 600 479 514 469 566 522 788 842 919 959 920 809 670 646 623 563 592 553 547 526 551 493 521 560 496 435 510 537
621 646 709 858 891 753 646 522 452 470 620 776 745 511 342 306 429 547 428 557 522 820 872 909 841 756 720 697 772 738 674 521 526 573 649 685 612 799 737 737 742 728
541 524 552 617 723 747 664 544 480 438 381 470 430 304 322 349 417 482 460 516 615 766 726 638 627 645 630 584 765 809 715 567 563 583 683 837 825 874 950 937 874 810
542 536 539 591 498 560 615 555 542 563 465 374 28 360 520 488 471 373 470 583 676 766 725 689 669 720 722 731 743 707 668 686 717 734 740 845 859 823 842 948 969 953
458 402 542 533 536 478 488 518 601 573 345 208 335 550 650 682 716 584 516 484 800 809 769 727 736 809 831 792 748 716 706 736 766 738 779 714 653 630 663 835 973 1022
412 556 522 276 414 489 542 642 492 469 151 230 291 472 653 765 760 795 734 744 881 850 806 732 794 841 800 701 690 692 677 662 660 743 767 695 583 566 608 650 722 794
259 287 306 361 364 503 570 545 533 392 0 222 349 442 634 802 641 550 470 549 916 834 804 782 742 710 695 642 682 705 668 637 662 690 675 645 598 588 603 616 664 699
241 286 361 435 437 473 643 562 486 170 8 274 394 513 676 821 660 668 774 549 640 831 768 687 667 644 616 539 652 663 640 674 690 579 608 618 660 670 682 696 658 660
281 323 371 324 468 567 572 543 502 148 0 284 431 551 670 465 515 625 515 481 494 651 507 492 599 654 536 390 454 436 386 543 612 643 659 683 724 790 784 711 664 654
362 360 389 342 288 431 536 449 407 130 0 297 415 540 612 541 536 497 309 468 579 417 359 413 480 540 426 335 348 384 368 410 546 663 714 729 786 771 720 523 420 499
292 330 352 299 284 314 366 392 360 102 3 301 378 539 578 554 279 187 256 425 480 391 277 271 320 352 324 326 295 287 307 349 477 537 514 484 530 538 466 360 305 380
158 260 271 290 210 154 324 336 320 64 5 292 428 479 384 521 285 177 272 404 492 296 231 264 277 251 272 248 186 169 203 326 348 340 425 376 345 284 232 209 216 236
0 0 153 195 142 32 99 248 347 0 160 301 519 442 438 322 128 85 169 0 112 192 230 253 264 262 262 249 181 203 282 269 250 262 0 0 192 264 254 174 0 0
0 0 0 104 165 40 13 0 266 0 238 273 333 354 398 145 0 101 34 45 225 251 239 165 150 159 210 144 0 0 0 80 0 0 0 0 0 0 0 0 0 93
0 0 5 0 110 72 101 149 364 23 191 264 272 304 185 92 0 146 43 225 237 208 151 101 86 112 16 0 0 0 0 0 0 0 0 0 0 0 0 0 5 233
0 0 0 0 26 59 28 35 214 186 169 237 227 97 53 56 134 167 223 226 190 120 73 90 75 0 0 0 0 0 0 0 0 0 0 0 0 0 176 239 263 197
0 0 0 0 0 10 31 26 66 194 181 177 157 85 96 90 94 0 137 179 114 60 80 77 12 0 0 0 0 0 0 0 0 0 0 0 0 0 0 36 31 1
0 0 0 0 1 4 13 27 56 174 186 171 123 78 69 56 36 81 103 118 67 61 69 62 48 16 0 0 4 56 14 0 0 0 0 0 0 0 2 2 4 5
0 0 0 0 0 0 6 5 66 81 122 138 119 91 69 47 29 61 134 77 78 100 65 55 43 20 0 0 0 0 0 0 0 0 0 0 0 0 0 4 8 11
0 0 0 0 0 0 0 4 28 83 101 63 80 80 89 89 30 31 90 55 65 60 60 44 46 34 15 0 0 0 0 0 0 0 0 0 0 0 0 0 12 17

ECMWFNIL_con_mucape_060.txt.gz
CAPE
724 755 706 629 628 640 659 632 627 601 588 477 566 458 297 268 248 140 529 710 741 641 484 363 323 167 143 460 675 609 480 444 545 526 442 469 414 368 376 357 307 89
536 627 569 518 504 588 667 659 621 627 689 558 441 198 0 256 246 276 402 469 447 553 514 305 293 288 295 352 617 586 540 414 298 578 555 396 405 449 522 490 370 310
0 288 428 378 368 428 604 606 603 675 693 604 452 294 44 294 270 266 345 402 532 740 643 396 342 506 506 497 602 626 525 471 593 744 667 551 584 675 666 602 469 397
356 258 245 134 164 390 636 586 657 644 645 570 429 297 150 278 282 530 686 586 674 735 714 518 504 531 557 600 743 775 727 793 784 806 803 798 820 789 694 568 470 481
364 263 189 270 327 380 545 501 616 600 636 607 463 300 246 222 368 477 350 426 591 747 767 533 501 598 720 772 730 828 868 822 824 816 843 840 773 727 683 520 366 412
381 362 338 404 434 406 336 238 586 614 565 522 418 249 217 288 299 488 523 511 527 640 689 583 439 610 841 890 847 838 880 791 876 896 845 812 734 619 545 492 371 395
489 499 456 422 414 410 413 500 561 492 496 478 368 243 221 271 297 498 557 656 541 508 597 581 739 783 772 829 858 866 779 824 723 774 773 707 482 413 436 458 466 530
463 486 525 495 470 473 398 274 314 448 420 429 395 397 12 250 388 540 657 629 414 352 501 577 674 811 779 824 868 680 783 789 633 615 665 620 442 470 470 451 500 578
524 563 544 499 449 449 470 446 516 476 481 423 478 494 456 363 498 661 712 567 448 404 518 687 678 716 774 820 853 788 721 716 655 637 652 576 534 551 522 540 538 528
490 541 479 416 428 416 428 436 438 418 360 469 498 435 498 566 540 750 682 554 501 478 520 677 710 804 841 902 858 790 728 656 535 474 551 542 474 492 487 486 448 411
338 343 329 352 351 399 430 397 413 422 447 426 421 442 484 588 714 796 596 548 516 478 541 583 644 764 814 828 759 716 707 679 464 318 516 568 525 478 557 608 607 609
270 244 219 228 340 406 372 355 391 482 471 481 468 450 462 646 724 584 407 442 529 471 528 520 636 674 679 652 626 590 615 666 740 570 620 618 593 616 692 732 803 798
284 236 266 218 239 283 344 347 412 460 533 514 459 449 455 379 373 387 424 448 497 500 472 468 524 547 535 609 659 654 676 719 738 693 572 583 672 716 836 872 917 807
331 229 164 240 278 272 277 340 414 433 478 553 522 455 460 367 361 433 479 498 518 520 531 567 570 376 484 671 742 770 762 753 726 737 752 724 685 781 793 667 634 508
169 279 208 190 283 323 315 348 434 501 546 578 556 431 252 324 416 531 584 514 564 529 450 420 356 371 587 682 796 780 694 692 675 684 677 673 728 756 690 561 523 564
0 0 205 238 189 297 326 309 428 512 597 584 558 386 198 300 363 426 634 708 610 509 398 320 318 396 609 716 820 731 678 686 681 642 655 646 625 579 575 576 573 608
1 1 0 0 123 247 224 314 342 419 528 576 480 278 55 265 348 416 501 527 465 411 360 358 386 521 710 715 692 671 602 650 630 614 622 626 556 578 614 634 665 695
1 0 0 0 0 1 76 248 290 345 430 519 388 150 209 275 306 350 427 448 438 494 507 438 524 634 614 602 624 584 500 546 479 401 472 520 589 624 639 688 748 698
0 1 0 0 0 1 1 1 212 276 364 428 363 79 52 267 304 335 386 412 393 439 480 498 510 415 389 497 620 528 365 346 382 374 363 473 584 623 619 626 621 551
0 1 0 0 0 0 1 1 158 208 216 340 378 153 132 255 322 399 470 478 478 452 472 518 421 322 310 376 430 383 324 294 311 302 291 355 405 446 439 360 313 228
0 0 0 0 0 1 1 46 122 148 160 138 301 234 166 33 292 404 522 579 500 380 429 503 410 335 280 291 308 304 256 194 187 223 260 306 372 358 354 311 282 222
0 0 2 0 0 0 8 18 103 138 141 135 239 63 167 192 280 358 482 528 361 261 376 482 451 367 296 287 304 298 266 197 208 224 245 257 176 40 164 214 222 137
0 0 0 2 1 0 1 17 82 123 155 114 165 164 104 160 247 306 386 438 298 171 168 192 251 268 262 273 277 304 277 192 181 226 211 0 0 0 0 0 0 0
0 0 0 2 2 1 0 0 48 90 117 179 150 74 70 168 221 307 382 386 160 77 0 124 199 252 267 215 204 249 186 149 188 168 6 0 0 0 0 0 0 0
0 0 0 0 2 1 0 0 0 19 88 45 131 35 36 121 159 234 277 275 52 80 162 222 284 281 217 142 158 160 102 113 42 0 0 0 0 0 0 0 152 159
0 0 0 0 0 0 0 0 0 0 47 116 108 43 59 78 152 222 262 184 64 94 110 253 258 221 133 106 127 139 90 76 78 66 59 43 20 0 0 0 0 0

ECMWFNIL_con_mucape_066.txt.gz
CAPE
816 754 841 888 1050 948 843 716 881 950 954 973 1009 1150 1414 1616 956 943 788 758 750 1017 1018 911 605 463 378 333 274 191 242 263 499 712 715 641 496 1178 1293 927 765 988
458 722 799 886 846 900 893 907 902 900 995 1045 1004 1127 1076 1217 1304 830 970 1062 709 593 436 432 279 348 342 280 246 224 352 355 373 414 599 307 394 1173 1378 956 488 379
364 435 517 841 961 986 1008 1019 1029 974 960 974 935 1083 1155 1175 1169 1054 998 843 705 590 448 368 340 152 176 271 255 295 284 425 412 656 650 500 761 927 1257 1214 700 586
336 403 475 550 773 988 996 977 1048 1042 1012 954 909 970 970 954 856 841 981 930 786 804 464 281 339 236 196 171 153 326 480 610 691 715 650 612 332 255 970 1082 794 450
172 372 467 564 567 762 1047 1049 1002 1036 1139 1061 994 857 912 812 727 658 923 876 698 677 544 321 250 201 234 170 302 373 497 644 551 485 446 310 438 747 786 1235 730 705
330 401 504 534 539 577 745 1002 987 939 978 971 748 828 810 752 608 722 884 912 808 460 377 399 148 173 170 165 150 337 442 297 226 246 278 241 393 653 865 680 365 326
163 356 450 530 565 609 643 674 999 952 812 682 626 694 768 775 653 663 781 882 872 805 700 526 276 98 120 101 383 433 827 664 476 349 362 709 786 603 800 542 523 514
0 3 37 461 551 567 604 607 635 855 938 782 753 626 500 615 628 706 680 728 780 633 521 637 462 239 86 186 276 399 432 540 522 518 332 611 771 711 236 588 872 936
0 0 1 4 252 494 540 604 582 578 613 807 731 633 644 660 619 642 500 571 608 564 608 754 859 378 244 76 179 364 537 487 336 385 392 720 798 888 819 560 737 952
0 0 1 5 6 3 361 513 542 574 557 536 705 711 621 607 612 601 621 558 525 545 697 803 960 319 304 291 277 397 367 349 267 337 477 267 462 424 584 513 585 757
3 0 1 4 6 6 8 5 422 447 489 502 502 642 640 583 673 628 630 664 706 531 659 971 995 647 352 316 263 595 528 413 298 262 235 259 333 408 442 618 538 621
2 1 0 1 3 5 6 6 6 359 382 356 396 541 410 447 635 731 610 586 642 386 569 852 895 656 493 335 336 289 418 430 351 219 196 271 627 738 570 550 395 471
3 2 1 1 2 6 8 7 7 63 362 346 257 351 524 508 590 634 702 619 813 773 776 646 784 691 567 534 382 257 270 343 200 297 316 530 570 757 644 377 362 533
2 3 2 0 0 4 5 7 6 6 67 377 324 257 300 453 573 714 631 656 697 519 627 745 834 986 984 864 579 330 221 252 277 304 257 547 756 739 521 496 379 626
2 3 3 1 0 0 3 3 1 4 6 111 395 336 266 384 359 476 571 531 698 443 722 826 876 1061 1052 956 508 318 373 379 314 257 281 374 660 854 600 472 505 634
2 2 2 2 0 0 1 0 0 2 3 2 184 426 328 288 370 492 548 672 701 627 844 657 932 1175 849 503 292 385 505 632 671 463 415 372 343 428 399 467 385 454
2 2 0 0 0 0 0 1 0 3 3 2 0 254 430 356 305 318 456 669 514 356 349 445 1169 907 626 559 459 322 383 590 422 463 332 388 384 318 416 402 504 1080
4 3 3 2 0 0 2 1 2 1 2 3 2 9 315 371 302 320 344 302 431 386 365 425 439 378 394 509 451 384 327 377 470 406 433 471 508 364 223 504 922 864
3 3 2 2 2 1 2 1 2 2 1 2 2 3 58 374 361 309 335 262 235 277 290 346 455 320 361 388 397 366 354 355 501 407 390 434 515 475 536 386 354 515
3 4 4 4 3 3 2 0 3 3 2 3 3 2 54 305 366 325 305 268 51 246 231 299 277 236 293 228 278 373 263 351 474 550 414 319 212 270 246 432 392 608
5 5 4 4 4 4 3 3 3 3 2 3 2 2 2 223 373 414 331 197 92 74 238 211 211 242 241 297 261 274 310 275 202 322 440 474 729 376 364 1228 959 1002
4 7 8 7 6 5 5 4 4 4 4 3 3 4 44 120 259 398 412 281 159 100 99 190 164 126 64 53 206 260 287 313 321 367 484 544 996 1174 1036 695 1153 986
3 6 8 8 9 7 6 6 5 3 4 3 3 2 2 2 104 256 337 344 294 170 76 48 10 2 2 58 183 207 251 375 343 334 402 564 709 808 923 1044 1288 1347
4 6 7 8 8 7 7 7 6 6 4 1 3 1 3 2 2 99 240 242 210 183 114 91 35 20 13 170 200 182 235 354 317 211 222 292 360 370 341 458 342 547
3 4 10 10 9 8 8 7 9 8 5 5 3 5 5 1 0 36 103 155 203 209 223 142 68 22 58 125 227 248 265 132 189 208 132 210 221 350 320 312 366 293
4 4 7 8 11 12 8 8 8 6 7 5 6 7 5 4 2 0 2 59 106 74 34 164 39 39 34 30 192 266 268 238 203 0 57 83 109 216 318 249 303 300

ECMWFNIL_con_mucape_069.txt.gz
CAPE
317 386 556 721 899 1002 1046 1136 1167 1252 1206 1210 1296 1426 1447 1426 1347 1904 1772 1648 1644 1610 1593 1129 860 1310 1035 888 1117 1140 1197 996 1042 494 319 380 638 974 680 494 470 728
85 129 256 433 439 628 1152 1026 1226 1165 1303 1266 1098 1246 1363 1430 1588 1199 1383 1693 1714 1562 1413 1138 1288 1366 1206 994 1037 1039 1088 1214 514 530 339 389 734 702 878 782 703 454
8 16 104 302 463 537 743 1055 1127 1254 1279 1190 1166 1238 1108 1272 1302 1156 826 623 895 1583 1428 702 928 1492 766 1012 905 633 567 760 703 765 296 971 610 324 812 888 592 487
8 10 17 91 255 426 586 826 1226 1320 1229 1376 1357 1356 1486 1291 1296 1323 1394 947 557 763 954 503 502 736 939 897 796 822 480 388 382 663 423 432 240 763 713 837 867 479
4 7 8 17 69 167 367 737 1044 1246 1190 1213 1293 1402 1424 1286 1446 1464 1308 1339 1035 912 636 820 949 1009 992 705 668 700 812 734 626 767 861 527 296 197 283 1045 716 409
6 2 4 7 8 9 124 283 692 899 1080 1389 1359 1172 1384 1391 1376 1226 1022 1050 1089 623 1166 1393 1232 984 987 773 688 636 714 819 752 614 794 525 649 457 549 363 337 390
7 4 4 3 6 6 9 96 280 376 419 632 839 1239 1019 1066 1115 1051 1156 1100 919 837 1122 947 682 635 743 884 690 636 706 744 485 314 387 131 90 256 720 449 518 420
4 6 2 3 7 4 4 3 9 316 415 442 503 689 970 1132 1063 1110 1074 995 921 869 673 717 737 528 569 835 853 759 506 362 126 147 210 165 365 612 857 619 259 283
5 5 2 2 1 4 6 3 4 3 336 424 500 593 607 800 1042 988 981 993 883 833 806 904 634 962 1069 894 770 522 587 464 149 51 169 469 577 848 654 589 546 353
2 4 3 2 2 2 2 5 7 6 6 50 580 618 614 576 610 976 954 887 922 753 878 506 771 914 724 496 442 402 629 545 148 176 143 95 154 289 447 300 203 408
7 7 3 2 1 1 3 5 6 6 5 6 6 394 537 552 502 612 874 960 848 705 662 592 864 874 540 472 474 659 651 653 548 580 444 307 316 444 231 216 235 256
4 4 2 2 0 1 3 3 4 6 5 6 5 7 11 411 419 456 690 704 852 531 858 475 912 815 395 405 408 828 943 719 806 825 671 754 518 729 342 222 281 218
4 5 5 3 3 2 3 4 6 5 4 3 4 5 4 7 44 249 377 494 699 664 505 713 798 646 392 306 312 627 1180 1081 1018 867 750 540 601 700 583 369 300 521
3 4 4 1 1 3 3 6 4 4 1 1 3 3 3 1 2 2 183 438 575 505 440 417 348 863 475 506 459 860 889 938 958 998 770 531 561 716 683 842 315 320
5 4 6 4 2 6 2 1 3 2 1 1 2 2 2 0 0 1 3 258 242 392 544 394 492 533 315 271 571 571 420 696 871 628 610 622 563 641 775 704 488 346
4 7 7 7 7 5 3 2 2 4 2 1 1 2 1 2 1 50 16 237 292 313 311 366 343 359 318 215 244 312 270 496 442 365 504 419 510 518 372 320 568 447
4 6 7 6 8 6 6 5 2 5 4 2 1 1 2 2 1 6 81 4 248 329 333 363 348 331 332 360 348 366 416 501 426 500 553 580 632 562 405 545 466 464
6 3 4 5 4 6 5 4 6 3 4 3 2 1 2 1 3 5 26 197 270 315 323 286 325 366 320 354 339 394 410 328 282 430 674 698 630 806 1014 738 464 428
3 4 5 4 4 4 5 6 8 5 6 5 4 6 3 0 1 2 54 147 278 368 373 330 280 308 317 279 352 357 362 352 296 342 1027 1012 512 418 343 237 247 301
0 3 5 6 6 8 7 6 6 5 6 5 5 5 4 3 0 1 5 105 202 342 371 314 286 218 209 227 276 301 309 302 302 301 334 577 692 450 315 317 260 292
0 2 3 5 7 8 10 9 10 10 9 6 7 7 4 3 1 1 1 1 112 201 323 363 338 251 160 191 151 225 230 244 256 268 306 359 365 584 750 473 479 343
0 1 2 3 5 6 9 8 9 9 8 8 8 7 10 1 1 2 1 2 2 75 180 260 318 345 293 181 181 45 193 230 215 168 218 295 332 379 353 531 342 226
0 0 2 4 3 3 5 8 10 7 9 8 7 6 4 7 8 6 4 1 1 1 62 172 261 303 325 269 102 38 42 130 173 193 225 226 270 299 332 401 418 286
0 0 1 2 5 1 5 6 7 8 9 7 6 6 7 8 3 7 10 8 2 1 3 12 122 182 192 217 170 155 118 26 92 36 188 126 177 239 292 334 382 175
2 0 1 1 2 6 7 7 8 7 8 9 9 8 9 7 6 6 6 7 10 7 4 0 1 24 204 226 178 153 78 14 17 13 16 114 128 237 296 283 259 193
0 3 4 5 5 5 6 6 6 5 9 7 6 4 5 8 5 5 6 6 7 7 11 6 0 2 9 172 188 146 142 90 60 22 38 24 120 169 193 227 108 155

ECMWFNIL_con_mucape_072.txt.gz
CAPE
9 6 8 11 60 201 456 669 847 968 1069 1128 1166 1203 1153 1176 1390 1586 1725 1609 1166 917 939 1105 1003 917 778 764 787 738 816 758 734 697 629 589 573 499 541 565 655 495
10 8 12 15 18 42 110 211 423 728 981 1112 1146 1126 1193 1205 1299 1400 1554 1696 1445 1200 836 751 758 745 660 662 741 566 748 837 728 608 613 642 529 472 393 527 625 634
6 9 5 6 12 18 21 22 89 350 765 1134 1152 1118 1114 951 1050 1299 1357 1411 1546 1342 994 706 665 623 776 696 634 558 671 853 729 711 776 759 668 588 468 578 521 504
6 4 7 8 7 5 5 8 10 23 66 134 428 589 769 918 1130 1119 1229 1344 1442 1510 1233 898 733 738 740 699 666 674 786 833 831 724 678 598 678 657 587 504 485 429
6 2 3 5 7 3 2 2 2 1 0 0 27 417 603 718 807 835 1029 1145 1204 1290 1190 1014 1106 970 904 912 757 616 565 632 637 612 638 727 622 509 442 420 474 415
8 7 7 4 1 4 4 5 4 3 2 1 2 3 53 487 659 722 740 768 836 1026 992 811 726 642 623 462 500 608 690 605 656 573 547 657 610 495 404 368 415 408
6 5 1 0 5 7 7 6 5 6 8 9 9 11 8 6 188 532 622 696 659 692 662 655 643 611 516 488 607 424 434 557 583 534 471 428 464 377 310 312 359 328
6 5 2 7 3 3 7 5 6 8 8 6 4 4 7 9 8 36 300 517 490 610 652 670 695 590 477 433 388 336 510 516 553 530 412 383 395 399 449 390 346 309
6 4 3 2 0 3 2 3 4 6 7 6 4 6 5 3 3 4 6 295 359 400 839 616 555 632 577 493 400 305 291 343 456 551 498 407 456 481 510 466 327 222
4 3 4 5 2 2 1 2 5 6 6 6 4 6 4 6 4 0 0 0 62 287 336 619 499 507 467 432 313 279 452 571 561 577 608 524 470 364 317 292 224 144
3 4 4 4 2 2 4 2 4 4 5 2 2 2 2 1 1 2 3 3 2 3 206 342 450 459 444 401 356 451 532 523 420 315 473 485 335 282 283 272 222 250
4 4 4 4 4 4 5 4 4 4 4 4 2 1 1 1 0 0 2 5 9 24 74 77 386 417 379 344 382 408 408 341 356 356 384 398 335 238 254 235 365 372
2 3 6 6 6 6 8 6 4 3 2 2 2 1 1 1 1 0 2 4 7 31 29 76 182 274 312 322 280 293 331 340 357 347 365 375 391 323 348 258 250 305
1 3 4 7 8 7 7 8 5 4 4 4 4 2 2 1 1 1 1 2 4 4 29 128 149 179 197 252 1 2 203 359 338 338 396 494 449 280 335 410 360 243
2 2 5 5 6 5 5 6 6 6 6 5 3 3 5 1 1 0 0 1 5 8 10 77 166 202 144 2 1 1 2 2 196 331 452 456 462 520 402 324 200 192
0 0 1 4 4 4 5 7 6 7 8 4 3 4 0 2 1 0 1 2 3 4 8 19 66 109 4 20 242 278 38 244 274 260 168 244 293 363 404 420 431 352
0 2 1 1 4 4 5 4 3 7 8 8 10 6 5 5 2 0 1 0 0 2 3 11 53 122 124 149 147 17 2 201 180 223 276 304 325 324 252 252 371 427
0 0 0 1 2 2 3 5 6 5 4 5 10 12 8 2 1 0 0 0 1 0 4 12 16 45 125 173 194 202 193 203 162 130 42 295 314 275 251 180 388 373
0 0 1 1 0 1 3 6 7 5 5 6 8 10 12 12 8 3 0 1 2 1 0 2 9 5 41 86 214 214 195 178 225 202 215 293 344 302 210 284 304 348
0 0 0 1 0 0 2 3 4 8 10 11 10 8 6 4 1 14 4 1 2 0 2 4 3 0 1 19 104 187 186 188 160 155 93 131 250 289 267 218 324 353
0 0 2 0 0 1 2 0 4 7 10 10 9 10 9 9 4 6 10 14 9 7 5 6 4 0 0 0 0 0 25 154 65 144 61 94 10 10 216 59 186 187
0 0 0 1 0 0 0 1 3 2 4 8 3 9 8 10 11 10 6 5 7 19 12 7 6 2 0 0 0 0 0 0 19 165 156 6 8 18 15 100 264 249
0 0 0 0 1 1 0 0 3 2 3 6 3 1 6 0 12 10 7 4 2 5 5 5 4 1 0 0 0 0 0 0 54 25 10 10 7 10 11 65 234 306
0 1 0 0 1 2 0 0 0 3 2 7 6 2 2 2 2 2 2 4 1 0 3 1 1 0 0 0 0 0 0 1 4 6 54 84 34 6 4 10 95 238
0 0 0 0 0 2 0 0 0 0 2 0 3 2 2 2 2 3 1 6 1 0 0 0 0 0 0 0 0 0 0 1 3 5 48 137 94 66 34 6 40 131
0 0 0 0 0 0 0 0 0 0 0 3 2 3 2 3 1 5 4 3 1 3 0 0 0 0 0 0 0 0 0 0 2 2 2 7 100 95 62 31 16 79

ECMWFNIL_con_mucape_075.txt.gz
CAPE
0 6 14 14 11 2 1 2 1 2 12 30 194 62 85 509 600 725 714 759 727 710 705 660 735 616 598 608 624 636 614 659 703 582 672 539 638 686 660 680 636 252
0 0 7 4 1 0 0 0 3 3 1 2 12 52 94 219 445 593 635 674 666 604 648 715 760 794 720 589 488 486 534 553 572 570 615 560 491 586 690 553 503 548
0 0 0 0 0 2 1 0 0 0 0 0 0 0 9 2 11 19 472 524 601 608 593 576 545 530 549 566 499 486 544 624 625 614 534 386 325 281 190 274 459 479
0 0 0 0 0 0 0 0 1 3 2 1 0 0 0 0 0 2 28 102 429 596 542 511 447 435 412 424 415 401 430 447 492 518 543 514 455 169 110 279 411 362
0 0 0 0 0 0 0 0 1 4 5 5 4 3 1 0 0 0 0 23 302 375 444 435 417 349 370 400 409 460 456 402 387 410 452 491 443 348 382 458 428 401
0 0 0 0 0 0 0 0 1 9 11 8 5 6 4 0 0 0 0 0 0 26 189 285 356 326 396 423 414 385 411 427 431 418 396 388 384 361 380 488 565 540
0 0 0 0 0 0 0 0 0 8 10 6 2 2 1 0 0 1 0 0 3 6 2 6 37 103 362 370 357 368 351 400 435 397 351 338 313 308 336 424 516 448
0 0 0 0 0 0 0 0 0 4 9 5 1 1 0 1 2 2 3 4 8 6 1 0 1 147 213 284 284 296 353 352 328 291 320 359 378 365 323 376 466 378
0 0 0 0 0 0 0 0 0 3 9 4 2 1 0 0 1 1 3 4 3 2 1 1 0 1 98 153 258 313 357 370 158 334 366 396 398 420 420 386 360 400
0 0 0 0 0 0 0 0 0 2 5 2 0 1 0 0 0 1 3 2 2 1 6 0 1 0 13 1 205 306 319 322 304 348 262 310 308 310 308 306 317 424
0 0 0 0 0 1 1 1 1 1 4 3 0 0 0 0 0 0 1 1 2 2 6 2 2 2 2 1 54 113 221 145 283 269 4 52 182 214 273 328 370 433
0 0 0 0 0 2 5 6 6 4 3 4 0 0 0 0 0 0 1 1 1 1 10 2 2 2 3 2 3 3 0 0 120 2 4 5 9 183 273 297 290 274
0 0 0 0 0 0 4 5 6 10 7 4 4 2 0 0 0 0 1 0 0 1 7 4 1 1 1 0 1 2 24 1 1 0 0 4 4 6 237 299 330 321
0 0 0 0 0 0 1 1 2 1 2 8 12 5 3 3 2 0 0 1 0 3 6 9 1 2 3 2 1 1 1 0 0 1 1 28 1 3 62 159 359 373
0 0 0 0 0 0 0 0 0 0 0 0 2 6 15 9 5 4 2 1 0 1 7 10 5 4 3 2 2 0 0 0 0 0 1 1 2 2 4 59 128 223
0 0 0 0 0 0 0 0 0 1 1 0 0 0 1 9 14 14 11 4 0 1 12 13 5 2 3 0 0 1 1 0 0 13 33 0 2 2 3 12 153 166
0 0 0 0 0 0 0 0 0 0 3 3 1 1 2 5 2 5 11 9 2 3 10 17 7 0 0 0 0 0 0 0 0 1 58 130 180 3 4 4 12 189
0 0 0 0 0 0 0 0 0 0 1 4 3 4 7 8 3 1 2 1 1 0 1 5 3 0 0 0 0 0 0 0 0 1 4 44 109 158 54 7 7 14
0 0 0 0 0 0 0 0 0 0 0 1 1 3 4 7 2 0 0 0 0 0 0 0 1 0 0 0 0 0 0 0 1 1 3 11 7 10 15 17 17 16
0 0 0 0 0 0 0 0 0 0 0 0 0 1 0 2 0 0 0 0 0 0 0 0 0 0 0 0 0 0 0 0 1 2 2 3 2 8 12 9 8 13
0 0 0 0 0 0 0 0 0 0 0 0 0 0 0 0 0 0 0 0 0 0 0 0 0 0 0 0 0 0 0 0 1 2 2 2 6 10 8 9 9 5
0 0 0 0 0 0 0 0 0 0 0 0 0 0 0 0 0 0 0 0 0 0 0 0 0 0 0 0 0 0 0 0 1 1 1 2 4 3 5 7 9 106
0 0 0 0 0 0 0 0 0 0 0 0 0 0 0 0 0 0 0 0 0 0 0 0 0 0 0 0 0 0 0 0 0 1 2 2 2 2 3 5 5 8
0 0 0 0 0 0 0 0 0 0 0 0 0 0 0 0 0 0 0 0 0 0 0 0 0 0 0 0 0 0 0 0 0 0 2 2 1 2 3 3 4 8
0 0 0 0 0 0 0 0 0 0 0 0 0 0 0 0 0 0 0 0 0 4 2 0 0 0 0 0 0 0 0 0 0 1 2 1 1 1 1 2 3 3
0 0 0 0 0 0 0 0 0 0 0 0 0 0 0 0 0 0 0 0 0 0 3 2 0 0 0 0 0 0 0 0 0 1 1 2 1 3 2 1 4 40

ECMWFNIL_con_mucape_078.txt.gz
CAPE
0 0 0 0 0 0 0 0 0 0 0 0 1 0 13 38 57 282 398 401 389 371 436 314 368 517 472 362 370 388 374 364 312 177 254 312 331 343 373 395 425 335
0 0 0 0 0 0 0 0 0 0 0 0 0 0 1 0 0 6 74 182 229 318 29 232 291 481 472 345 298 312 227 144 149 154 197 216 248 270 284 292 305 205
0 0 0 0 0 0 0 0 3 0 0 0 0 0 0 0 0 0 0 0 18 4 236 311 446 463 416 306 254 203 204 186 143 142 145 160 170 195 236 238 224 274
0 0 0 0 0 0 0 2 4 1 0 0 0 0 0 0 0 0 0 0 0 0 0 0 0 106 348 351 264 140 80 35 97 121 155 182 202 216 286 206 265 272
0 0 0 0 0 0 0 2 3 0 0 0 0 0 0 0 0 1 0 0 4 0 0 0 0 1 1 205 235 231 176 122 33 8 41 127 179 174 195 189 190 172
0 0 0 0 0 0 0 2 0 0 0 0 0 0 0 1 1 0 0 0 1 1 1 0 0 0 9 7 38 76 106 129 127 75 1 3 59 229 236 248 258 255
0 0 0 0 0 0 0 0 0 0 0 0 0 0 0 0 0 0 0 2 2 2 1 1 0 0 0 0 1 2 14 35 53 71 1 1 9 69 179 280 297 314
0 0 0 0 0 0 0 0 0 0 0 0 0 0 0 0 0 0 0 0 0 4 2 0 1 0 0 0 0 0 2 6 5 48 92 111 2 25 77 124 317 330
0 0 0 0 1 3 2 2 1 0 0 0 0 0 0 0 0 0 0 0 1 2 1 0 1 0 1 1 0 0 0 0 2 3 17 33 2 2 3 1 34 236
0 0 0 0 0 1 2 2 2 4 2 0 0 0 0 0 0 0 0 0 2 2 2 2 0 1 0 0 0 1 0 0 0 0 0 1 1 1 2 3 2 11
0 0 0 0 0 0 0 0 0 1 10 6 0 0 0 0 0 0 0 1 4 2 2 1 1 1 1 0 0 0 1 1 1 1 0 0 1 2 3 4 4 3
0 0 0 0 0 0 0 0 0 0 0 1 9 7 4 0 0 0 0 1 4 2 2 0 0 0 0 0 0 1 1 1 2 1 0 0 0 0 1 3 5 4
0 0 0 0 0 0 0 0 0 0 0 0 0 0 1 2 1 0 0 0 2 3 3 2 0 0 0 0 0 0 1 1 1 0 0 0 0 0 0 0 1 3
0 0 0 0 0 0 0 0 0 0 0 0 0 0 0 0 0 0 0 0 1 4 5 2 0 0 0 0 0 0 1 1 1 0 0 0 0 0 0 0 0 2
0 0 0 0 0 0 0 0 0 0 0 0 0 0 0 0 0 0 0 0 0 2 3 1 0 0 1 1 0 0 0 0 1 0 0 1 1 1 0 0 7 18
0 0 0 0 0 0 0 0 0 0 0 0 0 0 0 0 0 0 0 0 0 0 3 2 0 0 1 0 0 0 0 0 1 1 2 2 3 4 8 8 6 6
0 0 0 0 0 0 0 0 0 0 0 0 0 0 0 0 0 0 0 0 0 0 0 0 0 0 0 0 0 0 0 0 2 0 1 2 2 6 9 8 6 4
0 0 0 0 0 0 0 0 0 0 0 0 0 0 0 0 0 0 0 0 0 0 0 0 0 0 0 0 0 0 0 0 0 0 2 2 3 3 6 6 5 5
0 0 0 0 0 0 0 0 0 0 0 0 0 0 0 0 0 0 0 0 0 0 0 0 0 0 0 0 0 0 0 0 0 2 2 2 2 2 5 4 4 6
0 0 0 0 0 0 0 0 0 0 0 0 0 0 0 0 0 0 0 0 0 0 0 0 0 0 0 0 0 0 0 0 0 2 4 2 1 1 2 5 6 6
0 0 0 0 0 0 0 0 0 0 0 0 0 0 0 0 0 0 0 0 0 0 0 0 0 0 0 0 0 0 0 0 0 0 1 2 0 0 2 3 3 6
0 0 0 0 0 0 0 0 0 0 0 0 0 0 0 0 0 0 0 0 0 0 0 0 0 0 0 0 0 0 0 0 0 1 0 1 0 0 1 2 2 5
0 0 0 0 0 0 0 0 0 0 0 0 0 0 0 0 0 0 0 0 0 0 0 0 0 0 0 0 0 0 0 0 0 0 0 1 0 1 2 2 2 6
0 0 0 0 0 0 0 0 0 0 0 0 0 0 0 0 0 0 0 0 0 0 0 0 0 0 0 0 0 0 0 0 0 0 0 2 1 1 0 0 3 11
0 0 0 0 0 0 0 0 0 0 0 0 0 0 0 0 0 0 0 0 0 0 0 0 0 0 0 0 0 0 0 0 0 0 0 1 2 1 0 0 0 4
0 0 0 0 0 0 0 0 0 0 0 0 0 0 0 0 0 0 0 0 0 0 0 0 0 0 0 0 0 0 0 0 0 0 1 1 0 3 2 1 1 0

ECMWFNIL_con_mucape_081.txt.gz
CAPE
0 0 0 0 0 0 0 0 0 0 0 0 0 0 0 0 0 0 8 20 0 29 105 133 129 169 215 263 358 448 430 300 20 161 103 146 186 207 258 276 283 278
0 0 0 0 0 0 0 0 0 0 0 0 0 0 0 0 0 0 0 0 0 0 0 0 0 29 83 132 176 225 289 303 261 102 5 19 125 222 223 228 224 220
0 0 0 0 0 0 0 0 0 0 0 0 0 0 0 0 0 0 0 0 0 0 0 0 0 0 0 0 0 1 96 25 141 112 91 47 18 9 123 222 230 206
0 0 0 0 0 0 0 0 0 0 0 0 0 0 0 0 0 1 0 0 0 0 0 0 0 0 0 0 0 0 2 0 3 5 16 30 36 31 19 16 90 175
0 0 0 0 0 0 0 0 0 0 0 0 0 0 0 0 0 0 0 1 1 0 0 0 0 0 0 0 0 0 1 0 1 1 1 2 4 6 13 12 5 23
0 0 0 0 0 0 0 0 0 0 0 0 0 0 0 0 0 0 0 0 1 1 0 0 0 0 0 0 0 0 0 1 1 1 0 0 2 3 5 6 6 6
0 0 0 0 0 0 0 0 0 0 0 0 0 0 0 0 0 0 0 2 2 0 0 0 0 0 0 0 0 0 0 1 1 1 1 1 2 1 2 4 4 6
0 0 0 0 0 1 4 0 0 0 0 0 0 0 0 0 0 0 1 2 2 0 0 0 0 0 0 0 0 0 0 2 1 2 2 2 2 1 0 2 3 3
0 0 0 0 0 0 0 1 4 1 0 0 0 0 0 0 0 0 2 4 3 0 0 0 0 0 0 0 0 0 1 1 2 1 1 1 1 0 0 0 0 2
0 0 0 0 0 0 0 0 0 0 0 0 0 0 0 0 0 0 0 3 1 0 0 0 0 0 0 0 0 1 2 2 1 0 0 0 0 0 0 0 0 0
0 0 0 0 0 0 0 0 0 0 0 0 0 0 0 0 0 0 0 0 0 0 0 0 0 0 0 0 0 1 1 1 0 0 0 1 1 0 1 0 0 0
0 0 0 0 0 0 0 0 0 0 0 0 0 0 0 0 0 0 0 0 0 0 0 0 0 0 0 0 0 0 0 0 0 0 0 0 1 0 2 3 2 1
0 0 0 0 0 0 0 0 0 0 0 0 0 0 0 0 0 0 0 0 0 0 0 0 0 0 0 0 0 0 0 0 1 0 2 0 1 2 2 4 6 8
0 0 0 0 0 0 0 0 0 0 0 0 0 0 0 0 0 0 0 0 0 0 0 0 0 0 0 0 0 0 0 0 1 3 3 3 2 1 1 2 2 3
0 0 0 0 0 0 0 0 0 0 0 0 0 0 0 0 0 0 0 0 0 0 0 0 0 0 0 1 0 0 0 0 3 2 2 2 1 1 1 1 1 2
0 0 0 0 0 0 0 0 0 0 0 0 0 0 0 0 0 0 0 0 0 0 0 0 0 0 0 0 0 0 0 0 1 2 4 2 1 0 0 1 2 2
0 0 0 0 0 0 0 0 0 0 0 0 0 0 0 0 0 0 0 0 0 0 0 0 0 0 0 0 0 0 0 0 0 0 0 2 0 0 0 1 2 1
0 0 0 0 0 0 0 0 0 0 0 0 0 0 0 0 0 0 0 0 0 0 0 0 0 0 0 0 0 0 0 0 0 0 0 0 0 0 1 2 2 2
0 0 0 0 0 0 0 0 0 0 0 0 0 0 0 0 0 0 0 0 0 0 0 0 0 0 0 0 0 0 0 0 0 0 0 0 0 1 1 2 2 3
0 0 0 0 0 0 0 0 0 0 0 0 0 0 0 0 0 0 0 0 0 0 0 0 0 0 0 0 0 0 0 0 0 0 0 0 0 1 3 3 2 2
0 0 0 0 0 0 0 0 0 0 0 0 0 0 0 0 0 0 0 0 0 0 0 0 0 0 0 0 0 0 0 0 0 0 0 0 0 0 2 2 2 2
0 0 0 0 0 0 0 0 0 0 0 0 0 0 0 0 0 0 0 0 0 0 0 0 0 0 0 0 0 0 0 0 0 0 0 0 0 0 1 2 1 2
0 0 0 0 0 0 0 0 0 0 0 0 0 0 0 0 0 0 0 0 0 0 0 0 0 0 0 0 0 0 0 0 0 0 0 0 0 0 2 2 1 4
0 0 0 0 0 0 0 0 0 0 0 0 0 0 0 0 0 0 0 0 0 0 0 0 0 0 0 0 0 0 0 0 0 0 0 0 0 1 1 2 2 12
0 0 0 0 0 0 0 0 0 0 0 0 0 0 0 0 0 0 0 0 0 0 0 0 0 0 0 0 0 0 0 0 0 0 0 0 0 0 0 1 0 3
0 0 0 0 0 0 0 0 0 0 0 0 0 0 0 0 0 0 0 0 0 0 0 0 0 0 0 0 0 0 0 0 0 0 0 0 0 1 0 0 0 0

ECMWFNIL_con_mucape_084.txt.gz
CAPE
0 0 0 0 0 0 0 0 0 0 0 0 0 0 0 0 0 1 0 0 0 0 0 0 0 0 0 0 0 1 1 2 1 0 2 3 9 25 47 46 22 139
0 0 0 0 0 0 0 0 0 0 0 0 0 0 0 0 0 0 1 0 0 0 0 0 0 0 0 0 0 0 0 0 2 2 2 3 4 4 3 6 8 15
0 0 0 0 0 0 0 0 0 0 0 0 0 0 0 0 0 0 1 0 0 0 0 0 0 0 0 0 0 0 0 1 2 1 2 4 3 6 5 6 7 7
0 0 0 0 0 0 0 0 0 0 0 0 0 0 0 0 0 0 0 0 0 0 0 0 0 0 0 0 0 0 1 2 2 2 2 2 3 4 4 5 7 5
0 0 0 0 0 0 0 0 0 0 0 0 0 0 0 0 0 0 0 0 0 0 0 0 0 0 0 0 0 0 1 2 2 1 0 0 1 2 2 3 3 2
0 0 0 0 0 0 0 0 0 0 0 0 0 0 0 0 2 1 0 0 0 0 0 0 0 0 0 0 0 1 1 0 0 0 0 0 0 0 0 1 1 1
0 0 0 0 0 0 0 0 0 0 0 0 0 0 0 0 2 1 0 0 0 0 0 0 0 0 0 0 0 0 0 0 0 0 0 0 0 0 0 0 1 1
0 0 0 0 0 0 0 0 0 0 0 0 0 0 0 0 0 0 0 0 0 0 0 0 0 0 0 0 1 2 2 3 1 0 1 1 0 0 0 0 1 0
0 0 0 0 0 0 0 0 0 0 0 0 0 0 0 0 0 0 0 0 0 0 0 0 0 0 0 0 1 2 1 2 2 2 2 2 1 2 2 2 2 3
0 0 0 0 0 0 0 0 0 0 0 0 0 0 0 0 0 0 0 0 0 0 0 0 0 0 0 0 0 1 0 1 2 2 3 3 3 2 3 2 2 3
0 0 0 0 0 0 0 0 0 0 0 0 0 0 0 0 0 0 0 0 0 0 0 0 0 0 0 0 0 0 0 1 2 3 2 3 3 1 3 2 2 3
0 0 0 0 0 0 0 0 0 0 0 0 0 0 0 0 0 0 0 0 0 0 0 0 0 0 0 0 0 0 0 0 1 2 2 3 2 0 0 1 2 2
0 0 0 0 0 0 0 0 0 0 0 0 0 0 0 0 0 0 0 0 0 0 0 0 0 0 0 0 0 0 0 0 0 0 0 1 0 0 0 1 2 2
0 0 0 0 0 0 0 0 0 0 0 0 0 0 0 0 0 0 0 0 0 0 0 0 0 0 0 0 0 0 0 0 0 0 0 0 0 0 1 1 1 2
0 0 0 0 0 0 0 0 0 0 0 0 0 0 0 0 0 0 0 0 0 0 0 0 0 0 0 0 0 0 0 0 0 0 0 0 0 1 2 2 2 2
0 0 0 0 0 0 0 0 0 0 0 0 0 0 0 0 0 0 0 0 0 0 0 0 0 0 0 0 0 0 0 0 0 0 0 0 0 1 1 2 3 2
0 0 0 0 0 0 0 0 0 0 0 0 0 0 0 0 0 0 0 0 0 0 0 0 0 0 0 0 0 0 0 0 0 0 0 0 0 2 1 2 2 2
0 0 0 0 0 0 0 0 0 0 0 0 0 0 0 0 0 0 0 0 0 0 0 0 0 0 0 0 0 0 0 0 0 0 0 0 0 1 2 4 2 3
0 0 0 0 0 0 0 0 0 0 0 0 0 0 0 0 0 0 0 0 0 0 0 0 0 0 0 0 0 0 0 0 0 0 0 0 0 1 2 2 2 3
0 0 0 0 0 0 0 0 0 0 0 0 0 0 0 0 0 0 0 0 0 0 0 0 0 0 0 0 0 0 0 0 0 0 0 0 0 1 3 1 2 3
0 0 0 0 0 0 0 0 0 0 0 0 0 0 0 0 0 0 0 0 0 0 0 0 0 0 0 0 0 0 0 0 0 0 0 0 0 0 2 0 2 1
0 0 0 0 0 0 0 0 0 0 0 0 0 0 0 0 0 0 0 0 0 0 0 0 0 0 0 0 0 0 0 0 0 0 0 0 0 0 1 0 2 1
0 0 0 0 0 0 0 0 0 0 0 0 0 0 0 0 0 0 0 0 0 0 0 0 0 0 0 0 0 0 0 0 0 0 0 0 0 0 0 1 1 2
0 0 0 0 0 0 0 0 0 0 0 0 0 0 0 0 0 0 0 0 0 0 0 0 0 0 0 0 0 0 0 0 0 0 0 0 0 0 0 0 1 6
0 0 0 0 0 0 0 0 0 0 0 0 0 0 0 0 0 0 0 0 0 0 0 0 0 0 0 0 0 0 0 0 0 0 0 0 0 0 0 0 0 0
0 0 0 0 0 0 0 0 0 0 0 0 0 0 0 0 0 0 0 0 0 0 0 0 0 0 0 0 0 0 0 0 0 0 0 0 0 0 0 0 0 0

ECMWFNIL_con_mucape_087.txt.gz
CAPE
0 0 0 0 0 0 0 0 0 0 0 1 1 2 3 4 0 0 0 0 0 0 0 0 0 0 0 0 0 0 0 1 2 1 1 4 3 5 4 4 4 5
0 0 0 0 0 0 0 0 0 0 1 1 2 2 3 0 0 0 0 0 0 0 0 0 0 0 0 0 0 0 0 1 2 2 2 2 2 2 2 3 5 5
0 0 0 0 0 0 0 0 0 0 0 1 2 2 1 0 0 0 0 0 0 0 0 0 0 0 0 0 0 0 1 1 1 1 2 2 2 2 2 3 4 5
0 0 1 1 0 0 0 0 0 0 0 0 1 1 0 0 0 0 0 0 0 0 0 0 0 0 0 0 0 0 0 1 1 2 2 2 3 4 4 4 5 5
4 4 3 2 1 0 0 0 0 0 0 0 1 0 0 0 0 0 0 0 0 0 0 0 0 0 0 0 0 0 0 0 1 1 1 2 2 2 3 3 3 3
6 6 6 5 2 1 0 0 0 0 0 0 0 0 0 0 0 0 0 0 0 0 0 0 0 0 0 0 0 0 0 0 1 1 1 0 1 2 3 4 2 2
1 1 0 0 0 0 0 0 0 0 0 0 0 0 0 0 0 0 0 0 0 0 0 0 0 0 0 0 0 0 0 0 0 0 0 0 0 0 0 0 2 2
0 0 0 0 0 0 0 0 0 0 0 0 0 0 0 0 0 0 0 0 0 0 0 0 0 0 0 0 0 0 0 0 0 0 0 0 0 0 0 0 0 0
0 0 0 0 0 0 0 0 0 0 0 0 0 0 0 0 0 0 0 0 0 0 0 0 0 0 0 0 0 0 0 0 0 0 0 0 0 0 0 0 0 1
0 0 0 0 0 0 0 0 0 0 0 0 0 0 0 0 0 0 0 0 0 0 0 0 0 0 0 0 0 0 0 0 0 0 0 0 0 0 0 0 0 2
0 0 0 0 0 0 0 0 0 0 0 0 0 0 0 0 0 0 0 0 0 0 0 0 0 0 0 0 0 0 0 0 0 0 0 0 0 0 0 0 0 1
0 0 0 0 0 0 0 0 0 0 0 0 0 0 0 0 0 0 0 0 0 0 0 0 0 0 0 0 0 0 0 0 0 0 0 0 0 0 0 0 2 1
0 0 0 0 0 0 0 0 0 0 0 0 0 0 0 0 0 0 0 0 0 0 0 0 0 0 0 0 0 0 0 0 0 0 0 0 0 0 0 0 0 1
0 0 0 0 0 0 0 0 0 0 0 0 0 0 0 0 0 0 0 0 0 0 0 0 0 0 0 0 0 0 0 0 0 0 0 0 0 0 0 0 0 0
0 0 0 0 0 0 0 0 0 0 0 0 0 0 0 0 0 0 0 0 0 0 0 0 0 0 0 0 2 0 0 0 0 0 0 0 0 0 0 0 1 2
0 0 0 0 0 0 0 0 0 0 0 0 0 0 0 0 0 0 0 0 0 0 0 1 1 1 0 0 0 0 0 0 0 0 0 0 0 0 0 0 0 2
0 0 0 0 0 0 0 0 0 0 0 0 0 0 0 0 0 0 0 0 0 0 1 1 3 0 0 0 0 0 0 0 0 0 0 0 0 0 0 0 0 1
0 0 0 0 0 0 0 0 0 0 0 0 0 0 0 0 0 0 0 0 0 0 1 3 4 0 0 0 0 0 0 0 0 0 0 0 0 0 0 2 1 2
0 0 0 0 0 0 0 0 0 0 0 0 0 0 0 0 0 0 0 0 0 2 3 3 1 0 0 0 0 0 0 0 0 0 0 0 1 1 0 2 2 0
0 0 0 0 0 0 0 0 0 0 0 0 0 0 0 0 0 0 0 0 1 4 4 1 1 0 0 0 0 0 0 0 0 0 0 0 0 0 2 0 2 0
0 0 0 0 0 0 0 0 0 0 0 0 0 0 0 0 0 0 0 0 2 3 0 0 2 0 0 0 0 0 0 0 0 0 0 0 0 0 0 1 0 0
0 0 0 0 0 0 0 0 0 0 0 0 0 0 0 0 0 0 0 0 2 2 0 0 0 0 0 0 0 0 0 0 0 0 0 0 0 0 0 0 0 0
0 0 0 0 0 0 0 0 0 0 0 0 0 0 0 0 0 0 0 0 1 2 1 0 0 0 0 0 0 0 0 0 0 0 0 0 0 0 0 0 0 0
0 0 0 0 0 0 0 0 0 0 0 0 0 0 0 0 0 0 0 0 0 0 0 1 0 0 0 0 0 0 0 0 0 0 0 0 0 0 0 0 0 0
0 0 0 0 0 0 0 0 0 0 0 0 0 0 0 0 0 0 0 0 0 0 0 0 2 1 0 0 0 0 0 2 1 0 0 0 0 0 0 0 0 0
0 0 0 0 0 0 0 0 0 0 0 0 0 0 0 0 0 0 0 0 0 0 0 0 0 2 0 0 0 0 0 1 5 1 1 2 0 0 0 0 0 0

ECMWFNIL_con_mucape_090.txt.gz
CAPE
258 12 1 2 1 2 4 4 3 4 3 3 4 0 0 0 0 0 0 0 0 0 0 0 0 0 0 0 0 0 0 0 0 0 0 2 2 3 3 4 6 5
228 5 3 4 2 2 3 3 4 5 5 5 4 0 0 0 0 0 0 0 0 0 0 0 0 0 0 0 0 0 0 0 0 0 0 0 0 0 1 3 3 3
7 6 6 4 4 5 4 3 5 4 5 3 1 0 0 0 0 0 0 0 0 0 0 0 0 0 0 0 0 0 0 0 0 0 0 0 0 0 0 2 3 4
6 5 3 3 4 2 3 2 2 2 3 1 0 0 0 0 0 0 0 0 0 0 0 0 0 0 0 0 0 0 0 0 0 0 0 0 0 0 0 0 0 1
8 6 4 2 2 0 0 1 0 0 0 0 0 0 0 0 0 0 0 0 0 0 0 0 0 0 0 0 0 0 0 0 0 0 0 0 0 1 0 1 0 1
4 1 0 0 0 0 0 0 0 0 0 0 0 0 0 0 0 0 0 0 0 0 0 0 0 0 0 0 0 0 0 0 0 0 0 0 0 0 0 2 0 0
3 0 0 0 0 0 0 0 0 0 0 0 0 0 0 0 0 0 0 0 0 0 0 0 0 0 0 0 0 0 0 0 0 0 0 0 0 0 0 0 0 0
0 0 0 0 0 0 0 0 0 0 0 0 0 0 0 0 0 0 0 0 0 0 0 0 0 0 0 0 0 0 0 0 0 0 0 0 0 0 0 0 2 0
0 0 0 0 0 0 0 0 0 0 0 0 0 0 0 0 0 0 0 0 0 0 0 0 0 0 0 0 0 0 0 0 0 0 0 0 0 0 0 0 0 2
0 0 0 0 0 0 0 0 0 0 0 0 0 0 0 0 0 0 0 0 0 0 0 0 0 0 0 0 0 0 0 0 0 0 0 0 0 0 0 0 0 0
0 0 0 0 0 0 0 0 0 0 0 0 0 0 0 0 0 0 0 0 0 0 0 0 0 0 0 0 0 0 0 0 0 0 0 0 0 0 0 0 0 0
0 0 0 0 0 0 0 0 0 0 0 0 0 0 0 0 0 0 0 0 0 0 0 0 0 0 0 0 0 0 0 0 0 0 0 0 0 0 0 0 0 0
0 0 0 0 0 0 0 0 0 0 0 0 0 0 0 0 0 0 0 0 0 0 0 0 0 0 0 0 0 0 0 0 0 0 0 0 0 0 0 0 0 0
0 0 0 0 0 0 0 0 0 0 0 0 0 0 0 0 0 0 0 0 0 0 0 0 0 0 0 0 0 0 0 0 0 0 0 0 0 0 0 0 0 0
0 0 0 0 0 0 0 0 0 0 0 0 0 0 0 0 0 0 0 0 0 0 0 0 0 0 0 0 0 0 0 0 0 0 0 0 0 0 0 0 0 3
0 0 0 0 0 0 0 0 0 0 0 0 0 0 0 0 0 0 0 0 0 0 0 0 0 0 0 0 0 0 0 0 0 0 0 0 0 0 0 0 0 0
0 0 0 0 0 0 0 0 0 0 0 0 0 0 0 0 0 0 0 0 0 0 0 0 0 0 0 0 0 0 0 0 0 0 0 0 0 0 0 0 0 0
0 0 0 0 0 0 0 0 0 0 0 0 0 0 0 0 0 0 0 0 0 0 0 0 0 0 0 0 0 0 0 0 0 0 0 0 0 0 0 0 2 3
0 0 0 0 0 0 0 0 0 0 0 0 0 0 0 0 0 0 0 0 0 0 0 0 0 0 0 0 0 0 0 0 0 0 0 0 0 5 5 3 4 3
0 0 0 0 0 0 0 0 0 0 0 0 0 0 0 0 0 0 0 0 0 0 0 0 0 0 0 0 0 0 0 0 0 0 0 1 3 4 4 4 5 5
0 0 0 0 0 0 0 0 0 0 0 0 0 0 0 0 0 0 0 0 0 0 0 0 0 0 0 0 0 0 0 0 0 0 0 0 0 3 4 7 4 4
0 0 0 0 0 0 0 0 0 0 0 0 0 0 0 0 0 0 0 0 0 0 0 0 0 0 0 0 0 0 0 0 0 0 0 0 0 1 1 6 6 3
0 0 0 0 0 0 0 0 0 0 0 0 0 0 0 0 0 0 0 0 0 0 1 0 0 0 0 0 0 0 0 1 0 0 0 0 0 0 0 4 4 0
0 0 0 0 0 0 0 0 0 0 0 0 0 0 0 0 0 0 0 0 0 0 0 0 0 0 0 0 0 0 0 0 0 0 0 0 0 0 0 0 3 4
0 0 0 0 0 0 0 0 0 0 0 0 0 0 0 0 0 0 0 0 0 0 0 0 0 0 0 0 0 0 0 0 0 0 0 0 0 0 0 0 0 0
0 0 0 0 0 0 0 0 0 0 0 0 0 0 0 0 0 0 0 0 0 0 0 0 0 0 0 0 0 0 0 0 0 0 0 0 0 0 0 0 0 0

ECMWFNIL_con_mucape_093.txt.gz
CAPE
291 251 261 260 4 4 5 4 4 5 2 0 0 0 0 0 0 0 0 0 0 0 0 0 0 0 0 0 0 0 0 0 0 0 0 0 0 1 1 2 2 1
205 233 257 243 233 119 5 5 5 3 1 0 0 0 0 0 0 0 0 0 0 0 0 0 0 0 0 0 0 0 0 0 0 0 0 0 0 0 0 2 1 1
6 6 4 6 6 6 6 6 5 2 0 0 0 0 0 0 0 0 0 0 0 0 0 0 0 0 0 0 0 0 0 0 0 0 0 0 0 0 0 1 0 2
6 6 4 4 4 4 3 4 2 1 0 0 0 0 0 0 0 0 0 0 0 0 0 0 0 0 0 0 0 0 0 0 0 0 0 0 0 0 0 0 0 0
3 5 4 4 4 2 2 0 0 0 0 0 0 0 0 0 0 0 0 0 0 0 0 0 0 0 0 0 0 0 0 0 0 0 0 0 0 0 0 1 0 1
2 0 0 0 0 1 0 0 0 0 0 0 0 0 0 0 0 0 0 0 0 0 0 0 0 0 0 0 0 0 0 0 0 0 0 0 0 0 0 0 0 0
0 0 0 0 1 1 0 0 0 0 0 0 0 0 0 0 0 0 0 0 0 0 0 0 0 0 0 0 0 0 0 0 0 0 0 0 0 0 0 0 0 0
0 0 0 2 0 0 0 0 0 0 0 0 0 0 0 0 0 0 0 0 0 0 0 0 0 0 0 0 0 0 0 0 0 0 0 0 0 0 0 0 2 0
0 1 2 1 0 0 0 0 0 0 0 0 0 0 0 0 0 0 0 0 0 0 0 0 0 0 0 0 0 0 0 0 0 0 0 0 0 0 0 2 2 1
0 0 0 0 0 0 0 0 0 0 0 0 0 0 0 0 0 0 0 0 0 0 0 0 0 0 0 0 0 0 0 0 0 0 0 0 0 1 2 1 1 1
0 1 0 0 0 0 0 0 0 0 0 0 0 0 0 0 0 0 0 0 0 0 0 0 0 0 0 0 0 0 0 0 0 0 0 0 2 0 4 1 2 0
0 0 0 0 0 0 0 0 0 0 0 0 0 0 0 0 0 0 0 0 0 0 0 0 0 0 0 0 0 0 0 0 0 0 0 0 0 2 0 0 0 0
0 0 0 0 0 0 0 0 0 0 0 0 0 0 0 0 0 0 0 0 0 0 0 0 0 0 0 0 0 0 0 0 0 0 0 0 0 0 0 0 0 0
0 0 0 0 0 0 0 0 0 0 0 0 0 0 0 0 0 0 0 0 0 0 0 0 0 0 0 0 0 0 0 0 0 0 0 0 0 0 1 2 0 0
0 0 0 0 0 0 0 0 0 0 0 0 0 0 0 0 0 0 0 0 0 0 0 0 0 0 0 0 0 0 0 0 0 0 0 0 0 0 0 0 0 0
0 0 0 0 0 0 0 0 0 0 0 0 0 0 0 0 0 0 0 0 0 0 0 0 0 0 0 0 0 0 0 0 0 0 0 0 0 0 0 0 0 0
0 0 0 0 0 0 0 0 0 0 0 0 0 0 0 0 0 0 0 0 0 0 0 0 0 0 0 0 0 0 0 0 0 0 0 0 0 0 0 0 0 0
0 0 0 0 0 0 0 0 0 0 0 0 0 0 0 0 0 0 0 0 0 0 0 0 0 0 0 0 0 0 0 0 0 0 0 0 0 0 0 0 0 0
0 3 0 0 0 0 0 0 0 0 0 0 0 0 0 0 0 0 0 0 0 0 0 0 0 0 0 0 0 0 0 0 0 0 0 0 0 0 0 0 0 0
0 0 0 0 0 0 0 0 0 0 0 0 0 0 0 0 0 0 0 0 0 0 0 0 0 0 0 0 0 0 0 0 0 0 1 0 0 0 0 0 0 0
0 0 0 0 0 0 0 0 0 0 0 0 0 0 0 0 0 0 0 0 0 0 0 0 0 0 0 0 0 0 0 0 0 2 0 0 0 0 0 0 0 0
0 0 0 0 0 0 0 0 0 0 0 0 0 0 0 0 0 0 0 0 1 0 0 0 0 0 0 0 0 0 0 0 0 0 0 0 0 0 0 0 0 0
0 0 0 0 0 0 0 0 0 0 0 0 0 0 0 0 0 0 0 0 0 0 0 0 0 0 0 0 0 0 0 0 0 0 0 0 0 0 0 0 0 0
0 0 0 0 0 0 0 0 0 0 0 0 0 0 0 0 0 0 0 0 0 0 0 0 0 0 0 0 0 0 0 0 0 0 0 0 0 0 0 0 0 0
0 0 0 0 0 0 0 0 0 0 0 0 0 0 0 0 0 0 0 0 0 0 0 0 0 0 0 0 0 0 0 0 0 0 0 0 0 0 0 0 0 0
0 0 0 0 0 0 0 0 0 0 0 0 0 0 0 0 0 0 0 0 0 0 0 0 0 0 0 0 0 0 0 0 0 0 0 0 0 0 0 0 0 0

ECMWFNIL_con_mucape_096.txt.gz
CAPE
1 4 0 10 38 146 18 18 8 7 2 1 0 0 0 0 0 0 0 0 0 0 0 0 0 0 0 0 0 0 0 0 0 0 0 0 0 0 1 0 0 0
1 4 3 6 5 65 75 11 9 3 1 0 0 0 0 0 0 0 0 0 0 0 0 0 0 0 0 0 0 0 0 0 0 0 0 0 0 0 0 1 0 0
7 9 9 8 10 10 10 10 6 0 0 0 0 0 0 0 0 0 0 0 0 0 0 0 0 0 0 0 0 0 0 0 0 0 0 0 0 0 0 0 0 0
10 9 8 5 6 5 8 4 2 0 0 0 0 0 0 0 0 0 0 0 0 0 0 0 0 0 0 0 0 0 0 0 0 0 0 0 0 0 0 0 0 0
11 8 7 8 7 6 5 1 0 0 0 0 0 0 0 0 0 0 0 0 0 0 0 0 0 0 0 0 0 0 0 0 0 0 0 0 0 0 0 0 0 0
7 1 1 2 4 2 1 0 0 0 0 0 0 0 0 0 0 0 0 0 0 0 0 0 0 0 0 0 0 0 0 0 0 0 0 0 0 0 1 1 0 0
3 2 2 1 2 2 1 0 0 0 0 0 0 0 0 0 0 0 0 0 0 0 0 0 0 0 0 0 0 0 0 0 0 0 0 0 0 0 0 2 0 0
2 0 0 1 1 0 0 0 0 0 0 0 0 0 0 0 0 0 0 0 0 0 0 0 0 0 0 0 0 0 0 0 0 0 0 1 0 0 0 0 0 0
0 0 0 0 0 0 0 0 0 0 0 0 0 0 0 0 0 0 0 0 0 0 0 0 0 0 0 0 0 0 0 0 1 0 0 1 1 0 0 0 0 0
1 1 0 0 0 0 0 0 0 0 0 0 0 0 0 0 0 0 0 0 0 0 0 0 0 0 0 0 0 0 0 0 0 0 0 2 0 0 0 0 0 0
2 0 0 0 0 0 0 0 0 0 0 0 0 0 0 0 0 0 0 0 0 0 0 0 0 0 0 0 1 0 0 0 0 0 0 0 0 0 0 0 0 0
0 0 0 0 0 0 0 0 0 0 0 0 0 0 0 0 0 0 0 0 0 0 0 0 0 0 0 0 0 0 0 0 0 0 0 0 0 0 0 0 0 0
0 0 0 0 0 0 0 0 0 0 0 0 0 0 0 0 0 0 0 0 0 0 0 0 0 0 0 0 0 0 0 0 0 1 0 2 0 0 0 0 0 1
0 0 0 0 0 0 0 0 0 0 0 0 0 0 0 0 0 0 0 0 0 0 0 0 0 0 0 0 0 0 0 0 0 0 0 0 0 0 0 0 0 0
0 0 0 0 0 0 0 0 0 0 0 0 0 0 0 0 0 0 0 0 0 0 0 0 0 0 0 0 0 0 0 0 0 0 0 0 0 0 0 0 0 0
0 0 0 0 0 0 0 0 0 0 0 0 0 0 0 0 0 0 0 0 0 0 0 0 0 0 0 0 0 0 0 0 0 1 0 0 0 0 0 0 0 0
0 0 0 0 0 0 0 0 0 0 0 0 0 0 0 0 0 0 0 0 0 0 0 0 0 0 0 0 0 0 0 0 0 0 0 0 0 0 0 0 0 0
0 0 0 0 0 0 0 0 0 0 0 0 0 0 0 0 0 0 0 0 0 0 0 0 0 0 0 0 0 0 0 0 0 1 0 0 0 0 0 0 0 0
0 0 0 0 0 0 0 0 0 0 0 0 0 0 0 0 0 0 0 0 0 0 0 0 0 0 0 0 0 0 0 0 0 0 0 0 0 0 0 0 0 0
0 0 0 0 0 0 0 0 0 0 0 0 0 0 0 0 0 0 0 0 0 0 0 0 0 0 0 0 0 0 0 0 0 2 0 0 0 0 2 0 0 0
0 0 0 0 0 0 0 0 0 0 0 0 0 0 0 0 0 0 0 0 0 0 0 0 0 0 0 0 0 0 0 0 0 4 0 2 0 0 1 0 0 0
0 0 0 0 0 0 0 0 0 0 0 0 0 0 0 0 0 0 0 0 0 0 0 0 0 0 0 0 0 0 0 0 0 0 0 1 0 0 0 0 0 0
1 2 2 0 0 0 0 0 0 0 0 0 0 0 0 0 0 0 0 0 0 0 0 0 0 0 0 0 0 0 0 0 0 0 0 0 0 0 0 0 0 0
5 5 2 0 0 0 0 0 0 0 0 0 0 0 0 0 0 0 0 0 0 0 0 0 0 0 0 0 0 0 0 0 0 0 0 0 0 0 0 0 0 1
6 2 0 0 0 0 0 0 0 0 0 0 0 0 0 0 0 0 0 0 0 0 0 0 0 0 0 0 0 0 0 0 0 0 0 0 0 0 0 0 0 0
3 0 0 0 0 0 0 0 0 0 0 0 0 0 0 0 0 0 0 0 0 0 0 0 0 0 0 0 0 0 0 0 0 0 0 0 0 0 0 0 0 0

ECMWFNIL_con_mucape_099.txt.gz
CAPE
0 0 0 2 2 2 1 0 0 0 0 0 0 139 0 0 0 0 0 0 0 0 0 0 0 0 0 0 0 0 0 0 0 0 0 0 0 0 0 0 0 0
0 0 0 2 1 1 0 0 0 0 0 0 0 0 0 0 0 0 0 0 0 0 0 0 0 0 0 0 0 0 0 0 0 0 0 0 0 0 0 0 0 0
0 0 0 0 0 0 0 0 0 0 0 0 0 0 0 0 0 0 0 0 0 0 0 0 0 0 0 0 0 0 0 0 0 0 0 0 0 0 0 0 0 0
1 1 1 0 0 0 0 0 0 0 0 0 0 0 0 0 0 0 0 0 0 0 0 0 0 0 0 0 0 0 0 0 0 0 0 0 0 0 0 0 0 0
0 0 0 0 0 2 0 0 0 0 0 0 0 0 0 0 0 0 0 0 0 0 0 0 0 0 0 0 0 0 0 0 0 0 0 0 0 0 0 0 0 0
1 0 3 4 3 0 0 0 0 0 0 0 0 0 0 0 0 0 0 0 0 0 0 0 0 0 0 0 0 0 0 0 0 0 0 0 0 0 0 0 0 0
2 4 4 2 1 0 0 0 0 0 0 0 0 0 0 0 0 0 0 0 0 0 0 0 0 0 0 0 0 0 0 0 0 0 0 0 0 0 0 0 0 0
0 0 0 0 0 0 0 0 0 0 0 0 0 0 0 0 0 0 0 0 0 0 0 0 0 0 0 0 0 0 0 0 0 0 0 0 0 0 0 0 0 0
0 0 0 0 0 0 0 0 0 0 0 0 0 0 0 0 0 0 0 0 0 0 0 0 0 0 0 0 0 0 0 0 0 0 0 0 0 0 0 0 0 0
0 0 0 0 0 0 0 0 0 0 0 0 0 0 0 0 0 0 0 0 0 0 0 0 0 0 0 0 0 0 0 0 0 0 0 0 0 0 0 0 0 0
0 0 0 0 0 0 0 0 0 0 0 0 0 0 0 0 0 0 0 0 0 0 0 0 0 0 0 0 0 0 0 0 0 0 0 0 0 0 0 0 0 0
20 0 0 0 0 0 0 0 0 0 0 0 0 0 0 0 0 0 0 0 0 0 0 0 0 0 0 0 0 0 0 0 0 0 0 0 0 0 0 0 0 0
12 0 0 0 0 0 0 0 0 0 0 0 0 0 0 0 0 0 0 0 0 0 0 0 0 0 0 0 0 0 0 0 0 0 0 0 0 0 0 0 0 0
1 0 0 0 0 0 0 0 0 0 0 0 0 0 0 0 0 0 0 0 0 0 0 0 0 0 0 0 0 0 0 0 0 0 0 0 0 0 0 0 0 0
0 0 0 0 0 0 0 0 0 0 0 0 0 0 0 0 0 0 0 0 0 0 0 0 0 0 0 0 0 0 0 0 0 0 0 0 0 0 0 0 0 0
0 0 0 0 0 0 0 0 0 0 0 0 0 0 0 0 0 0 0 0 0 0 0 0 0 0 0 0 0 0 0 0 0 0 0 0 0 0 0 0 0 0
0 0 0 0 0 0 0 0 0 0 0 0 0 0 0 0 0 0 0 0 0 0 0 0 0 0 0 0 0 0 0 0 0 0 0 0 0 0 0 0 0 0
0 0 0 0 0 0 0 0 0 0 0 0 0 0 0 0 0 0 0 0 0 0 0 0 0 0 0 0 0 0 0 0 0 0 0 0 0 0 0 0 0 0
0 0 0 0 0 0 0 0 0 0 0 0 0 0 0 0 0 0 0 0 0 0 0 0 0 0 0 0 0 0 0 0 0 0 0 0 0 0 0 0 0 0
0 0 0 0 0 0 0 0 0 0 0 0 0 0 0 0 0 0 0 0 0 0 0 0 0 0 0 0 0 0 0 0 0 0 0 0 0 0 0 0 0 0
0 0 0 0 0 0 0 0 0 0 0 0 0 0 0 0 0 0 0 0 0 0 0 0 0 0 0 0 0 0 0 0 0 0 0 0 0 0 0 0 0 0
0 0 0 0 0 0 0 0 0 0 0 0 0 0 0 0 0 0 0 0 0 0 0 0 0 0 0 0 0 0 0 0 0 0 0 0 0 0 0 0 0 0
0 0 0 0 0 0 0 0 0 0 0 0 0 0 0 0 0 0 0 0 0 0 0 0 0 0 0 0 0 0 0 0 0 0 0 0 0 0 0 0 0 0
9 2 0 0 0 0 0 0 0 0 0 0 0 0 0 0 0 0 0 0 0 0 0 0 0 0 0 0 0 0 0 0 0 0 0 0 0 0 0 0 0 0
9 5 4 2 2 3 0 0 0 0 0 0 0 0 0 0 0 0 0 0 0 0 0 0 0 0 0 0 0 0 0 0 0 0 0 0 0 0 0 0 0 0
9 6 4 4 4 0 0 0 0 0 0 0 0 0 0 0 0 0 0 0 0 0 0 0 0 0 0 0 0 0 0 0 0 0 0 0 0 0 0 0 0 0

ECMWFNIL_con_mucape_102.txt.gz
CAPE
248 266 252 210 142 0 0 0 0 0 0 0 0 0 0 0 0 0 0 0 0 0 0 0 0 0 0 0 0 0 0 0 0 0 0 0 0 0 0 0 0 0
310 239 145 0 0 0 0 0 0 0 0 0 0 0 0 0 0 0 0 0 0 0 0 0 0 0 0 0 0 0 0 0 0 0 0 0 0 0 0 0 0 0
213 0 0 0 0 0 0 0 0 0 0 0 0 0 0 0 0 0 0 0 0 0 0 0 0 0 0 0 0 0 0 0 0 0 0 0 0 0 0 0 0 0
0 0 0 0 0 1 0 0 0 0 0 0 0 0 0 0 0 0 0 0 0 0 0 0 0 0 0 0 0 0 0 0 0 0 0 0 0 0 0 0 0 0
0 0 0 0 1 1 0 0 0 0 0 0 0 0 0 0 0 0 0 0 0 0 0 0 0 0 0 0 0 0 0 0 0 0 0 0 0 0 0 0 0 0
0 0 0 0 0 0 0 0 0 0 0 0 0 0 0 0 0 0 0 0 0 0 0 0 0 0 0 0 0 0 0 0 0 0 0 0 0 0 0 0 0 0
155 30 0 0 0 0 0 0 0 0 0 0 0 0 0 0 0 0 0 0 0 0 0 0 0 0 0 0 0 0 0 0 0 0 0 0 0 0 0 0 0 0
218 113 0 0 0 0 0 0 0 0 0 0 0 0 0 0 0 0 0 0 0 0 0 0 0 0 0 0 0 0 0 0 0 0 0 0 0 0 0 0 0 0
260 147 80 0 0 0 0 0 0 0 0 0 0 0 0 0 0 0 0 0 0 0 0 0 0 0 0 0 0 0 0 0 0 0 0 0 0 0 0 0 0 0
300 173 107 43 0 0 0 0 0 0 0 0 0 0 0 0 0 0 0 0 0 0 0 0 0 0 0 0 0 0 0 0 0 0 0 0 0 0 0 0 0 0
312 190 120 82 0 0 0 0 0 0 0 0 0 0 0 0 0 0 0 0 0 0 0 0 0 0 0 0 0 0 0 0 0 0 0 0 0 0 0 0 0 0
276 175 132 94 33 0 0 0 0 0 0 0 0 0 0 0 0 0 0 0 0 0 0 0 0 0 0 0 0 0 0 0 0 0 0 0 0 0 0 0 0 0
238 164 142 106 30 0 0 0 0 0 0 0 0 0 0 0 0 0 0 0 0 0 0 0 0 0 0 0 0 0 0 0 0 0 0 0 0 0 0 0 0 0
176 154 125 112 39 0 0 0 0 0 0 0 0 0 0 0 0 0 0 0 0 0 0 0 0 0 0 0 0 0 0 0 0 0 0 0 0 0 0 0 0 0
160 138 142 106 89 0 0 0 0 0 0 0 0 0 0 0 0 0 0 0 0 0 0 0 0 0 0 0 0 0 0 0 0 0 0 0 0 0 0 0 0 0
136 140 148 122 97 0 0 0 0 0 0 0 0 0 0 0 0 0 0 0 0 0 0 0 0 0 0 0 0 0 0 0 0 0 0 0 0 0 0 0 0 0
116 151 152 138 82 0 0 0 0 0 0 0 0 0 0 0 0 0 0 0 0 0 0 0 0 0 0 0 0 0 0 0 0 0 0 0 0 0 0 0 0 0
121 163 159 140 47 0 0 0 0 0 0 0 0 0 0 0 0 0 0 0 0 0 0 0 0 0 0 0 0 0 0 0 0 0 0 0 0 0 0 0 0 0
147 179 166 116 20 0 0 0 0 0 0 0 0 0 0 0 0 0 0 0 0 0 0 0 0 0 0 0 0 0 0 0 0 0 0 0 0 0 0 0 0 0
170 175 167 74 5 0 0 0 0 0 0 0 0 0 0 0 0 0 0 0 0 0 0 0 0 0 0 0 0 0 0 0 0 0 0 0 0 0 0 0 0 0
142 192 136 43 0 0 0 0 0 0 0 0 0 0 0 0 0 0 0 0 0 0 0 0 0 0 0 0 0 0 0 0 0 0 0 0 0 0 0 0 0 0
175 178 92 16 0 0 0 0 0 0 0 0 0 0 0 0 0 0 0 0 0 0 0 0 0 0 0 0 0 0 0 0 0 0 0 0 0 0 0 0 0 0
189 139 57 1 0 0 0 0 0 0 0 0 0 0 0 0 0 0 0 0 0 0 0 0 0 0 0 0 0 0 0 0 0 0 0 0 0 0 0 0 0 0
153 90 24 0 0 0 0 0 0 0 0 0 0 0 0 0 0 0 0 0 0 0 0 0 0 0 0 0 0 0 0 0 0 0 0 0 0 0 0 0 0 0
99 52 4 0 0 0 0 0 0 0 0 0 0 0 0 0 0 0 0 0 0 0 0 0 0 0 0 0 0 0 0 0 0 0 0 0 0 0 0 0 0 0
58 27 0 0 0 0 0 0 0 0 0 0 0 0 0 0 0 0 0 0 0 0 0 0 0 0 0 0 0 0 0 0 0 0 0 0 0 0 0 0 0 0

ECMWFNIL_con_mucape_105.txt.gz
CAPE
321 361 387 337 248 228 249 245 223 187 153 132 134 0 0 0 0 0 0 0 0 0 0 0 0 0 0 0 0 0 0 0 0 0 0 0 0 0 0 0 0 0
404 377 317 286 299 272 235 177 66 0 0 0 0 0 0 0 0 0 0 0 0 0 0 0 0 0 0 0 0 0 0 0 0 0 0 0 0 0 0 0 0 0
332 302 333 344 296 219 67 0 0 0 0 0 0 0 0 0 0 0 0 0 0 0 0 0 0 0 0 0 0 0 0 0 0 0 0 0 0 0 0 0 0 0
332 307 364 319 220 42 0 0 0 0 0 0 0 0 0 0 0 0 0 0 0 0 0 0 0 0 0 0 0 0 0 0 0 0 0 0 0 0 0 0 0 0
287 364 366 226 46 0 0 1 1 0 0 0 0 0 0 0 0 0 0 0 0 0 0 0 0 0 0 0 0 0 0 0 0 0 0 0 0 0 0 0 0 0
379 410 271 33 0 0 0 1 1 0 0 0 0 0 0 0 0 0 0 0 0 0 0 0 0 0 0 0 0 0 0 0 0 0 0 0 0 0 0 0 0 0
437 372 230 162 93 0 0 0 0 0 0 0 0 0 0 0 0 0 0 0 0 0 0 0 0 0 0 0 0 0 0 0 0 0 0 0 0 0 0 0 0 0
447 343 315 256 169 90 0 0 0 0 0 0 0 0 0 0 0 0 0 0 0 0 0 0 0 0 0 0 0 0 0 0 0 0 0 0 0 0 0 0 0 0
422 373 316 287 231 140 0 0 0 0 0 0 0 0 0 0 0 0 0 0 0 0 0 0 0 0 0 0 0 0 0 0 0 0 0 0 0 0 0 0 0 0
344 335 336 330 286 187 109 0 0 0 0 0 0 0 0 0 0 0 0 0 0 0 0 0 0 0 0 0 0 0 0 0 0 0 0 0 0 0 0 0 0 0
423 434 419 379 323 215 134 73 0 0 0 0 0 0 0 0 0 0 0 0 0 0 0 0 0 0 0 0 0 0 0 0 0 0 0 0 0 0 0 0 0 0
455 437 425 388 341 242 142 92 37 0 0 0 0 0 0 0 0 0 0 0 0 0 0 0 0 0 0 0 0 0 0 0 0 0 0 0 0 0 0 0 0 0
413 405 393 376 329 240 152 104 60 0 0 0 0 0 0 0 0 0 0 0 0 0 0 0 0 0 0 0 0 0 0 0 0 0 0 0 0 0 0 0 0 0
394 379 382 354 322 221 161 120 68 0 0 0 0 0 0 0 0 0 0 0 0 0 0 0 0 0 0 0 0 0 0 0 0 0 0 0 0 0 0 0 0 0
394 375 360 314 292 200 168 136 77 0 0 0 0 0 0 0 0 0 0 0 0 0 0 0 0 0 0 0 0 0 0 0 0 0 0 0 0 0 0 0 0 0
384 314 294 240 240 207 171 151 84 0 0 0 0 0 0 0 0 0 0 0 0 0 0 0 0 0 0 0 0 0 0 0 0 0 0 0 0 0 0 0 0 0
352 286 209 223 199 198 183 154 28 0 0 0 0 0 0 0 0 0 0 0 0 0 0 0 0 0 0 0 0 0 0 0 0 0 0 0 0 0 0 0 0 0
315 239 186 178 167 177 178 115 31 2 0 0 0 0 0 0 0 0 0 0 0 0 0 0 0 0 0 0 0 0 0 0 0 0 0 0 0 0 0 0 0 0
240 192 149 137 126 114 147 82 16 0 0 0 0 0 0 0 0 0 0 0 0 0 0 0 0 0 0 0 0 0 0 0 0 0 0 0 0 0 0 0 0 0
256 198 133 105 83 123 130 79 18 0 0 0 0 0 0 0 0 0 0 0 0 0 0 0 0 0 0 0 0 0 0 0 0 0 0 0 0 0 0 0 0 0
252 163 42 67 104 138 135 85 14 0 0 0 0 0 0 0 0 0 0 0 0 0 0 0 0 0 0 0 0 0 0 0 0 0 0 0 0 0 0 0 0 0
148 32 58 106 139 160 139 70 0 0 0 0 0 0 0 0 0 0 0 0 0 0 0 0 0 0 0 0 0 0 0 0 0 0 0 0 0 0 0 0 0 0
81 65 46 116 135 145 108 27 0 0 0 0 0 0 0 0 0 0 0 0 0 0 0 0 0 0 0 0 0 0 0 0 0 0 0 0 0 0 0 0 0 0
16 53 44 109 92 82 40 1 0 0 0 0 0 0 0 0 0 0 0 0 0 0 0 0 0 0 0 0 0 0 0 0 0 0 0 0 0 0 0 0 0 0
8 0 54 104 72 51 8 0 0 0 0 0 0 0 0 0 0 0 0 0 0 0 0 0 0 0 0 0 0 0 0 0 0 0 0 0 0 0 0 0 0 0
0 3 39 82 51 46 3 0 0 0 0 0 0 0 0 0 0 0 0 0 0 0 0 0 0 0 0 0 0 0 0 0 0 0 0 0 0 0 0 0 0 0

ECMWFNIL_con_mucape_108.txt.gz
CAPE
544 453 430 426 406 374 397 360 306 308 260 172 33 0 0 0 0 111 0 0 0 0 0 0 0 0 0 0 0 0 0 0 0 0 0 0 0 0 0 0 0 0
475 452 466 386 376 399 347 328 307 251 67 0 0 0 0 0 0 0 0 0 0 0 0 0 0 0 0 0 0 0 0 0 0 0 0 0 0 0 0 0 0 0
523 521 426 336 356 339 332 315 185 0 0 0 0 0 0 0 0 0 0 0 0 0 0 0 0 0 0 0 0 0 0 0 0 0 0 0 0 0 0 0 0 0
505 381 361 376 357 322 319 207 1 0 0 0 0 0 0 0 0 0 0 0 0 0 0 0 0 0 0 0 0 0 0 0 0 0 0 0 0 0 0 0 0 0
422 393 373 350 292 331 247 1 1 1 0 0 0 0 0 0 0 0 0 0 0 0 0 0 0 0 0 0 0 0 0 0 0 0 0 0 0 0 0 0 0 0
467 442 388 318 351 324 42 1 2 1 0 0 0 0 0 0 0 0 0 0 0 0 0 0 0 0 0 0 0 0 0 0 0 0 0 0 0 0 0 0 0 0
440 410 366 375 393 251 59 2 2 0 0 0 0 0 0 0 0 0 0 0 0 0 0 0 0 0 0 0 0 0 0 0 0 0 0 0 0 0 0 0 0 0
474 438 428 432 387 258 210 134 0 0 0 0 0 0 0 0 0 0 0 0 0 0 0 0 0 0 0 0 0 0 0 0 0 0 0 0 0 0 0 0 0 0
528 484 462 450 415 313 256 199 154 107 0 0 0 0 0 0 0 0 0 0 0 0 0 0 0 0 0 0 0 0 0 0 0 0 0 0 0 0 0 0 0 0
582 512 472 455 380 313 307 247 198 169 105 0 0 0 0 0 0 0 0 0 0 0 0 0 0 0 0 0 0 0 0 0 0 0 0 0 0 0 0 0 0 0
596 485 416 385 391 401 378 331 272 239 194 49 0 0 0 0 0 0 0 0 0 0 0 0 0 0 0 0 0 0 0 0 0 0 0 0 0 0 0 0 0 0
522 437 415 452 476 474 418 385 319 292 250 140 98 2 0 0 0 0 0 0 0 0 0 0 0 0 0 0 0 0 0 0 0 0 0 0 0 0 0 0 0 0
518 479 497 527 520 485 425 403 341 338 297 190 122 14 0 0 0 0 0 0 0 0 0 0 0 0 0 0 0 0 0 0 0 0 0 0 0 0 0 0 0 0
542 538 553 534 513 452 442 398 363 359 289 221 126 0 0 0 0 0 0 0 0 0 0 0 0 0 0 0 0 0 0 0 0 0 0 0 0 0 0 0 0 0
583 562 557 530 497 457 437 364 358 326 258 222 120 0 0 0 0 0 0 0 0 0 0 0 0 0 0 0 0 0 0 0 0 0 0 0 0 0 0 0 0 0
589 567 539 522 492 454 395 326 310 264 223 205 116 0 0 0 0 0 0 0 0 0 0 0 0 0 0 0 0 0 0 0 0 0 0 0 0 0 0 0 0 0
553 522 485 471 433 416 351 289 234 192 172 179 107 13 0 0 0 0 0 0 0 0 0 0 0 0 0 0 0 0 0 0 0 0 0 0 0 0 0 0 0 0
560 555 485 397 356 340 298 234 180 139 128 146 104 23 0 0 0 0 0 0 0 0 0 0 0 0 0 0 0 0 0 0 0 0 0 0 0 0 0 0 0 0
504 535 483 378 257 219 125 179 144 78 82 121 94 8 0 0 0 0 0 0 0 0 0 0 0 0 0 0 0 0 0 0 0 0 0 0 0 0 0 0 0 0
463 530 534 400 74 83 113 141 104 71 78 86 37 0 0 0 0 0 0 0 0 0 0 0 0 0 0 0 0 0 0 0 0 0 0 0 0 0 0 0 0 0
439 518 534 456 96 109 101 91 47 52 63 81 37 0 0 0 0 0 0 0 0 0 0 0 0 0 0 0 0 0 0 0 0 0 0 0 0 0 0 0 0 0
290 531 517 214 137 105 85 48 39 48 71 72 21 0 0 0 0 0 0 0 0 0 0 0 0 0 0 0 0 0 0 0 0 0 0 0 0 0 0 0 0 0
278 475 468 457 104 70 14 27 50 58 60 38 5 0 0 0 0 0 0 0 0 0 0 0 0 0 0 0 0 0 0 0 0 0 0 0 0 0 0 0 0 0
216 191 254 338 12 1 16 41 40 24 70 12 0 0 0 0 0 0 0 0 0 0 0 0 0 0 0 0 0 0 0 0 0 0 0 0 0 0 0 0 0 0
84 202 281 259 6 9 40 36 47 20 60 7 0 0 0 0 0 0 0 0 0 0 0 0 0 0 0 0 0 0 0 0 0 0 0 0 0 0 0 0 0 0
176 283 386 190 22 4 19 43 43 18 52 26 0 0 0 0 0 0 0 0 0 0 0 0 0 0 0 0 0 0 0 0 0 0 0 0 0 0 0 0 0 0

ECMWFNIL_con_mucape_111.txt.gz
CAPE
584 530 458 327 193 147 184 192 189 228 302 287 196 33 0 0 0 0 0 0 0 0 0 0 0 0 0 0 0 0 0 0 0 0 0 0 0 0 0 0 0 0
536 515 450 246 176 230 251 216 247 298 275 81 0 0 0 0 0 0 0 0 0 0 0 0 0 0 0 0 0 0 0 0 0 0 0 0 0 0 0 0 0 0
537 506 342 196 243 240 238 269 324 320 63 0 0 0 0 0 0 0 0 0 0 0 0 0 0 0 0 0 0 0 0 0 0 0 0 0 0 0 0 0 0 0
514 300 233 299 381 326 262 329 319 69 0 0 0 0 0 0 0 0 0 0 0 0 0 0 0 0 0 0 0 0 0 0 0 0 0 0 0 0 0 0 0 0
417 279 334 404 331 239 249 299 197 0 0 0 0 0 0 0 0 0 0 0 0 0 0 0 0 0 0 0 0 0 0 0 0 0 0 0 0 0 0 0 0 0
292 354 421 376 346 306 326 314 38 0 0 0 0 0 0 0 0 0 0 0 0 0 0 0 0 0 0 0 0 0 0 0 0 0 0 0 0 0 0 0 0 0
461 487 474 411 321 354 370 344 116 0 0 0 0 0 0 0 0 0 0 0 0 0 0 0 0 0 0 0 0 0 0 0 0 0 0 0 0 0 0 0 0 0
550 448 472 430 429 399 415 361 242 188 149 95 0 0 0 0 0 0 0 0 0 0 0 0 0 0 0 0 0 0 0 0 0 0 0 0 0 0 0 0 0 0
480 548 477 497 464 442 419 382 302 230 216 177 125 41 38 0 0 0 0 0 0 0 0 0 0 0 0 0 0 0 0 0 0 0 0 0 0 0 0 0 0 0
566 533 518 520 508 451 419 391 301 266 248 238 191 126 129 81 0 0 0 0 0 0 0 0 0 0 0 0 0 0 0 0 0 0 0 0 0 0 0 0 0 0
535 494 516 541 504 430 407 359 334 358 304 273 304 206 202 140 51 0 0 0 0 0 0 0 0 0 0 0 0 0 0 0 0 0 0 0 0 0 0 0 0 0
495 499 519 520 456 398 378 406 412 413 390 276 345 284 253 165 137 5 0 0 0 0 0 0 0 0 0 0 0 0 0 0 0 0 0 0 0 0 0 0 0 0
507 477 526 485 431 396 420 463 452 462 432 343 361 272 280 195 191 115 0 0 0 0 0 0 0 0 0 0 0 0 0 0 0 0 0 0 0 0 0 0 0 0
542 537 540 500 443 432 464 473 482 484 430 357 392 283 304 216 218 153 10 0 0 0 0 0 0 0 0 0 0 0 0 0 0 0 0 0 0 0 0 0 0 0
524 527 511 529 494 487 491 480 479 469 390 392 368 316 295 209 218 140 11 0 0 0 0 0 0 0 0 0 0 0 0 0 0 0 0 0 0 0 0 0 0 0
424 442 467 523 516 493 506 483 472 453 394 411 355 293 270 199 191 136 13 0 0 0 0 0 0 0 0 0 0 0 0 0 0 0 0 0 0 0 0 0 0 0
392 418 379 489 499 486 496 470 460 409 370 387 332 292 238 190 156 124 28 0 0 0 0 0 0 0 0 0 0 0 0 0 0 0 0 0 0 0 0 0 0 0
310 301 363 462 483 466 450 417 394 343 349 333 273 253 203 187 130 90 7 0 0 0 0 0 0 0 0 0 0 0 0 0 0 0 0 0 0 0 0 0 0 0
249 292 388 467 482 443 351 269 262 268 246 225 150 186 149 156 99 48 5 0 0 0 0 0 0 0 0 0 0 0 0 0 0 0 0 0 0 0 0 0 0 0
224 306 421 479 456 423 362 274 80 30 0 39 68 92 120 124 69 31 1 0 0 0 0 0 0 0 0 0 0 0 0 0 0 0 0 0 0 0 0 0 0 0
242 319 427 435 389 336 130 119 110 28 60 55 37 58 83 87 47 22 0 0 0 0 0 0 0 0 0 0 0 0 0 0 0 0 0 0 0 0 0 0 0 0
312 284 263 265 243 182 178 172 157 125 68 72 55 40 25 20 8 0 0 0 0 0 0 0 0 0 0 0 0 0 0 0 0 0 0 0 0 0 0 0 0 0
422 358 276 257 248 224 209 201 150 91 52 70 29 7 7 1 8 0 0 0 0 0 0 0 0 0 0 0 0 0 0 0 0 0 0 0 0 0 0 0 0 0
296 302 279 253 218 191 167 160 188 182 81 26 2 1 1 1 4 0 0 0 0 0 0 0 0 0 0 0 0 0 0 0 0 0 0 0 0 0 0 0 0 0
161 133 78 156 179 181 52 165 152 251 106 24 0 0 2 4 4 0 0 0 0 0 0 0 0 0 0 0 0 0 0 0 0 0 0 0 0 0 0 0 0 0
133 118 76 30 50 213 37 180 262 210 139 6 0 1 8 8 21 5 0 0 0 0 0 0 0 0 0 0 0 0 0 0 0 0 0 0 0 0 0 0 0 0

ECMWFNIL_con_mucape_114.txt.gz
CAPE
559 544 415 311 311 180 0 56 60 29 148 165 194 182 0 0 0 0 0 0 0 0 0 0 0 0 0 0 0 0 0 0 0 0 0 0 0 0 0 0 0 0
502 444 388 356 229 101 32 36 62 94 189 188 163 133 17 0 0 0 0 0 0 0 0 0 0 0 0 0 0 0 0 0 0 0 0 0 0 0 0 0 0 0
507 419 410 292 148 84 94 113 180 250 205 183 28 0 0 0 0 0 0 0 0 0 0 0 0 0 0 0 0 0 0 0 0 0 0 0 0 0 0 0 0 0
466 472 397 240 44 106 158 154 210 205 171 27 0 0 0 0 0 0 0 0 0 0 0 0 0 0 0 0 0 0 0 0 0 0 0 0 0 0 0 0 0 0
496 428 369 145 0 114 211 172 220 203 27 0 0 0 0 0 0 0 0 0 0 0 0 0 0 0 0 0 0 0 0 0 0 0 0 0 0 0 0 0 0 0
491 414 300 172 172 220 189 193 260 225 15 0 0 0 0 0 0 0 0 0 0 0 0 0 0 0 0 0 0 0 0 0 0 0 0 0 0 0 0 0 0 0
503 381 226 188 242 288 256 287 295 247 8 0 0 0 0 0 0 0 0 0 0 0 0 0 0 0 0 0 0 0 0 0 0 0 0 0 0 0 0 0 0 0
540 255 201 252 332 352 315 338 350 314 189 0 0 0 0 0 0 0 0 0 0 0 0 0 0 0 0 0 0 0 0 0 0 0 0 0 0 0 0 0 0 0
534 272 261 392 339 379 383 376 368 350 277 169 113 94 0 0 0 0 0 0 0 0 0 0 0 0 0 0 0 0 0 0 0 0 0 0 0 0 0 0 0 0
680 303 364 388 353 445 445 415 347 368 311 212 183 143 128 5 0 4 6 0 0 0 0 0 0 0 0 0 0 0 0 0 0 0 0 0 0 0 0 0 0 0
511 346 455 421 475 448 458 429 397 370 325 248 254 252 160 184 119 119 142 109 10 26 0 0 0 0 0 0 0 0 0 0 0 0 0 0 0 0 0 0 0 0
371 383 407 439 424 494 453 434 407 384 347 321 301 313 246 235 232 112 183 190 96 120 27 0 0 0 0 0 0 0 0 0 0 0 0 0 0 0 0 0 0 0
360 454 426 417 470 502 458 442 415 390 381 414 370 354 276 259 297 207 221 228 152 166 116 0 0 0 0 0 0 0 0 0 0 0 0 0 0 0 0 0 0 0
420 426 375 395 448 472 441 434 428 406 433 427 427 421 342 314 343 278 258 259 182 197 151 0 0 0 0 0 0 0 0 0 0 0 0 0 0 0 0 0 0 0
403 351 320 353 403 460 450 452 450 452 468 466 473 449 339 349 322 245 278 280 200 189 163 0 0 0 0 0 0 0 0 0 0 0 0 0 0 0 0 0 0 0
339 384 402 379 403 468 479 449 477 505 516 495 476 450 353 361 337 266 274 270 190 185 140 0 0 0 0 0 0 0 0 0 0 0 0 0 0 0 0 0 0 0
374 377 388 405 390 434 450 492 500 465 512 507 469 459 384 368 330 252 272 245 191 188 151 65 0 0 0 0 0 0 0 0 0 0 0 0 0 0 0 0 0 0
317 340 354 355 336 381 424 440 466 460 497 512 423 426 338 338 298 222 225 196 155 160 128 60 0 0 0 0 0 0 0 0 0 0 0 0 0 0 0 0 0 0
309 292 280 270 258 287 372 390 444 448 521 430 364 347 284 264 220 83 90 111 122 127 106 25 0 0 0 0 0 0 0 0 0 0 0 0 0 0 0 0 0 0
302 279 281 263 248 258 379 386 421 433 433 347 262 220 198 76 107 112 90 61 64 82 66 6 0 0 0 0 0 0 0 0 0 0 0 0 0 0 0 0 0 0
288 300 294 276 102 102 315 390 405 429 382 302 117 0 141 143 133 110 52 37 37 41 26 0 0 0 0 0 0 0 0 0 0 1 0 0 0 0 0 0 0 0
253 263 269 257 75 187 322 378 384 379 187 190 183 177 183 167 117 66 39 14 11 12 7 0 0 0 0 0 0 0 0 0 0 1 0 0 0 0 0 0 0 0
373 359 286 181 189 230 354 380 356 344 301 243 214 229 208 144 88 60 22 0 1 0 3 0 0 0 0 0 0 0 0 0 0 0 0 0 0 0 0 0 0 0
568 508 457 435 368 282 266 310 327 292 288 252 226 210 174 140 108 68 16 0 0 0 0 0 0 0 0 0 0 0 0 0 0 0 0 0 0 0 0 0 1 0
438 378 402 469 488 466 412 381 376 368 314 254 221 159 151 150 142 91 50 0 0 0 0 0 0 0 0 0 0 0 0 0 0 0 0 0 0 0 0 0 0 0
436 370 346 261 268 298 211 193 125 196 188 152 59 112 237 203 104 104 22 0 0 0 0 0 0 0 0 0 0 0 0 0 0 0 0 0 0 0 0 0 0 0

ECMWFNIL_con_mucape_117.txt.gz
CAPE
646 559 515 364 267 238 223 235 88 19 2 2 3 1 11 203 177 155 128 90 0 0 0 0 0 0 0 0 0 0 0 0 0 0 0 0 0 0 0 0 0 0
678 510 477 334 425 331 315 185 156 31 4 4 4 98 118 173 166 136 153 19 0 0 0 0 0 0 0 0 0 0 0 0 0 0 0 0 0 0 0 0 0 0
614 438 397 361 290 261 123 25 12 7 1 1 158 214 174 170 159 130 120 0 0 0 0 0 0 0 0 0 0 0 0 0 0 0 0 0 0 0 0 0 0 0
640 513 368 310 250 177 19 5 31 8 125 188 182 186 182 159 130 29 0 0 0 0 0 0 0 0 0 0 0 0 0 0 0 0 0 0 0 0 0 0 0 0
574 500 368 396 217 73 0 22 56 130 171 153 183 176 128 4 0 0 0 0 0 0 0 0 0 0 0 0 0 0 0 0 0 0 0 0 0 0 0 0 0 0
504 462 376 286 108 7 0 13 0 167 159 220 165 10 2 0 0 0 0 0 0 0 0 0 0 0 0 0 0 0 0 0 0 0 0 0 0 0 0 0 0 0
532 496 391 114 4 0 54 106 177 191 208 232 82 1 0 0 0 0 0 0 0 0 0 0 0 0 0 0 0 0 0 0 0 0 0 0 0 0 0 0 0 0
516 423 309 281 20 100 120 5 236 270 263 280 136 0 0 0 0 0 0 0 0 0 0 0 0 0 0 0 0 0 0 0 0 0 0 0 0 0 0 0 0 0
511 348 300 234 28 176 123 27 275 296 288 323 257 0 0 0 0 0 0 0 0 0 0 0 0 0 0 0 0 0 0 0 0 0 0 0 0 0 0 0 0 0
467 328 335 199 54 207 255 270 356 344 329 347 345 229 8 4 0 0 0 0 0 6 0 0 0 0 0 0 0 0 0 0 0 0 0 0 0 0 0 0 0 0
413 419 361 125 218 206 305 400 417 399 381 349 355 298 218 180 144 137 133 12 37 116 120 24 0 0 61 0 0 0 0 0 0 0 0 0 0 0 0 0 0 0
488 508 198 243 261 284 392 440 458 442 406 373 343 346 283 234 215 176 178 178 28 133 145 114 109 116 132 56 0 0 0 0 0 0 0 0 0 0 0 0 0 0
506 407 295 192 282 349 413 416 447 450 387 370 360 356 317 318 288 217 211 196 154 172 173 148 125 143 151 113 0 0 0 0 0 0 0 0 0 0 0 0 0 0
600 539 500 351 79 393 404 441 435 434 414 354 396 372 362 368 368 296 282 225 196 178 183 152 128 153 148 70 0 0 0 0 0 0 0 0 0 0 0 0 0 0
640 644 568 311 337 399 429 457 430 420 385 401 415 412 412 396 369 339 344 324 240 193 187 160 156 151 148 87 0 2 0 0 0 0 0 0 0 0 0 0 0 0
722 679 589 358 381 399 456 432 457 415 392 430 432 443 450 419 391 361 331 301 301 230 210 196 171 150 127 0 0 2 0 0 0 0 0 0 0 0 0 0 0 0
748 746 580 388 401 350 388 425 448 446 424 462 455 476 475 442 396 372 280 287 275 250 211 199 160 136 96 1 29 1 0 0 0 0 0 0 0 0 0 0 0 0
710 594 341 382 362 357 401 426 424 456 449 452 446 476 456 400 364 355 262 258 260 199 176 79 141 102 92 69 20 0 0 13 0 0 0 0 0 0 0 0 0 0
582 373 324 379 336 354 374 370 425 468 467 514 479 426 430 437 274 263 254 202 181 87 64 99 111 84 60 43 8 0 0 0 0 0 0 0 0 0 0 0 0 0
732 460 355 392 341 366 377 396 425 458 425 443 436 412 436 337 232 215 190 56 24 81 104 110 89 61 43 21 0 0 0 0 0 0 0 0 0 0 0 0 0 0
489 360 366 388 370 384 392 394 379 415 422 416 388 422 413 385 305 173 0 60 100 98 92 82 39 2 6 6 0 0 0 0 0 0 0 0 0 0 0 0 0 0
330 347 308 337 358 341 339 332 303 315 338 394 383 379 388 336 293 226 108 81 113 130 108 74 18 0 0 1 0 0 0 0 0 0 0 0 0 0 0 0 0 0
458 352 258 352 347 263 140 310 314 286 302 311 348 243 126 239 217 212 186 138 129 133 114 110 43 0 0 0 0 0 0 0 0 0 0 0 0 0 0 0 0 0
617 491 377 317 281 296 271 270 236 190 308 339 352 200 208 239 130 200 217 213 153 140 141 122 60 0 0 0 0 0 0 0 0 0 0 0 0 0 0 0 0 0
734 585 468 447 421 374 374 406 413 391 332 319 302 297 188 148 131 153 28 38 120 122 90 114 31 0 0 0 0 0 0 0 0 0 0 0 0 0 0 0 0 0
708 612 514 439 476 487 435 409 412 392 380 360 393 378 326 296 228 202 189 157 100 71 64 29 6 0 0 0 0 0 0 0 0 0 0 0 0 0 0 0 0 0

ECMWFNIL_con_mucape_120.txt.gz
CAPE
952 673 594 578 388 252 223 161 134 110 70 20 1 0 1 0 0 0 0 0 0 0 0 0 0 0 0 0 0 0 0 0 0 0 0 0 0 0 0 0 0 0
816 756 625 576 382 350 333 234 189 191 159 26 12 2 0 0 0 0 0 0 0 0 0 0 0 0 0 0 0 0 0 0 0 0 0 0 0 0 0 0 0 0
802 776 719 645 408 415 344 226 170 205 109 8 1 0 0 0 0 0 0 0 0 0 0 0 0 0 0 0 0 0 0 0 0 0 0 0 0 0 0 0 0 0
787 798 687 554 393 358 422 313 169 161 23 0 0 0 0 0 0 0 0 0 0 0 0 0 0 0 0 0 0 0 0 0 0 0 0 0 0 0 0 0 0 0
844 824 555 439 349 291 248 224 116 16 0 0 0 0 0 49 184 0 55 0 0 0 0 0 0 0 0 0 0 0 0 0 0 0 0 0 0 0 0 0 0 0
850 659 591 471 334 215 150 224 46 1 0 0 0 0 0 0 178 140 0 0 0 0 0 0 0 0 0 0 0 0 0 0 0 0 0 0 0 0 0 0 0 0
842 636 587 472 387 288 124 264 242 0 0 0 0 0 0 118 0 0 0 0 0 0 0 0 0 0 0 0 0 0 0 0 0 0 0 0 0 0 0 0 0 0
720 648 571 499 404 347 308 280 239 0 0 0 0 0 202 184 0 0 0 0 0 0 0 0 0 0 0 0 0 0 0 0 0 0 0 0 0 0 0 0 0 0
677 575 520 436 376 348 293 283 198 0 0 0 268 229 234 0 0 0 0 0 0 0 0 0 0 0 0 0 0 0 0 0 0 0 0 0 0 0 0 0 0 0
595 474 433 405 430 397 347 290 165 0 0 0 239 259 275 208 0 0 0 0 0 0 0 0 0 0 0 0 0 0 0 0 0 0 0 0 0 0 0 0 0 0
505 413 391 432 501 476 400 278 0 14 0 0 270 308 289 287 162 0 0 0 0 0 0 0 0 0 0 0 0 0 0 0 0 0 0 0 0 0 0 0 0 0
481 409 434 526 565 467 342 166 112 81 50 305 320 346 324 294 265 199 180 31 0 0 0 0 0 0 0 0 0 0 39 99 0 0 0 0 0 0 0 0 0 0
432 471 526 568 487 366 130 174 138 111 360 386 385 345 349 321 307 264 239 228 44 0 0 0 0 0 0 0 76 0 26 102 77 0 0 0 0 0 0 0 0 0
435 495 580 530 392 248 172 160 193 372 407 455 410 396 332 324 328 296 286 290 272 59 56 58 0 0 0 39 125 0 12 102 98 67 44 7 0 0 0 0 0 0
482 586 645 508 324 174 170 159 264 315 462 471 418 409 346 309 335 331 334 328 328 244 204 205 163 145 0 107 134 0 0 91 101 78 41 10 0 0 0 0 0 0
549 621 605 487 349 214 192 146 306 338 425 417 358 383 358 348 368 369 369 368 363 306 119 0 195 207 129 135 124 0 0 93 84 56 23 0 0 0 0 0 0 0
598 653 585 541 457 331 213 194 330 396 367 383 330 341 363 371 378 391 408 416 403 368 280 0 53 193 0 0 0 0 78 70 61 44 8 0 0 0 0 0 0 0
666 665 648 613 488 359 264 224 354 433 385 378 304 284 365 397 404 403 435 437 412 359 266 0 30 0 0 0 68 66 57 46 37 21 1 0 0 0 0 0 0 0
752 678 645 613 475 360 286 290 364 434 411 368 352 325 364 373 396 402 439 440 393 282 135 0 0 0 0 62 67 53 10 0 0 0 0 0 0 0 0 0 0 0
706 673 644 555 503 458 353 350 412 380 341 395 344 322 316 361 345 366 350 354 374 325 148 97 0 82 82 69 43 10 0 0 0 0 0 0 0 0 0 0 0 0
670 625 683 640 641 556 464 414 437 354 308 331 367 353 381 417 361 351 370 301 352 352 291 280 217 119 88 70 42 16 0 0 0 0 0 0 0 0 0 0 0 0
668 582 582 672 686 649 514 385 366 354 295 332 381 412 410 396 319 343 354 311 305 369 330 307 220 159 164 145 92 23 0 0 0 0 0 0 0 0 0 0 0 0
724 664 552 574 648 536 444 370 368 376 366 374 386 387 400 401 349 320 327 310 318 271 286 262 240 179 148 85 42 1 0 0 0 0 0 0 0 0 0 0 0 0
762 751 753 708 608 482 379 362 362 365 400 364 356 318 218 309 347 307 267 243 211 195 224 146 90 9 25 0 0 0 0 0 0 0 0 0 0 0 0 0 0 0
808 820 787 738 757 544 510 450 349 361 361 347 294 273 277 266 258 277 208 205 134 30 14 0 0 0 0 0 0 0 0 0 0 1 0 0 0 0 0 0 0 0
948 560 623 454 280 573 632 569 469 396 361 348 369 380 384 369 274 150 102 132 142 88 74 9 34 18 0 0 0 0 0 0 0 0 1 0 0 0 0 0 0 0